     2              OBSERVATION DATA    GPS                 RINEX VERSION / TYPE
teqc 2002Apr3 20051206 01:25:49UTC                          PGM / RUN BY / DATE
                                                            COMMENT
L2: 1 -> 1; 150 -> 5; 250 -> 9                              COMMENT
L2: 1 -> 1; 150 -> 5; 250 -> 9                              COMMENT
L2: 1 -> 1; 150 -> 5; 250 -> 9                              COMMENT
L2: 1 -> 1; 150 -> 5; 250 -> 9                              COMMENT
L2: 1 -> 1; 150 -> 5; 250 -> 9                              COMMENT
Original Marker Name: AWHD                                  COMMENT
Campaign Name: CSUSB 2005                                   COMMENT
4-Character Station Name: AWHD                              COMMENT
6-Character Antenna Code: DMRCHT                            COMMENT
Vertical Measurement Point: BCR                             COMMENT
Vertical Offset to Rinex Ref. Point: 0.0348                 COMMENT
Radial Measurement Point: ECF                               COMMENT
Radial Offset to Rinex Ref. Point: 0.1897                   COMMENT
Antenna Height from Field Measurement: 1.1250 m             COMMENT
Additional Antenna Identification Info.:                    COMMENT
Turborogue and Ashtech Choke Ring                           COMMENT
Original XYZ: -2420518.9100 -4695061.6900 3563598.3500      COMMENT
New XYZ position is based on association with SCEC monument COMMENT
E1D0S6L5+0011. Position of that monument is believed to be  COMMENT
valid to within 1 m horizontally; vertical accuracy         COMMENT
should be no worse than 3-times this value.                 COMMENT
                                                            COMMENT
Revised Rinex header created by UCSD GPS archive for        COMMENT
GSAC on 01-Apr-2006 (2006:091) 00:16:27 GMT                 COMMENT
For assistance contact dagnew@ucsd.edu                      COMMENT
or anderson@python.ucsd.edu                                 COMMENT
                                                            COMMENT
NONE                                                        MARKER NAME
___ CSUSB                                                   OBSERVER / AGENCY
1602 ASHTECH Z-X ZB00                                       REC # / TYPE / VERS
1403 DORNE-MARGOL. TYPE T                                   ANT # / TYPE
 -2420516.0000 -4695053.0000  3563593.0000                  APPROX POSITION XYZ
        1.0741        0.0000        0.0000                  ANTENNA: DELTA H/E/N
     1     1     0                                          WAVELENGTH FACT L1/2
     7    C1    L1    L2    P1    P2    S1    S2            # / TYPES OF OBSERV
     0                                                      INTERVAL
  2005     6    27    15    16    0.000000                  TIME OF FIRST OBS
  2005     6    28     0     0    0.000000                  TIME OF LAST OBS
                                                            END OF HEADER
 05  6 27 15 16  0.0000000  0  9G22G21G18G16G15G 6G29G26G 3
  21401254.8194    9561782.59653   7462307.75252  21401255.4144   21401250.0204
        56.0004         49.0004
  20584800.2144    9677256.42554   7542143.02352  20584800.8694   20584797.0944
        57.0004         50.0004
  20521490.2154    9669970.84653   7536849.82152  20521490.6214   20521486.5854
        55.0004         50.0004
  23893832.1054    9756441.77253   7600265.21552  23893833.6774   23893830.0224
        46.0004         39.0004
  20980717.3974    9552447.35453   7447639.93952  20980717.9344   20980713.7854
        56.0004         48.0004
  22281909.9214    9873909.82353   7690187.07752  22281911.7624   22281910.7234
        50.0004         44.0004
  24201302.5084    9854135.12853   7667658.92052  24201303.6884   24201302.2364
        48.0004         41.0004
  22497624.0044    9818109.64753   7645606.76452  22497625.2144   22497624.8744
        50.0004         44.0004
  23730335.9124   -1535825.03053  -1191991.81952  23730335.5964   23730336.9894
        47.0004         38.0004
 05  6 27 15 16 30.0000000  0  9G22G21G18G16G15G 6G29G26G 3
  21392249.0054    9514460.67843   7425433.54142  21392249.6734   21392244.2794
        55.0004         48.0004
  20586161.9674    9684412.18644   7547718.91842  20586163.1414   20586158.5764
        57.0004         50.0004
  20522273.8784    9674093.40343   7540062.19542  20522275.2484   20522271.0384
        55.0004         50.0004
  23902120.8784    9800000.56643   7634207.08442  23902122.0724   23902118.6964
        46.0004         39.0004
  20971293.0314    9502917.96144   7409045.60642  20971293.4854   20971289.8284
        57.0004         49.0004
  22300125.3964    9969633.52543   7764776.91442  22300126.6174   22300125.2794
        50.0004         44.0004
  24218022.3264    9941997.94543   7736123.39342  24218024.8164   24218020.5604
        47.0004         40.0004
  22511640.6064    9891776.99043   7703009.87942  22511645.1374   22511642.7754
        50.0004         44.0004
  23713658.1304   -1623467.30743  -1260284.52342  23713657.9254   23713653.5304
        49.0004         39.0004
 05  6 27 15 17  0.0000000  0  9G22G21G18G16G15G 6G29G26G 3
  21383309.4864    9467479.28243   7388824.65642  21383310.2054   21383304.8864
        56.0004         49.0004
  20587573.6764    9691832.56744   7553501.02242  20587574.9544   20587570.2994
        57.0004         50.0004
  20523124.7154    9678562.32043   7543544.45742  20523125.8064   20523121.5954
        55.0004         51.0004
  23910475.8484    9843917.26343   7668427.85842  23910478.3494   23910475.6064
        45.0004         39.0004
  20961897.9714    9453553.89143   7370580.09442  20961898.9794   20961896.7764
        56.0004         49.0004
  22318391.5224   10065624.76243   7839575.22342  22318392.8014   22318391.6734
        49.0004         43.0004
  24234798.4764   10030166.27343   7804825.91542  24234799.6274   24234799.3014
        45.0004         40.0004
  22525760.4344    9965971.24243   7760823.54042  22525761.6974   22525759.7304
        50.0004         43.0004
  23697033.8334   -1710822.68443  -1328353.65542  23697037.2154   23697035.1344
        49.0004         39.0004
 05  6 27 15 17 30.0000000  0  9G22G21G18G16G15G 6G29G26G 3
  21374434.3114    9420839.97343   7352482.35242  21374434.2264   21374429.7784
        56.0004         49.0004
  20589036.4174    9699519.63444   7559490.93542  20589037.6044   20589033.3074
        57.0004         50.0004
  20524041.0874    9683378.16243   7547297.05342  20524041.9504   20524038.2044
        55.0004         51.0004
  23918901.2064    9888191.99243   7702927.60942  23918903.0154   23918900.8054
        45.0004         39.0004
  20952535.7234    9404358.00943   7332245.63742  20952536.7684   20952534.4324
        56.0004         49.0004
  22336710.2174   10161883.30743   7914581.81142  22336711.2834   22336710.0064
        50.0004         44.0004
  24251636.4674   10118639.60843   7873766.14042  24251635.5824   24251634.6744
        45.0004         39.0004
  22539979.2964   10040691.46443   7819047.04542  22539981.6484   22539979.9864
        50.0004         43.0004
  23680466.9524   -1797886.93443  -1396195.95542  23680467.8114   23680466.4764
        50.0004         40.0004
 05  6 27 15 18  0.0000000  0  9G22G21G18G16G15G 6G29G26G 3
  21365623.0954    9374538.19143   7316403.03742  21365623.3574   21365618.5314
        56.0004         49.0004
  20590549.4294    9707470.61444   7565686.47642  20590550.7834   20590547.0394
        57.0004         50.0004
  20525022.5494    9688535.56843   7551315.80442  20525023.6184   20525019.5514
        55.0004         51.0004
  23927393.2294    9932817.67443   7737700.80842  23927394.6624   23927393.0304
        45.0004         40.0004
  20943207.2924    9355327.28344   7294039.85942  20943207.7854   20943203.5014
        57.0004         49.0004
  22355076.6904   10258402.36143   7989791.39442  22355077.7434   22355076.3704
        50.0004         44.0004
  24268530.8824   10207411.01443   7942938.59442  24268529.4294   24268528.1144
        45.0004         39.0004
  22554297.1684   10115930.60143   7877674.92842  22554298.3694   22554296.4314
        49.0004         43.0004
  23663954.2794   -1884661.79443  -1463812.72442  23663955.7894   23663953.5744
        49.0004         40.0004
 05  6 27 15 18 30.0000000  0  9G22G21G18G16G15G 6G29G26G 3
  21356876.1214    9328578.55843   7280590.35542  21356876.9374   21356872.9014
        55.0004         49.0004
  20592113.9364    9715690.80344   7572091.79642  20592114.9144   20592110.4264
        57.0004         50.0004
  20526070.2584    9694037.96643   7555603.37742  20526070.8154   20526066.3074
        56.0004         51.0004
  23935952.0764    9977796.26043   7772748.98342  23935952.5014   23935950.8004
        45.0004         39.0004
  20933908.2194    9306467.23543   7255967.09442  20933909.3344   20933906.6234
        56.0004         49.0004
  22373493.3084   10355184.03343   8065205.62042  22373494.8654   22373492.9514
        50.0004         44.0004
  24285477.8594   10296482.43743   8012344.81142  24285476.0574   24285475.8834
        43.0004         38.0004
  22568713.8544   10191690.46043   7936708.55242  22568715.9824   22568714.7044
        50.0004         44.0004
  23647497.1994   -1971140.22243  -1531198.48242  23647498.8384   23647496.4384
        47.0004         40.0004
 05  6 27 15 19  0.0000000  0  9G22G21G18G16G15G 6G29G26G 3
  21348195.2994    9282951.65343   7245036.93242  21348195.3964   21348189.3884
        56.0004         49.0004
  20593727.7084    9724171.12844   7578699.82642  20593728.9774   20593724.2404
        57.0004         50.0004
  20527180.2054    9699874.79243   7560151.54742  20527181.4604   20527177.2014
        56.0004         51.0004
  23944577.6894   10023115.72243   7808062.82942  23944578.1034   23944574.3324
        45.0004         39.0004
  20924641.1334    9257769.50843   7218020.80442  20924642.1494   20924639.9764
        56.0004         49.0004
  22391958.9774   10452217.12943   8140815.75642  22391960.3684   22391957.6134
        50.0004         44.0004
  24302481.0084   10385841.77343   8081975.37442  24302481.8954   24302482.1424
        42.0004         38.0004
  22583228.3054   10267958.93443   7996138.48042  22583230.6214   22583228.0344
        51.0004         44.0004
  23631096.2394   -2057329.15243  -1598358.65942  23631096.0254   23631095.4024
        48.0004         39.0004
 05  6 27 15 19 30.0000000  0  9G22G21G18G16G15G 6G29G26G 3
  21339577.8114    9237667.76543   7209750.79742  21339578.2654   21339572.5744
        56.0004         49.0004
  20595393.5584    9732923.26344   7585519.65342  20595394.3074   20595390.0524
        57.0004         50.0004
  20528356.3434    9706055.51043   7564967.68442  20528357.6004   20528353.1154
        55.0004         51.0004
  23953269.2374   10068783.89443   7843648.38242  23953268.8664   23953266.9304
        47.0004         39.0004
  20915407.3524    9209245.76943   7180210.08742  20915408.3894   20915406.0924
        56.0004         49.0004
  22410472.8294   10549509.52243   8216627.93842  22410475.0574   22410472.8634
        50.0004         44.0004
  24319544.0534   10475496.82043   8151836.36042  24319545.5744   24319544.0744
        43.0004         39.0004
  22597839.6424   10344743.49543   8055970.59342  22597841.1184   22597839.1874
        50.0004         44.0004
  23614753.3084   -2143215.84643  -1665283.34142  23614755.4144   23614750.4634
        47.0004         38.0004
 05  6 27 15 20  0.0000000  0  9G22G21G18G16G15G 6G29G26G 3
  21331024.8564    9192723.08043   7174728.96942  21331025.5454   21331020.3644
        56.0004         49.0004
  20597109.6804    9741944.77443   7592549.38042  20597110.5954   20597106.3024
        56.0004         50.0004
  20529597.2014    9712575.58543   7570048.25542  20529598.6014   20529594.3104
        56.0004         51.0004
  23962023.8214   10114795.36643   7879501.46942  23962025.5444   23962022.3224
        46.0004         40.0004
  20906207.2254    9160893.63144   7142533.08242  20906207.7524   20906204.2854
        57.0004         49.0004
  22429034.7184   10647055.41343   8292637.65042  22429036.7674   22429035.5014
        49.0004         44.0004
  24336658.9734   10565441.89443   8221923.39442  24336662.4014   24336659.7224
        42.0004         39.0004
  22612546.2414   10422038.31243   8116200.26942  22612550.2844   22612547.0594
        50.0004         43.0004
  23598467.0404   -2228800.87443  -1731972.96042  23598467.8364   23598464.8434
        49.0004         39.0004
 05  6 27 15 20 30.0000000  0  8G22G21G18G16G15G 6G26G 3
  21322537.4804    9148121.85343   7139974.77242  21322538.1194   21322533.0054
        56.0004         49.0004
  20598879.2594    9751240.79144   7599793.01542  20598879.9794   20598875.1894
        57.0004         50.0004
  20530902.7924    9719437.78143   7575395.40842  20530904.1444   20530900.0584
        56.0004         51.0004
  23970845.0024   10161151.58543   7915623.17342  23970846.2454   23970843.9924
        47.0004         40.0004
  20897038.9174    9112718.62143   7104994.10442  20897039.9214   20897037.2524
        56.0004         49.0004
  22447645.8284   10744856.71443   8368846.38142  22447647.3924   22447646.7844
        49.0004         44.0004
  22627352.8954   10499844.80343   8176828.63042  22627355.8324   22627353.2984
        49.0004         44.0004
  23582239.3624   -2314077.50343  -1798422.29142  23582241.7704   23582239.3664
        50.0004         40.0004
 05  6 27 15 21  0.0000000  0  8G22G21G18G16G15G 6G26G 3
  21314114.2074    9103855.37043   7105481.42242  21314114.5744   21314109.0264
        56.0004         49.0004
  20600698.7204    9760803.75244   7607244.65642  20600700.0264   20600695.3854
        57.0004         50.0004
  20532272.2354    9726632.68443   7581001.81842  20532273.0824   20532268.8604
        55.0004         50.0004
  23979729.5514   10207841.48443   7952004.91842  23979731.2204   23979727.8434
        47.0004         40.0004
  20887904.1184    9064713.32644   7067587.37542  20887905.1654   20887902.4474
        57.0004         50.0004
  22466304.5984   10842902.91243   8445245.92342  22466304.7614   22466303.8184
        50.0004         44.0004
  22642255.8924   10578151.65343   8237846.91942  22642257.2794   22642253.5094
        49.0004         43.0004
  23566068.2384   -2399051.93243  -1864636.12342  23566069.7474   23566068.4014
        50.0004         41.0004
 05  6 27 15 21 30.0000000  0  8G22G21G18G16G15G 6G26G 3
  21305755.7184    9059930.90843   7071254.58142  21305755.8734   21305750.3244
        56.0004         49.0004
  20602571.0584    9770642.33244   7614911.06942  20602571.8794   20602567.8714
        57.0004         50.0004
  20533706.1014    9734166.73543   7586872.50042  20533707.6174   20533702.9084
        56.0004         50.0004
  23988678.5784   10254870.29943   7988650.71942  23988679.1204   23988677.7964
        47.0004         39.0004
  20878803.2384    9016886.37344   7030319.61542  20878804.0814   20878801.4184
        57.0004         50.0004
  22485009.7454   10941199.02743   8521840.21542  22485011.3754   22485009.3104
        50.0004         44.0004
  22657252.4364   10656963.60043   8299258.76242  22657254.1834   22657252.0004
        49.0004         43.0004
  23549957.4354   -2483714.39543  -1930606.82242  23549958.8974   23549956.6554
        46.0004         40.0004
 05  6 27 15 22  0.0000000  0  8G22G21G18G16G15G 6G26G 3
  21297460.7114    9016341.79843   7037289.04842  21297460.9744   21297455.8404
        56.0004         49.0004
  20604494.1574    9780750.65743   7622787.65642  20604495.1554   20604491.3324
        56.0004         50.0004
  20535202.1654    9742031.89043   7593001.18342  20535203.8324   20535199.8024
        55.0004         50.0004
  23997691.6714   10302229.00543   8025553.56042  23997692.8694   23997690.4334
        46.0004         39.0004
  20869735.0224    8969232.53044   6993186.73342  20869735.7324   20869733.1594
        57.0004         50.0004
  22503761.0594   11039736.17643   8598622.31642  22503762.0374   22503760.3114
        51.0004         44.0004
  22672345.1984   10736271.13543   8361056.81042  22672346.9924   22672343.5284
        50.0004         44.0004
  23533904.0654   -2568068.74843  -1996337.43042  23533905.3784   23533905.1214
        46.0004         40.0004
 05  6 27 15 22 30.0000000  0  8G22G21G18G16G15G 6G26G 3
  21289231.2014    8973093.03243   7003588.71742  21289231.5144   21289226.0974
        56.0004         49.0004
  20606471.0514    9791134.76744   7630879.15242  20606471.4974   20606467.2724
        57.0004         50.0004
  20536763.0684    9750232.30243   7599391.09942  20536763.8964   20536760.0924
        55.0004         50.0004
  24006766.1994   10349919.73943   8062715.10342  24006766.1804   24006763.7104
        46.0004         39.0004
  20860700.1784    8921758.02744   6956193.62542  20860701.4994   20860698.9374
        57.0004         50.0004
  22522558.2554   11138517.14643   8675594.41242  22522560.2394   22522558.3604
        50.0004         43.0004
  22687531.2404   10816076.71143   8423242.92842  22687533.9904   22687529.9874
        50.0004         44.0004
  23517913.1354   -2652107.35343  -2061822.06942  23517913.9994   23517911.2754
        48.0004         41.0004
 05  6 27 15 23  0.0000000  0  8G22G21G18G16G15G 6G26G 3
  21281064.7294    8930180.97544   6970150.77042  21281065.3114   21281059.7404
        57.0004         49.0004
  20608498.5874    9801791.94944   7639183.44242  20608499.5514   20608494.7464
        57.0004         50.0004
  20538386.9414    9758763.27943   7606038.60742  20538387.7664   20538383.1784
        55.0004         50.0004
  24015904.0244   10397936.79243   8100130.98242  24015905.1914   24015901.4174
        45.0004         38.0004
  20851699.9684    8874460.82344   6919338.64942  20851701.3574   20851698.4434
        57.0004         50.0004
  22541400.5674   11237536.41643   8752752.20742  22541401.9114   22541399.6694
        50.0004         43.0004
  22702812.2594   10896374.06943   8485812.24342  22702814.5274   22702809.5584
        51.0004         43.0004
  23501981.6274   -2735831.01043  -2127061.32942  23501982.7554   23501981.4984
        48.0004         41.0004
 05  6 27 15 23 30.0000000  0  8G22G21G18G16G15G 6G26G 3
  21272964.1064    8887608.53644   6936977.45642  21272964.5204   21272958.5704
        57.0004         49.0004
  20610579.0974    9812725.99544   7647703.45242  20610580.1684   20610576.3154
        57.0004         50.0004
  20540073.0024    9767627.01343   7612945.39542  20540074.4464   20540070.1164
        55.0004         50.0004
  24025103.8084   10446280.93743   8137801.68342  24025105.5624   24025101.9314
        46.0004         38.0004
  20842734.5734    8827344.95944   6882624.98242  20842735.0904   20842732.8544
        57.0004         50.0004
  22560288.8004   11336794.72243   8830096.26442  22560290.2514   22560290.1364
        50.0004         43.0004
  22718185.5754   10977163.46843   8548764.98242  22718187.7474   22718183.2694
        50.0004         43.0004
  23486111.3884   -2819234.30343  -2192050.91542  23486111.4254   23486110.0474
        48.0004         42.0004
 05  6 27 15 24  0.0000000  0  8G22G21G18G16G15G 6G26G 3
  21264925.4764    8845370.68743   6904064.86142  21264926.1054   21264921.1664
        56.0004         49.0004
  20612712.3534    9823933.57844   7656436.62442  20612713.0484   20612708.6364
        57.0004         50.0004
  20541822.3824    9776817.31443   7620106.65442  20541823.4884   20541818.5344
        55.0004         50.0004
  24034364.1054   10494944.66743   8175721.39142  24034367.3684   24034361.9354
        47.0004         38.0004
  20833801.2834    8780407.25943   6846050.16242  20833802.6814   20833800.9954
        56.0004         50.0004
  22579221.5554   11436284.98543   8907621.04242  22579223.1974   22579221.5904
        49.0004         43.0004
  22733651.4744   11058437.37643   8612095.24242  22733653.2104   22733649.8684
        50.0004         43.0004
  23470300.5344   -2902319.43443  -2256792.56542  23470300.7374   23470299.6324
        48.0004         41.0004
 05  6 27 15 24 30.0000000  0  8G22G21G18G16G15G 6G26G 3
  21256953.6924    8803475.58843   6871419.33742  21256954.1974   21256949.1264
        56.0004         49.0004
  20614898.6224    9835423.63744   7665389.89742  20614899.8664   20614895.4834
        57.0004         50.0004
  20543634.8634    9786341.72243   7627528.25342  20543635.9054   20543631.0544
        55.0004         50.0004
  24043687.7854   10543933.72643   8213894.59142  24043688.9184   24043684.5234
        47.0004         38.0004
  20824905.8584    8733657.10443   6809621.45842  20824907.2744   20824904.5764
        56.0004         50.0004
  22598199.1824   11536013.13943   8985331.19642  22598201.7324   22598198.2294
        50.0004         43.0004
  22749209.5204   11140201.18843   8675807.26042  22749212.2304   22749208.9974
        50.0004         43.0004
  23454551.4164   -2985075.61343  -2321277.89542  23454553.1034   23454552.1414
        46.0004         40.0004
 05  6 27 15 25  0.0000000  0  8G22G21G18G16G15G 6G26G 3
  21249044.5504    8761910.20744   6839030.74142  21249044.4734   21249038.8184
        57.0004         49.0004
  20617136.7284    9847183.90544   7674553.71742  20617137.3584   20617133.1184
        57.0004         50.0004
  20545507.9804    9796186.04643   7635199.13842  20545509.2404   20545504.8904
        55.0004         50.0004
  24053068.2264   10593232.73043   8252309.33642  24053071.6074   24053066.3124
        46.0004         38.0004
  20816043.6204    8687082.75443   6773329.75342  20816044.4394   20816042.1014
        56.0004         50.0004
  22617218.2604   11635963.88443   9063214.79142  22617220.7424   22617219.6974
        48.0004         42.0004
  22764857.8934   11222439.11143   8739888.69742  22764859.7574   22764859.7374
        48.0004         43.0004
  23438863.8284   -3067513.46143  -2385515.15242  23438865.3884   23438865.3284
        46.0004         41.0004
 05  6 27 15 25 30.0000000  0  8G22G21G18G16G15G 6G26G 3
  21241199.9224    8720690.66044   6806911.62542  21241200.4794   21241195.0634
        57.0004         49.0004
  20619429.0944    9859232.21544   7683941.98942  20619430.1404   20619425.6414
        57.0004         50.0004
  20547445.2054    9806365.05343   7643130.81742  20547445.9194   20547441.4784
        55.0004         50.0004
  24062510.7094   10642855.53943   8290976.41542  24062513.7954   24062507.2054
        45.0004         38.0004
  20807217.0524    8640701.86643   6737188.80942  20807217.9674   20807215.5754
        56.0004         50.0004
  22636283.9734   11736151.45743   9141282.95442  22636285.3114   22636284.6804
        48.0004         43.0004
  22780603.0334   11305164.89543   8804350.28042  22780604.4394   22780599.9794
        50.0004         43.0004
  23423242.1714   -3149613.72543  -2449489.34142  23423243.2384   23423240.7274
        49.0004         43.0004
 05  6 27 15 26  0.0000000  0  8G22G21G18G16G15G 6G26G 3
  21233419.5434    8679802.29943   6775050.57942  21233419.6224   21233414.4474
        56.0004         49.0004
  20621774.1204    9871554.81544   7693543.99542  20621775.2284   20621771.0474
        57.0004         50.0004
  20549442.3384    9816863.15443   7651311.13942  20549443.7494   20549439.4494
        55.0004         50.0004
  24072011.4224   10692784.92343   8329882.39842  24072013.9554   24072013.0094
        44.0004         37.0004
  20798426.0504    8594501.09443   6701188.20942  20798427.2034   20798424.1894
        56.0004         50.0004
  22655391.3704   11836559.03443   9219522.54742  22655391.6824   22655390.2694
        48.0004         42.0004
  22796434.0374   11388360.92543   8869178.32042  22796433.5494   22796433.2704
        49.0004         42.0004
  23407680.7024   -3231388.65743  -2513210.04342  23407682.1734   23407678.9864
        50.0004         42.0004
 05  6 27 15 26 30.0000000  0  8G22G21G18G16G15G 6G26G 3
  21225702.5074    8639251.96443   6743452.92242  21225703.4214   21225697.6794
        56.0004         49.0004
  20624173.1764    9884159.71044   7703365.97342  20624174.1484   20624169.8144
        57.0004         50.0004
  20551502.6514    9827686.63543   7659745.00942  20551503.4314   20551499.0664
        56.0004         50.0004
  24081571.1754   10743025.36743   8369030.72542  24081570.9364   24081570.9654
        43.0004         36.0004
  20789670.4564    8548489.05443   6665334.66842  20789671.1684   20789668.3204
        56.0004         49.0004
  22674540.9654   11937191.38143   9297937.28042  22674542.6524   22674540.2824
        49.0004         42.0004
  22812357.5094   11472031.65843   8934376.24242  22812358.1814   22812355.0804
        49.0004         42.0004
  23392182.7294   -3312828.31443  -2576669.53742  23392184.5474   23392180.4114
        49.0004         42.0004
 05  6 27 15 27  0.0000000  0  8G22G21G18G16G15G 6G26G 3
  21218049.7544    8599033.67643   6712113.99642  21218049.8254   21218044.4624
        56.0004         49.0004
  20626623.9954    9897043.01844   7713404.89242  20626625.1674   20626620.9634
        57.0004         50.0004
  20553622.7584    9838828.81143   7668427.21942  20553623.7104   20553619.4474
        56.0004         50.0004
  24091189.1014   10793569.04443   8408415.33042  24091192.0774   24091188.5854
        42.0004         36.0004
  20780949.9814    8502661.30943   6629624.73242  20780950.3624   20780947.2944
        56.0004         49.0004
  22693731.6904   12038040.45643   9376520.88442  22693733.4364   22693729.7864
        49.0004         42.0004
  22828365.7304   11556168.42043   8999937.32642  22828366.9874   22828365.2394
        49.0004         42.0004
  23376748.2804   -3393936.05543  -2639870.37742  23376749.5964   23376745.9394
        49.0004         42.0004
 05  6 27 15 27 30.0000000  0  8G22G21G18G16G15G 6G26G 3
  21210460.9584    8559153.04844   6681038.19042  21210461.0274   21210455.7204
        57.0004         49.0004
  20629130.1104    9910210.84943   7723665.52242  20629130.9184   20629126.7234
        56.0004         50.0004
  20555803.6494    9850294.12443   7677361.21542  20555805.1784   20555801.3844
        55.0004         50.0004
  24100865.3564   10844418.78043   8448038.40142  24100866.9254   24100864.4794
        41.0004         36.0004
  20772266.6474    8457024.91943   6594063.90642  20772266.7224   20772263.2194
        56.0004         49.0004
  22712964.9764   12139109.80043   9455276.13342  22712966.8704   22712964.5924
        49.0004         42.0004
  22844464.2304   11640774.10543   9065863.76342  22844467.2704   22844464.5634
        49.0004         42.0004
  23361377.6464   -3474703.77743  -2702806.23742  23361378.5054   23361376.9754
        48.0004         42.0004
 05  6 27 15 28  0.0000000  0  8G22G21G18G16G15G 6G26G 3
  21202935.1454    8519609.00344   6650224.66142  21202936.0014   21202929.9794
        57.0004         49.0004
  20631690.3264    9923660.49243   7734145.75642  20631690.4324   20631686.3464
        56.0004         50.0004
  20558047.5984    9862080.62743   7686545.48442  20558048.0764   20558044.4674
        55.0004         50.0004
  24110602.3864   10895571.16243   8487897.31342  24110603.9744   24110599.4044
        42.0004         36.0004
  20763617.4854    8411580.14843   6558652.39542  20763618.1114   20763615.8754
        56.0004         49.0004
  22732239.3774   12240395.95343   9534200.31442  22732241.0814   22732238.5154
        50.0004         43.0004
  22860652.6204   11725845.00043   9132152.72042  22860653.8284   22860655.7214
        48.0004         42.0004
  23346074.6844   -3555129.91943  -2765475.93742  23346075.8364   23346073.5084
        50.0004         43.0004
 05  6 27 15 28 30.0000000  0  8G22G21G18G16G15G 6G26G 3
  21195473.5674    8480396.46043   6619669.43642  21195473.4664   21195468.5814
        56.0004         49.0004
  20634302.5884    9937392.13143   7744845.71342  20634303.3474   20634299.2794
        56.0004         50.0004
  20560350.4554    9874182.28743   7695975.33242  20560351.6364   20560347.4494
        55.0004         51.0004
  24120391.5274   10947018.94143   8527986.43442  24120392.4524   24120389.9384
        42.0004         36.0004
  20755006.5804    8366323.77443   6523387.67142  20755006.5894   20755003.5614
        56.0004         49.0004
  22751553.8934   12341892.38343   9613288.33642  22751554.4974   22751553.2404
        49.0004         43.0004
  22876928.8314   11811373.54643   9198798.30542  22876931.5844   22876930.0384
        48.0004         42.0004
  23330834.4444   -3635216.46943  -2827881.04042  23330834.7274   23330833.6834
        49.0004         42.0004
 05  6 27 15 29  0.0000000  0  8G22G21G18G16G15G 6G26G 3
  21188074.1554    8441518.58443   6589374.99742  21188074.2804   21188070.6774
        55.0004         49.0004
  20636969.5974    9951408.81143   7755767.78042  20636970.9354   20636966.3454
        56.0004         50.0004
  20562713.6554    9886601.27143   7705652.45742  20562714.4294   20562710.0954
        55.0004         50.0004
  24130238.2044   10998762.93043   8568306.37542  24130239.6974   24130238.4924
        41.0004         36.0004
  20746430.3074    8321260.40943   6488273.36142  20746430.8574   20746427.9864
        56.0004         49.0004
  22770907.0984   12443599.89143   9692540.84142  22770909.4744   22770907.9804
        49.0004         43.0004
  22893293.1464   11897360.23443   9265800.84542  22893294.0054   22893292.0994
        48.0004         42.0004
  23315660.2874   -3714957.84443  -2890017.17442  23315662.1134   23315657.6384
        47.0004         41.0004
 05  6 27 15 29 30.0000000  0  8G22G21G18G16G15G 6G26G 3
  21180741.4604    8402973.70644   6559340.02842  21180741.0954   21180735.2974
        57.0004         49.0004
  20639691.0494    9965709.87444   7766911.44842  20639692.4844   20639688.0894
        57.0004         50.0004
  20565137.0774    9899335.18443   7715574.96842  20565137.8404   20565133.5804
        56.0004         50.0004
  24140141.4554   11050799.18843   8608854.02742  24140143.8024   24140139.2594
        42.0004         36.0004
  20737891.8924    8276390.02043   6453309.41242  20737892.1024   20737889.4794
        56.0004         49.0004
  22790301.6434   12545514.89543   9771955.03342  22790302.3474   22790301.0184
        48.0004         42.0004
  22909740.9624   11983800.59043   9333156.92342  22909741.3574   22909741.7184
        48.0004         42.0004
  23300552.6824   -3794352.73443  -2951883.28442  23300552.6024   23300550.6194
        47.0004         40.0004
 05  6 27 15 30  0.0000000  0  8G22G21G18G16G15G 6G26G 3
  21173468.9834    8364763.79043   6529566.08442  21173469.4484   21173464.9804
        56.0004         49.0004
  20642467.3014    9980298.44143   7778279.14142  20642468.3974   20642464.2114
        56.0004         50.0004
  20567619.8664    9912384.76943   7725743.46242  20567621.0324   20567616.4464
        55.0004         50.0004
  24150100.2564   11103127.13643   8649628.99342  24150100.9694   24150096.2134
        43.0004         35.0004
  20729390.4384    8231715.88343   6418498.39842  20729390.9084   20729388.4074
        56.0004         49.0004
  22809733.7514   12647637.07643   9851530.64742  22809734.3624   22809734.4204
        48.0004         42.0004
  22926277.0684   12070693.92943   9400865.96242  22926279.0234   22926278.5234
        49.0004         43.0004
  23285510.4794   -3873396.40343  -3013475.72542  23285512.3894   23285508.8234
        50.0004         42.0004
 05  6 27 15 30 30.0000000  0  9G22G21G18G16G15G 6G14G26G 3
  21166262.0764    8326887.40244   6500052.01342  21166262.5904   21166256.8644
        57.0004         49.0004
  20645298.3204    9995174.43643   7789870.80942  20645299.3834   20645295.0644
        56.0004         50.0004
  20570162.5144    9925747.75243   7736156.15642  20570163.9354   20570159.7884
        55.0004         50.0004
  24160108.2574   11155742.94243   8690628.20542  24160112.3594   24160111.4694
        40.0004         35.0004
  20720926.2234    8187238.44143   6383840.64542  20720926.9084   20720924.8874
        55.0004         49.0004
  22829206.6914   12749962.94343   9931264.98142  22829207.6364   22829205.9864
        48.0004         42.0004
  24184504.5014   -4299928.73053  -3287630.23052  24184506.4104   24184502.8274
        45.0004         39.0004
  22942897.3814   12158036.02443   9468924.69242  22942900.0614   22942896.8004
        49.0004         43.0004
  23270536.2414   -3952087.39643  -3074793.42242  23270537.0674   23270534.5354
        49.0004         42.0004
 05  6 27 15 31  0.0000000  0  9G22G21G18G16G15G 6G14G26G 3
  21159117.8394    8289342.82644   6470796.50142  21159117.9494   21159112.2104
        57.0004         49.0004
  20648183.6124   10010337.45844   7801686.14142  20648184.7724   20648180.6314
        57.0004         50.0004
  20572764.5654    9939421.62743   7746811.11042  20572765.9704   20572761.6594
        55.0004         50.0004
  24170177.9444   11208642.80443   8731848.76142  24170178.8974   24170176.4734
        40.0004         35.0004
  20712499.3824    8142957.88443   6349336.31042  20712500.7504   20712498.9954
        55.0004         49.0004
  22848717.0554   12852489.00743  10011155.31142  22848719.3874   22848716.2374
        48.0004         42.0004
  24163031.5684   -4412768.77843  -3375557.46142  24163033.0364   24163030.7684
        45.0004         39.0004
  22959602.6534   12245822.86143   9537329.99142  22959604.8324   22959605.5104
        50.0004         42.0004
  23255628.4494   -4030425.04143  -3135835.70942  23255628.8344   23255627.3184
        47.0004         41.0004
 05  6 27 15 31 30.0000000  0  9G22G21G18G16G15G 6G14G26G 3
  21152036.6954    8252132.89344   6441801.75442  21152036.7474   21152031.9534
        57.0004         49.0004
  20651124.5504   10025791.53944   7813728.26842  20651125.6634   20651121.0134
        57.0004         50.0004
  20575426.3844    9953408.79143   7757710.17442  20575427.6324   20575423.2134
        55.0004         50.0004
  24180295.3054     233886.88853    180090.82852  24180297.5014   24180297.7084
        37.0004         34.0004
  20704112.2334    8098878.37843   6314988.63942  20704112.8874   20704110.6584
        55.0004         49.0004
  22868265.7784   12955215.87243  10091202.08642  22868267.2204   22868265.7804
        49.0004         42.0004
  24141571.1334   -4525543.88043  -3463434.09442  24141573.1744   24141570.9044
        45.0004         39.0004
  22976392.5964   12334054.50143   9606081.87542  22976394.9424   22976392.5684
        49.0004         42.0004
  23240790.1184   -4108403.79243  -3196598.30842  23240791.8404   23240788.4094
        47.0004         41.0004
 05  6 27 15 32  0.0000000  0  9G22G21G18G16G15G 6G14G26G 3
  21145018.1614    8215255.45943   6413066.10242  21145018.6514   21145013.5844
        56.0004         49.0004
  20654119.8354   10041535.38944   7825996.18742  20654121.3644   20654116.7554
        57.0004         50.0004
  20578147.2714    9967706.00343   7768850.85042  20578147.9824   20578144.3974
        55.0004         50.0004
  24190468.1034     287350.94253    221751.08352  24190470.3354   24190469.5754
        36.0004         34.0004
  20695762.9424    8054999.40943   6280797.23042  20695762.6874   20695760.5504
        55.0004         49.0004
  22887850.7004   13058139.26943  10171402.02742  22887853.0084   22887852.6154
        48.0004         42.0004
  24120123.9704   -4638252.94743  -3551259.27342  24120125.9284   24120123.8884
        46.0004         39.0004
  22993266.2624   12422726.05543   9675176.57242  22993267.6074   22993267.6744
        49.0004         41.0004
  23226018.3434   -4186022.80743  -3257080.62842  23226020.0394   23226018.5794
        48.0004         42.0004
 05  6 27 15 32 30.0000000  0  9G22G21G18G16G15G 6G14G26G 3
  21138063.8264    8178705.75743   6384585.82142  21138064.2954   21138058.7024
        56.0004         49.0004
  20657171.4544   10057565.82444   7838487.41742  20657172.2234   20657168.0134
        57.0004         50.0004
  20580925.7094    9982307.43643   7780228.57542  20580926.9754   20580922.3414
        56.0004         50.0004
  24200699.3704     341087.86453    263623.94052  24200700.1654   24200697.9204
        41.0004         34.0004
  20687450.1124    8011318.25543   6246759.97042  20687450.8124   20687448.2714
        55.0004         49.0004
  22907471.7314   13161252.59043  10251749.94342  22907473.7764   22907472.9914
        47.0004         42.0004
  24098688.1074   -4750897.71243  -3639034.34242  24098689.8874   24098686.7074
        45.0004         38.0004
  23010222.9024   12511830.29043   9744608.40842  23010225.4184   23010221.4114
        49.0004         41.0004
  23211316.9954   -4263284.10243  -3317284.29242  23211319.6014   23211315.5584
        48.0004         40.0004
 05  6 27 15 33  0.0000000  0  9G22G21G18G16G15G 6G14G26G 3
  21131171.6424    8142491.61143   6356367.02342  21131172.0404   21131167.8774
        56.0004         49.0004
  20660277.2184   10073891.95344   7851209.06742  20660278.7654   20660275.0074
        57.0004         50.0004
  20583763.9734    9997220.69043   7791849.27042  20583765.0174   20583760.6604
        56.0004         50.0004
  24210976.8974     395103.18643    305713.71742  24210977.3304   24210972.2124
        42.0004         33.0004
  20679177.9474    7967844.41743   6212884.24042  20679178.2604   20679174.4664
        55.0004         49.0004
  22927132.0484   13264561.74943  10332250.46642  22927133.4684   22927133.4634
        48.0004         42.0004
  24077264.3964   -4863467.11843  -3726750.68242  24077267.4314   24077263.6964
        44.0004         38.0004
  23027261.8124   12601372.31843   9814381.34642  23027263.2414   23027259.8064
        48.0004         41.0004
  23196683.4684   -4340177.01843  -3377200.83942  23196685.5754   23196682.9074
        45.0004         41.0004
 05  6 27 15 33 30.0000000  0  9G22G21G18G16G15G 6G14G26G 3
  21124343.0304    8106604.71443   6328403.20642  21124343.3294   21124338.2204
        56.0004         49.0004
  20663439.1784   10090506.29443   7864155.27742  20663440.3804   20663436.5134
        56.0004         50.0004
  20586658.9884   10012435.54543   7803704.98942  20586660.4044   20586655.5124
        55.0004         50.0004
  24221306.895                      348012.17042                  24221311.5304
        37.000          33.0004
  20670942.5884    7924570.80243   6179164.55242  20670943.1764   20670940.3364
        55.0004         49.0004
  22946827.3744   13368056.33443  10412895.47442  22946828.7104   22946827.0124
        48.0004         43.0004
  24055857.4854   -4975966.29243  -3814412.29842  24055860.7514   24055856.3354
        45.0004         38.0004
  23044383.7364   12691341.17643   9884486.90642  23044385.3564   23044382.5604
        49.0004         42.0004
  23182119.8974   -4416707.13143  -3436834.65742  23182121.6964   23182120.4204
        45.0004         41.0004
 05  6 27 15 34  0.0000000  0  9G22G21G18G16G15G 6G14G26G 3
  21117578.2024    8071049.57044   6300697.89942  21117578.2334   21117572.5744
        57.0004         49.0004
  20666657.9314   10107414.50944   7877330.49742  20666658.3864   20666654.1714
        57.0004         50.0004
  20589612.2024   10027955.91243   7815798.75942  20589613.7084   20589609.4304
        55.0004         50.0004
  24231687.883
        36.000
  20662748.1774    7881503.84143   6145605.87042  20662749.0624   20662745.5964
        56.0004         49.0004
  22966557.0334   13471738.56943  10493686.69442  22966558.5634   22966557.6924
        48.0004         42.0004
  24034465.4094   -5088388.06543  -3902013.63642  24034468.5364   24034466.1434
        45.0004         38.0004
  23061583.7574   12781738.48143   9954926.30842  23061586.6154   23061583.3834
        47.0004         41.0004
  23167629.1264   -4492867.42943  -3496180.31042  23167629.2854   23167627.6864
        43.0004         39.0004
 05  6 27 15 34 30.0000000  0  8G22G21G18G15G 6G14G26G 3
  21110874.4584    8035825.09244   6273250.27442  21110874.7114   21110870.3254
        57.0004         49.0004
  20669930.2834   10124617.09044   7890735.09842  20669931.6724   20669927.4144
        57.0004         50.0004
  20592624.1444   10043779.96043   7828129.18142  20592625.2214   20592620.1954
        55.0004         50.0004
  20654591.1154    7838644.21743   6112208.76642  20654592.0354   20654589.2154
        56.0004         49.0004
  22986320.3704   13575605.45643  10574621.82742  22986321.4854   22986322.5554
        47.0004         42.0004
  24013086.8064   -5200730.30643  -3989552.98142  24013088.3814   24013087.9684
        44.0004         38.0004
  23078868.3724   12872560.60643  10025696.76442  23078867.5794   23078866.5084
        47.0004         40.0004
  23153205.1314   -4568656.12943  -3555236.40942  23153206.5624   23153204.7774
        45.0004         41.0004
 05  6 27 15 35  0.0000000  0  8G22G21G18G15G 6G14G26G 3
  21104233.7344    8000927.37144   6246057.24042  21104234.0334   21104228.5694
        57.0004         49.0004
  20673259.6384   10142111.40543   7904367.01142  20673260.8194   20673256.6314
        56.0004         50.0004
  20595691.5154   10059903.30443   7840692.80642  20595693.0044   20595688.7354
        55.0004         50.0004
  20646475.2014    7795989.98143   6078971.67942  20646475.4734   20646472.9414
        56.0004         49.0004
  23006121.6654   13679651.41643  10655696.48442  23006122.2654   23006122.5414
        47.0004         42.0004
  23991723.7334   -5312993.63443  -4077030.86442  23991727.1764   23991725.5884
        44.0004         38.0004
  23096229.4574   12963801.20243  10096793.31842  23096232.0084   23096228.9184
        46.0004         40.0004
  23138854.2724   -4644073.99643  -3614003.61942  23138855.8224   23138853.9834
        46.0004         42.0004
 05  6 27 15 35 30.0000000  0  8G22G21G18G15G 6G14G26G 3
  21097656.5594    7966364.02243   6219124.77542  21097656.7864   21097652.1574
        56.0004         49.0004
  20676646.1514   10159907.01743   7918233.71342  20676646.7024   20676642.6944
        56.0004         49.0004
  20598818.4944   10076332.74143   7853494.94842  20598819.6744   20598815.5564
        56.0004         50.0004
  20638398.9424    7753550.41144   6045901.86842  20638399.3864   20638396.9884
        57.0004         49.0004
  23025955.6024   13783881.82743  10736914.86042  23025958.0314   23025957.0254
        48.0004         42.0004
  23970378.1984   -5425167.40043  -4164438.93242  23970379.5634   23970378.6494
        45.0004         38.0004
  23113675.0514   13055465.26143  10168219.80242  23113675.5334   23113673.1794
        48.0004         40.0004
  23124574.4104   -4719110.87743  -3672473.84342  23124575.5074   23124574.1164
        44.0004         40.0004
 05  6 27 15 36  0.0000000  0  8G22G21G18G15G 6G14G26G 3
  21091140.8024    7932125.36643   6192445.30742  21091140.8994   21091136.0604
        56.0004         49.0004
  20680087.7414   10177994.73043   7932328.02342  20680088.8484   20680084.5954
        56.0004         49.0004
  20602000.5144   10093057.59743   7866527.29042  20602001.8714   20601998.0824
        55.0004         50.0004
  20630362.2504    7711317.56444   6012993.14742  20630362.7974   20630359.5874
        57.0004         49.0004
  23045823.9544   13888285.14443  10818267.97042  23045824.3954   23045823.9444
        49.0004         42.0004
  23949048.1074   -5537258.17543  -4251782.31442  23949048.7824   23949047.5034
        44.0004         38.0004
  23131192.9484   13147540.25143  10239966.53942  23131193.8824   23131194.7814
        46.0004         40.0004
  23110367.4964   -4793773.76443  -3730652.68042  23110370.3474   23110366.1624
        49.0004         41.0004
 05  6 27 15 36 30.0000000  0  8G22G21G18G15G 6G14G26G 3
  21084687.3684    7898213.12943   6166020.18642  21084687.9614   21084683.2924
        56.0004         49.0004
  20683586.4984   10196377.89244   7946652.54642  20683587.3404   20683583.0984
        57.0004         50.0004
  20605239.8524   10110078.52143   7879790.32742  20605241.1734   20605237.0194
        55.0004         50.0004
  20622364.6004    7669294.97643   5980248.26142  20622365.5184   20622362.9134
        56.0004         49.0004
  23065723.7034   13992861.12443  10899755.62542  23065725.2674   23065725.0314
        48.0004         42.0004
  23927733.6234   -5649261.02243  -4339057.20442  23927736.7784   23927734.4764
        45.0004         38.0004
  23148793.0744   13240025.46543  10312032.88242  23148797.3834   23148793.9754
        46.0004         40.0004
  23096231.6384   -4868057.84843  -3788536.47442  23096233.6064   23096230.0234
        48.0004         42.0004
 05  6 27 15 37  0.0000000  0  8G22G21G18G15G 6G14G26G 3
  21078297.7694    7864630.89844   6139852.21542  21078297.9574   21078292.1824
        57.0004         49.0004
  20687141.1114   10215061.36943   7961211.07942  20687142.3224   20687138.6364
        56.0004         50.0004
  20608535.5664   10127398.48443   7893286.38042  20608536.6404   20608532.7354
        55.0004         50.0004
  20614410.3434    7627487.97144   5947671.36342  20614410.5654   20614408.2314
        57.0004         50.0004
  23085657.1304   14097611.30043  10981379.02242  23085658.5174   23085657.4864
        48.0004         42.0004
  23906439.9544   -5761169.02443  -4426258.19642  23906440.5864   23906440.8144
        45.0004         39.0004
  23166471.9384   13332921.70143  10384419.52842  23166473.2304   23166472.1874
        47.0004         41.0004
  23082168.1034   -4941957.18543  -3846120.29442  23082170.5444   23082168.6954
        46.0004         42.0004
 05  6 27 15 37 30.0000000  0  8G22G21G18G15G 6G14G26G 3
  21071968.4924    7831374.42744   6113938.09242  21071969.0674   21071964.0064
        57.0004         49.0004
  20690753.2194   10234041.69943   7976000.94042  20690754.1534   20690750.1114
        56.0004         50.0004
  20611887.4744   10145012.75943   7907011.77042  20611888.6264   20611884.8614
        55.0004         50.0004
  20606494.1684    7585894.11944   5915260.55642  20606495.1704   20606492.5174
        57.0004         49.0004
  23105621.6844   14202529.40143  11063133.27342  23105622.9704   23105622.6924
        48.0004         41.0004
  23885161.3934   -5872983.57543  -4513386.34042  23885163.7954   23885160.7274
        46.0004         39.0004
  23184225.8944   13426222.03443  10457121.02842  23184227.4074   23184226.1684
        47.0004         41.0004
  23068180.2374   -5015473.28743  -3903405.50942  23068180.5334   23068180.7644
        49.0004         42.0004
 05  6 27 15 38  0.0000000  0  8G22G21G18G15G 6G14G26G 3
  21065702.2664    7798445.47643   6088279.16242  21065702.5664   21065697.9684
        56.0004         49.0004
  20694422.6954   10253322.07544   7991024.60742  20694423.8914   20694419.0394
        57.0004         50.0004
  20615295.3754   10162921.90343   7920966.92742  20615296.6654   20615292.8704
        55.0004         50.0004
  20598620.8704    7544516.87044   5883018.53142  20598621.6254   20598618.9044
        57.0004         50.0004
  23125619.2634   14307615.11843  11145018.15142  23125621.4394   23125621.9604
        48.0004         41.0004
  23863902.0834   -5984699.85943  -4600437.91242  23863903.9474   23863902.3274
        45.0004         39.0004
  23202057.6614   13519925.55343  10530136.66042  23202061.5374   23202057.5894
        48.0004         41.0004
  23054263.3524   -5088601.54143  -3960388.61542  23054264.2014   23054262.0704
        49.0004         42.0004
 05  6 27 15 38 30.0000000  0  8G22G21G18G15G 6G14G26G 3
  21059498.3934    7765841.99943   6062873.87542  21059498.6664   21059493.2664
        56.0004         49.0004
  20698148.1614   10272901.89243   8006281.58242  20698149.2734   20698144.9574
        56.0004         50.0004
  20618759.6794   10181123.18043   7935149.71842  20618760.3074   20618756.8154
        55.0004         50.0004
  20590788.9974    7503356.32544   5850945.37442  20590789.2504   20590786.4874
        57.0004         50.0004
  23145648.0994   14412864.58943  11227030.59142  23145650.6064   23145645.0504
        48.0004         41.0004
  23842661.7954   -6096316.39943  -4687411.77942  23842663.6134   23842662.6774
        45.0004         39.0004
  23219963.7284   13614027.69743  10603462.93042  23219967.5314   23219965.0184
        47.0004         41.0004
  23040421.5514   -5161340.99843  -4017068.71442  23040423.0214   23040421.1204
        50.0004         43.0004
 05  6 27 15 39  0.0000000  0  8G22G21G18G15G 6G14G26G 3
  21053355.3564    7733562.44943   6037720.97642  21053355.7874   21053350.3054
        56.0004         49.0004
  20701930.8184   10292781.03143   8021771.79342  20701931.9144   20701927.7524
        56.0004         49.0004
  20622278.3764   10199614.37343   7949558.43142  20622279.0204   20622274.9044
        56.0004         50.0004
  20582996.6454    7462412.80544   5819041.32142  20582997.8114   20582994.7124
        57.0004         50.0004
  23165707.3764   14518274.43043  11309168.01542  23165708.3294   23165706.8694
        48.0004         42.0004
  23821441.4234   -6207831.52543  -4774306.62742  23821442.5434   23821443.0124
        45.0004         39.0004
  23237946.0004   13708524.27843  10677096.59142  23237946.0574   23237945.9384
        48.0004         42.0004
  23026654.8474   -5233690.48743  -4073444.92842  23026655.1124   23026654.0104
        50.0004         43.0004
 05  6 27 15 39 30.0000000  0  8G22G21G18G15G 6G14G26G 3
  21047274.4584    7701609.25743   6012822.40042  21047275.0614   21047270.5804
        56.0004         49.0004
  20705772.3704   10312963.37544   8037498.28542  20705773.0734   20705768.4334
        57.0004         49.0004
  20625851.8964   10218397.17843   7964194.37042  20625853.2304   20625849.1284
        55.0004         50.0004
  20575247.7594    7421690.37844   5787309.55742  20575248.5364   20575245.4414
        57.0004         50.0004
  23185796.3474   14623844.75243  11391430.46342  23185797.4754   23185795.1514
        48.0004         41.0004
  23800242.2124   -6319239.95843  -4861118.34742  23800242.8294   23800243.3284
        46.0004         40.0004
  23256003.6764   13803415.07943  10751037.38742  23256005.2554   23256005.0524
        47.0004         42.0004
  23012961.4544   -5305645.09643  -4129513.43642  23012962.8124   23012959.3164
        49.0004         42.0004
 05  6 27 15 40  0.0000000  0  8G22G21G18G15G 6G14G26G 3
  21041254.6294    7669970.70643   5988168.97942  21041254.4984   21041249.3284
        56.0004         49.0004
  20709667.3954   10333438.39444   8053452.83642  20709669.1284   20709664.7294
        57.0004         50.0004
  20629479.4024   10237458.86943   7979047.62342  20629481.0644   20629476.3634
        56.0004         50.0004
  20567539.0314    7381179.44243   5755742.58142  20567539.4974   20567536.9474
        56.0004         50.0004
  23205913.7584   14729562.49843  11473807.78442  23205915.8034   23205915.0324
        47.0004         41.0004
  23779060.4574   -6430549.96543  -4947853.36242  23779061.5064   23779059.5844
        46.0004         40.0004
  23274133.7274   13898685.86443  10825274.33242  23274136.3584   23274134.1154
        49.0004         42.0004
  22999342.9494   -5377213.44843  -4185280.99642  22999344.4604   22999342.2444
        52.0004         43.0004
 05  6 27 15 40 30.0000000  0  8G22G21G18G15G 6G14G26G 3
  21035297.9704    7638666.69443   5963776.25042  21035297.6614   21035292.7874
        56.0004         49.0004
  20713624.4164   10354226.82044   8069651.58142  20713625.4754   20713620.4174
        57.0004         49.0004
  20633163.7684   10256818.50743   7994133.04542  20633165.1374   20633160.6234
        56.0004         50.0004
  20559874.4474    7340901.45144   5724357.12942  20559875.1534   20559872.3464
        57.0004         50.0004
  23226063.2024   14835445.11443  11556313.61842  23226063.6934   23226062.2824
        47.0004         40.0004
  23757902.3504   -6541738.77043  -5034493.92842  23757903.2174   23757900.6914
        47.0004         40.0004
  23292337.6404   13994353.67043  10899820.61642  23292340.4394   23292340.0484
        48.0004         43.0004
  22985802.0494   -5448372.97443  -4240729.98042  22985803.6004   22985800.7434
        51.0004         44.0004
 05  6 27 15 41  0.0000000  0  8G22G21G18G15G 6G14G26G 3
  21029402.0364    7607684.88943   5939634.58742  21029402.3054   21029396.8344
        56.0004         49.0004
  20717637.6774   10375318.15944   8086086.37442  20717638.8814   20717633.8354
        57.0004         49.0004
  20636902.2114   10276463.20143   8009440.58542  20636903.3474   20636898.7534
        56.0004         50.0004
  20552252.5884    7300846.46243   5693145.44442  20552253.0264   20552250.2304
        56.0004         50.0004
  23246240.1044   14941478.93043  11638937.24942  23246241.3724   23246239.0004
        46.0004         40.0004
  23736764.8944   -6652815.13743  -5121046.90542  23736765.8714   23736762.6774
        47.0004         40.0004
  23310616.6854   14090404.01843  10974665.00342  23310617.7344   23310615.5094
        48.0004         42.0004
  22972336.2684   -5519133.26643  -4295867.86342  22972337.1064   22972335.2084
        51.0004         44.0004
 05  6 27 15 41 30.0000000  0  8G22G21G18G15G 6G14G26G 3
  21023566.3294    7577022.51143   5915741.81342  21023566.8884   21023561.6054
        56.0004         49.0004
  20721707.8784   10396711.03443   8102756.12442  20721709.3904   20721705.0654
        56.0004         50.0004
  20640694.6514   10296389.70343   8024967.71242  20640695.4344   20640690.9474
        56.0004         50.0004
  20544672.0074    7261013.64844   5662106.88842  20544672.7574   20544670.5864
        57.0004         50.0004
  23266445.7654   15047658.74543  11721674.61842  23266447.6844   23266445.4684
        46.0004         40.0004
  23715648.9624   -6763778.20843  -5207511.57042  23715649.8424   23715651.5614
        48.0004         41.0004
  23328965.6934   14186831.37843  11049803.15742  23328967.6074   23328965.7584
        48.0004         43.0004
  22958947.8314   -5589493.88243  -4350694.29742  22958948.6724   22958946.3424
        51.0004         44.0004
 05  6 27 15 42  0.0000000  0  8G22G21G18G15G 6G14G26G 3
  21017794.8614    7546686.77543   5892103.57542  21017794.9334   21017790.2034
        56.0004         49.0004
  20725839.1694   10418414.12144   8119667.60042  20725839.9154   20725835.1764
        57.0004         50.0004
  20644540.2284   10316604.36343   8040719.38542  20644541.5064   20644537.5884
        56.0004         50.0004
  20537136.2754    7221412.05743   5631248.50842  20537136.9744   20537133.9004
        56.0004         50.0004
  23286679.3034   15153990.02843  11804530.02342  23286681.2844   23286679.7714
        46.0004         40.0004
  23694554.8224   -6874618.49143  -5293880.56442  23694557.8444   23694557.6634
        46.0004         41.0004
  23347386.5444   14283640.34743  11125238.68442  23347389.0354   23347388.5504
        48.0004         42.0004
  22945635.6694   -5659445.09743  -4405201.68942  22945636.9834   22945634.6414
        50.0004         43.0004
 05  6 27 15 42 30.0000000  0  8G22G21G18G15G 6G14G26G 3
  21012083.4314    7516671.21944   5868714.83642  21012083.8634   21012076.6284
        57.0004         49.0004
  20730026.0444   10440421.80643   8136816.42642  20730027.4194   20730023.0544
        56.0004         50.0004
  20648440.7654   10337099.81643   8056689.85242  20648441.7694   20648437.5624
        56.0004         50.0004
  20529643.3394    7182036.93043   5600566.59242  20529644.3144   20529641.4684
        56.0004         50.0004
  23306941.4284   15260464.28143  11887496.84542  23306943.3634   23306942.2754
        46.0004         40.0004
  23673486.2414   -6985338.44843  -5380155.79742  23673487.5894   23673486.3304
        45.0004         40.0004
  23365880.4964   14380821.61843  11200964.29642  23365883.9454   23365880.6224
        47.0004         42.0004
  22932401.3344   -5728990.99743  -4459393.32042  22932403.0714   22932398.5214
        50.0004         42.0004
 05  6 27 15 43  0.0000000  0  8G22G21G18G15G 6G14G26G 3
  21006432.2164    7486977.62243   5845576.96842  21006432.8534   21006427.4374
        56.0004         49.0004
  20734272.4304   10462736.98143   8154204.86042  20734273.8194   20734269.1554
        56.0004         49.0004
  20652394.1434   10357877.07743   8072879.90942  20652395.7814   20652391.2034
        55.0004         50.0004
  20522194.3364    7142892.10143   5570064.12842  20522194.9114   20522192.7804
        56.0004         50.0004
  23327229.8554   15367081.39443  11970574.95542  23327231.1974   23327230.6074
        47.0004         40.0004
  23652441.3594   -7095933.18843  -5466333.46042  23652442.3944   23652441.8834
        46.0004         41.0004
  23384443.3224   14478374.35243  11276979.34142  23384444.5424   23384445.4554
        47.0004         42.0004
  22919245.4564   -5798126.83043  -4513265.44442  22919246.6904   22919244.3364
        49.0004         42.0004
 05  6 27 15 43 30.0000000  0  8G22G21G18G15G 6G14G26G 3
  21000842.5584    7457603.19143   5822687.79942  21000842.9954   21000837.6374
        56.0004         49.0004
  20738577.8584   10485358.29244   8171831.85342  20738578.8764   20738573.6994
        57.0004         50.0004
  20656401.0514   10378932.82643   8089286.97842  20656401.9834   20656398.4134
        55.0004         50.0004
  20514788.7194    7103976.82144   5539740.53542  20514789.7894   20514787.0034
        57.0004         50.0004
  23347545.7294   15473836.74143  12053760.79042  23347547.2464   23347545.1314
        46.0004         40.0004
  23631420.5894   -7206402.44043  -5552413.34642  23631421.9314   23631419.9954
        46.0004         40.0004
  23403077.1814   14576293.31243  11353279.77942  23403077.8614   23403077.3424
        46.0004         41.0004
  22906167.9254   -5866852.77643  -4566818.11942  22906168.0684   22906166.7154
        49.0004         43.0004
 05  6 27 15 44  0.0000000  0  8G22G21G18G15G 6G14G26G 3
  20995312.4644    7428547.72843   5800047.17242  20995313.5034   20995307.3094
        56.0004         49.0004
  20742940.6824   10508287.51044   8189698.74642  20742941.9884   20742937.2334
        57.0004         50.0004
  20660460.8584   10400265.98343   8105910.20742  20660462.0144   20660457.8644
        55.0004         50.0004
  20507427.7134    7065292.64243   5509597.01242  20507428.2214   20507425.3324
        56.0004         50.0004
  23367886.6314   15580728.09443  12137052.60242  23367886.2024   23367886.9594
        46.0004         40.0004
  23610422.7724   -7316743.38343  -5638393.25242  23610423.8404   23610422.1524
        46.0004         40.0004
  23421781.3234   14674575.70743  11429863.40442  23421780.6774   23421778.5394
        46.0004         40.0004
  22893168.2814   -5935166.11043  -4620049.27042  22893167.7684   22893165.9554
        48.0004         42.0004
 05  6 27 15 44 30.0000000  0  8G22G21G18G15G 6G14G26G 3
  20989845.6384    7399811.08243   5777654.99042  20989845.5204   20989840.4564
        56.0004         49.0004
  20747362.7234   10531525.51443   8207806.26242  20747363.9394   20747359.3214
        56.0004         50.0004
  20664572.9664   10421875.91543   8122749.09742  20664573.8274   20664570.0854
        55.0004         50.0004
  20500110.3474    7026841.66643   5479635.21342  20500111.1704   20500108.9064
        56.0004         50.0004
  23388251.7484   15687753.88643  12220449.18242  23388252.6184   23388252.3204
        45.0004         40.0004
  23589450.5344   -7426952.58243  -5724270.49742  23589451.4114   23589450.1804
        45.0004         40.0004
  23440551.7684   14773218.91643  11506728.17842  23440554.1134   23440550.7264
        47.0004         40.0004
  22880247.1424   -6003064.12643  -4672956.78242  22880248.8004   22880246.7554
        48.0004         41.0004
 05  6 27 15 45  0.0000000  0  8G22G21G18G15G 6G14G26G 3
  20984437.3054    7371395.03743   5755512.60742  20984438.1964   20984432.2824
        56.0004         49.0004
  20751844.5044   10555075.45043   8226156.85242  20751845.3874   20751841.1194
        56.0004         49.0004
  20668738.4234   10443763.33843   8139804.22342  20668739.4844   20668735.0324
        55.0004         50.0004
  20492839.2424    6988627.65844   5449858.05742  20492839.5774   20492836.7784
        57.0004         50.0004
  23408643.7494   15794913.77743  12303950.25942  23408645.9094   23408646.1554
        46.0004         40.0004
  23568503.5184   -7537024.83243  -5810041.01842  23568505.9214   23568504.7864
        46.0004         40.0004
  23459389.0284   14872221.92343  11583873.33742  23459392.3574   23459390.1784
        46.0004         39.0004
  22867406.2084   -6070542.31543  -4725537.20142  22867407.5134   22867405.1294
        48.0004         41.0004
 05  6 27 15 45 30.0000000  0  8G22G21G18G15G 6G14G26G 3
  20979089.6214    7343294.41343   5733616.03142  20979090.0474   20979084.6854
        56.0004         49.0004
  20756384.5504   10578933.33543   8244747.39442  20756385.1354   20756380.7704
        56.0004         49.0004
  20672955.2464   10465922.53143   8157071.10842  20672956.5584   20672951.9224
        56.0004         50.0004
  20485611.1054    6950647.27744   5420262.94842  20485612.1564   20485609.2804
        57.0004         50.0004
  23429060.8154   15902200.46043  12387550.13342  23429061.5384   23429059.6374
        46.0004         40.0004
  23547583.1864   -7646962.22443  -5895706.46142  23547586.2244   23547584.7144
        46.0004         40.0004
  23478299.5354   14971577.00343  11661292.82742  23478298.4514   23478294.9054
        45.0004         39.0004
  22854645.4054   -6137603.09143  -4777792.39742  22854646.0534   22854642.4044
        48.0004         41.0004
 05  6 27 15 46  0.0000000  0  8G22G21G18G15G 6G14G26G 3
  20973803.0104    7315511.01343   5711966.61342  20973803.5044   20973798.1494
        56.0004         49.0004
  20760983.4864   10603102.30943   8263580.34742  20760984.5364   20760979.8444
        56.0004         49.0004
  20677224.0514   10488354.69043   8174550.70342  20677225.1124   20677220.9294
        56.0004         50.0004
  20478429.8934    6912904.63944   5390853.09542  20478430.3154   20478427.2234
        57.0004         50.0004
  23449500.8214   16009614.17543  12471248.99242  23449503.5634   23449502.4034
        46.0004         41.0004
  23526689.3474   -7756759.65443  -5981262.86342  23526691.5684   23526690.6394
        46.0004         40.0004
  23497269.8774   15071283.67843  11738986.29342  23497270.5234   23497271.5674
        44.0004         38.0004
  22841965.4314   -6204241.81843  -4829718.70542  22841966.9094   22841964.4864
        46.0004         41.0004
 05  6 27 15 46 30.0000000  0  8G22G21G18G15G 6G14G26G 3
  20968577.3914    7288047.68443   5690566.61542  20968577.7014   20968571.1444
        56.0004         49.0004
  20765643.1304   10627587.03144   8282659.34942  20765644.1934   20765639.5274
        57.0004         50.0004
  20681544.2564   10511062.19243   8192244.84342  20681545.6864   20681542.0774
        56.0004         50.0004
  20471293.0494    6875404.68244   5361632.34842  20471293.8274   20471291.4334
        57.0004         50.0004
  23469965.2064   16117155.94943  12555047.60842  23469966.2644   23469966.6044
        46.0004         41.0004
  23505824.3694   -7866411.03943  -6066705.43542  23505824.2194   23505822.4144
        45.0004         39.0004
  23516312.1834   15171342.04443  11816953.76542  23516313.5624   23516312.1484
        45.0004         38.0004
  22829363.8644   -6270453.18643  -4881311.92342  22829363.6694   22829363.6374
        45.0004         40.0004
 05  6 27 15 47  0.0000000  0  8G22G21G18G15G 6G14G26G 3
  20963411.5094    7260899.35043   5669412.05942  20963411.5374   20963406.2044
        56.0004         49.0004
  20770360.9114   10652383.40643   8301981.17642  20770362.1084   20770358.5474
        56.0004         50.0004
  20685916.8914   10534039.21243   8210148.99042  20685918.1364   20685914.6934
        56.0004         50.0004
  20464202.3224    6838144.36044   5332598.31742  20464203.3564   20464200.6144
        57.0004         50.0004
  23490453.1984   16224818.87343  12638940.63042  23490454.9904   23490455.8044
        47.0004         41.0004
  23484985.6364   -7975917.73843  -6152035.29542  23484987.4994   23484983.8674
        46.0004         39.0004
  23535419.5364   15271744.45843  11895189.32842  23535421.7054   23535418.3254
        45.0004         38.0004
  22816845.7134   -6336239.18543  -4932573.72842  22816846.3704   22816844.7794
        46.0004         41.0004
 05  6 27 15 47 30.0000000  0  8G22G21G18G15G 6G14G26G 3
  20958304.2854    7234065.94543   5648502.92842  20958304.5494   20958299.0854
        56.0004         49.0004
  20775140.3004   10677492.62043   8321546.77242  20775140.5394   20775136.3994
        56.0004         49.0004
  20690340.7974   10557284.72543   8228262.36442  20690341.9484   20690337.0854
        56.0004         50.0004
  20457158.4864    6801125.29944   5303752.28742  20457158.8204   20457156.5474
        57.0004         50.0004
  23510963.5814   16332600.75643  12722926.33542  23510965.3774   23510963.8154
        46.0004         41.0004
  23464175.4044   -8085276.80043  -6237250.09842  23464176.9304   23464173.9694
        47.0004         40.0004
  23554587.9934   15372488.19843  11973690.90442  23554588.9604   23554587.9144
        45.0004         38.0004
  22804409.8394   -6401597.41043  -4983502.21842  22804410.9794   22804408.1424
        47.0004         42.0004
 05  6 27 15 48  0.0000000  0  8G22G21G18G15G 6G14G26G 3
  20953257.6064    7207545.79843   5627837.86442  20953257.9634   20953253.4714
        56.0004         49.0004
  20779976.7594   10702914.39143   8341355.94242  20779978.1054   20779974.1784
        56.0004         50.0004
  20694814.4444   10580796.26543   8246583.03142  20694815.7084   20694811.7654
        56.0004         50.0004
  20450159.3764    6764348.01443   5275094.65542  20450160.2884   20450158.1334
        56.0004         50.0004
  23531496.1254   16440498.27043  12807002.15142  23531497.3094   23531497.2984
        46.0004         41.0004
  23443393.7954   -8194486.71643  -6322348.68642  23443397.2584   23443392.8684
        47.0004         40.0004
  23573822.0504   15473569.07343  12052455.18642  23573824.8054   23573824.3844
        44.0004         38.0004
  22792051.0904   -6466526.93443  -5034096.64442  22792053.5654   22792052.5444
        44.0004         41.0004
 05  6 27 15 48 30.0000000  0  8G22G21G18G15G 6G14G26G 3
  20948271.5214    7181340.41143   5607418.08342  20948272.0564   20948266.9584
        56.0004         49.0004
  20784875.3524   10728651.82144   8361411.06042  20784876.2044   20784872.2704
        57.0004         50.0004
  20699339.9874   10604575.14043   8265112.00242  20699341.3034   20699336.6944
        56.0004         50.0004
  20443207.8044    6727816.12143   5246628.22542  20443208.6434   20443206.4894
        56.0004         50.0004
  23552049.7284   16548510.94743  12891167.71842  23552051.5184   23552052.2354
        45.0004         40.0004
  23422640.5774   -8303542.64443  -6407327.29142  23422642.1254   23422640.1204
        47.0004         40.0004
  23593122.3724   15574986.12743  12131481.45542  23593124.5774   23593122.9844
        45.0004         39.0004
  22779780.3654   -6531023.35743  -5084353.56542  22779783.6394   22779778.0594
        48.0004         42.0004
 05  6 27 15 49  0.0000000  0  8G22G21G18G15G 6G14G26G 3
  20943343.9044    7155444.75843   5587239.64542  20943343.8264   20943337.6224
        56.0004         49.0004
  20789831.8434   10754700.62144   8381708.81042  20789833.1864   20789828.9664
        57.0004         50.0004
  20703913.7324   10628615.53243   8283844.75742  20703915.3264   20703911.2704
        56.0004         50.0004
  20436302.4124    6691526.51544   5218350.60742  20436302.9054   20436300.2474
        57.0004         50.0004
  23572624.6664   16656631.76643  12975417.56042  23572625.3764   23572626.7034
        45.0004         40.0004
  23401916.7424   -8412446.01543  -6492187.01542  23401919.4274   23401917.1864
        47.0004         40.0004
  23612483.1154   15676731.41543  12210763.48142  23612485.4734   23612484.7014
        46.0004         39.0004
  22767589.8524   -6595089.12743  -5134274.98442  22767590.0514   22767586.6994
        48.0004         42.0004
 05  6 27 15 49 30.0000000  0  8G22G21G18G15G 6G14G26G 3
  20938475.7984    7129865.96643   5567308.12142  20938476.1154   20938471.3384
        56.0004         49.0004
  20794849.0374   10781069.97043   8402256.34542  20794850.5314   20794846.3354
        56.0004         49.0004
  20708539.2774   10652924.25043   8302786.59342  20708541.0794   20708536.9054
        55.0004         50.0004
  20429444.8044    6655488.81343   5190269.26442  20429445.2334   20429442.5304
        56.0004         50.0004
  23593221.9124   16764866.40943  13059756.05942  23593223.2184   23593223.3864
        45.0004         40.0004
  23381223.4474   -8521186.64343  -6576919.91142  23381225.4374   23381223.2524
        47.0004         41.0004
  23631908.6354   15778809.90043  12290305.12642  23631911.2554   23631909.3334
        46.0004         40.0004
  22755481.2494   -6658714.46643  -5183853.15142  22755482.9634   22755480.5814
        48.0004         42.0004
 05  6 27 15 50  0.0000000  0  8G22G21G18G15G 6G14G26G 3
  20933667.9064    7104599.06844   5547619.61742  20933668.4234   20933663.0054
        57.0004         49.0004
  20799927.7474   10807756.20043   8423050.78542  20799928.6074   20799924.6554
        56.0004         49.0004
  20713216.0254   10677495.53343   8321933.02442  20713217.3534   20713213.2834
        56.0004         50.0004
  20422634.4234    6619700.18443   5162382.01242  20422634.8534   20422632.7424
        56.0004         50.0004
  23613839.0964   16873207.95343  13144177.89942  23613841.3584   23613840.2614
        46.0004         40.0004
  23360562.6084   -8629766.06643  -6661527.21342  23360563.6934   23360560.6694
        47.0004         41.0004
  23651395.7954   15881214.02543  12370100.50042  23651397.7714   23651396.6564
        47.0004         40.0004
  22743457.7344   -6721901.26243  -5233089.58442  22743458.4304   22743456.8224
        49.0004         43.0004
 05  6 27 15 50 30.0000000  0  8G22G21G18G15G 6G14G26G 3
  20928917.8104    7079640.79043   5528171.61042  20928918.6004   20928913.3174
        56.0004         49.0004
  20805066.5664   10834757.26544   8444090.55042  20805067.4074   20805063.1384
        57.0004         49.0004
  20717941.7684   10702325.44043   8341280.98142  20717942.2604   20717938.3014
        56.0004         50.0004
  20415871.4204    6584159.59343   5134688.04242  20415871.8394   20415869.4114
        56.0004         50.0004
  23634473.9264   16981651.65143  13228679.33442  23634475.4244   23634476.4834
        45.0004         39.0004
  23339929.7644   -8738183.86143  -6746008.55742  23339932.0344   23339931.2334
        46.0004         41.0004
  23670945.4174   15983938.33343  12450145.38042  23670947.4974   23670945.1214
        48.0004         41.0004
  22731515.3934   -6784649.96743  -5281984.66342  22731517.3014   22731516.6994
        48.0004         43.0004
 05  6 27 15 51  0.0000000  0  8G22G21G18G15G 6G14G26G 3
  20924228.6424    7054996.09043   5508967.94642  20924228.9544   20924223.6534
        56.0004         49.0004
  20810265.1274   10862079.33644   8465380.46242  20810266.1924   20810261.9774
        57.0004         49.0004
  20722716.0534   10727417.97343   8360833.59542  20722717.3304   20722712.8924
        56.0004         50.0004
  20409156.4704    6548873.58843   5107192.44742  20409156.7434   20409154.5834
        56.0004         50.0004
  23655130.7214   17090200.08943  13313262.35942  23655134.1894   23655132.8174
        45.0004         39.0004
  23319331.9154   -8846432.36043  -6830357.98042  23319333.2874   23319330.8154
        47.0004         41.0004
  23690552.8874   16086984.73543  12530441.22842  23690554.4934   23690553.7074
        47.0004         40.0004
  22719659.1714   -6846953.50243  -5330532.84242  22719660.9374   22719657.7664
        47.0004         42.0004
 05  6 27 15 51 30.0000000  0  8G22G21G18G15G 6G14G26G 3
  20919597.6594    7030657.91843   5490003.12842  20919598.1984   20919592.2214
        56.0004         49.0004
  20815524.3964   10889716.74943   8486916.08142  20815525.2454   20815521.3534
        56.0004         49.0004
  20727539.1794   10752765.64643   8380585.01342  20727540.6504   20727536.2664
        56.0004         50.0004
  20402489.3664    6513837.46543   5079891.56842  20402489.9034   20402487.2874
        56.0004         50.0004
  23675806.8354   17198844.61443  13397920.27742  23675807.7874   23675805.8784
        44.0004         38.0004
  23298763.6964   -8954515.21343  -6914578.30642  23298765.0274   23298763.2794
        47.0004         41.0004
  23710223.1914   16190343.70143  12610980.61642  23710224.3204   23710222.6874
        48.0004         41.0004
  22707888.7184   -6908816.03743  -5378737.46542  22707890.5864   22707886.9004
        50.0004         43.0004
 05  6 27 15 52  0.0000000  0  8G22G21G18G15G 6G14G26G 3
  20915024.7514    7006630.53643   5471280.49142  20915025.2434   20915020.0254
        56.0004         49.0004
  20820844.8804   10917675.22444   8508701.89042  20820845.9294   20820841.8244
        57.0004         49.0004
  20732412.5554   10778372.31543   8400538.24842  20732414.0154   20732409.8604
        56.0004         50.0004
  20395870.7754    6479057.60143   5052790.37342  20395871.5654   20395868.5734
        56.0004         50.0004
  23696498.2454   17307587.77443  13482655.05142  23696502.2494   23696500.9574
        44.0004         38.0004
  23278228.4354   -9062424.64943  -6998663.53242  23278230.2874   23278228.3404
        46.0004         41.0004
  23729950.9054   16294017.21543  12691765.10842  23729951.4294   23729950.4774
        48.0004         41.0004
  22696202.2684   -6970230.42643  -5426592.85742  22696203.6394   22696201.0584
        51.0004         45.0004
 05  6 27 15 52 30.0000000  0  8G22G21G18G15G 6G14G26G 3
  20910512.1404    6982910.95143   5452797.69342  20910512.2584   20910506.1394
        56.0004         49.0004
  20826225.3544   10945953.37643   8530736.79442  20826226.4234   20826223.1864
        56.0004         49.0004
  20737333.3624   10804234.37243   8420690.48942  20737335.0244   20737330.9414
        55.0004         50.0004
  20389301.0814    6444533.51744   5025888.47342  20389301.9784   20389299.3584
        57.0004         50.0004
  23717207.4244   17416424.82243  13567463.01742  23717211.4214   23717212.4354
        42.0004         37.0004
  23257727.8944   -9170159.77943  -7082612.92642  23257727.9974   23257730.3474
        46.0004         41.0004
  23749739.5524   16397999.75343  12772790.40142  23749739.4984   23749739.1054
        48.0004         41.0004
  22684599.1174   -7031197.04343  -5474099.29142  22684600.7604   22684599.3084
        49.0004         44.0004
 05  6 27 15 53  0.0000000  0  8G22G21G18G15G 6G14G26G 3
  20906056.6144    6959500.84643   5434556.05042  20906056.8774   20906050.8424
        56.0004         49.0004
  20831668.5884   10974554.21243   8553023.12542  20831670.1234   20831665.0204
        56.0004         49.0004
  20742304.1174   10830352.97643   8441042.63242  20742305.1604   20742301.6364
        56.0004         50.0004
  20382781.3504    6410269.09144   4999188.90642  20382781.7654   20382778.9414
        57.0004         50.0004
  23737936.6114   17525355.81843  13652344.16942  23737938.8504   23737941.4124
        42.0004         36.0004
  23237260.3044   -9277715.96743  -7166422.88742  23237263.1544   23237260.9224
        47.0004         41.0004
  23769582.8294   16502290.45143  12854055.81542  23769585.1764   23769582.1544
        46.0004         41.0004
  22673084.2944   -7091711.50443  -5521253.36542  22673084.2604   22673083.6474
        50.0004         44.0004
 05  6 27 15 53 30.0000000  0  8G22G21G18G15G 6G14G26G 3
  20901660.6244    6936395.85044   5416552.16742  20901660.7644   20901654.2664
        57.0004         49.0004
  20837172.3614   11003474.46543   8575558.35942  20837172.9054   20837168.8784
        56.0004         49.0004
  20747321.4884   10856723.00943   8461590.70142  20747322.9704   20747319.0614
        56.0004         50.0004
  20376309.2644    6376261.80844   4972689.71342  20376310.0064   20376307.5754
        57.0004         50.0004
  23758684.9944   17634374.07443  13737293.33342  23758686.9444   23758685.9894
        44.0004         36.0004
  23216827.2184   -9385094.23143  -7250094.19642  23216828.5664   23216825.9374
        47.0004         41.0004
  23789487.1624   16606882.47543  12935556.03442  23789489.7314   23789486.4884
        46.0004         40.0004
  22661654.9664   -7151775.69043  -5568056.64542  22661656.0154   22661652.4754
        51.0004         44.0004
 05  6 27 15 54  0.0000000  0  8G22G21G18G15G 6G14G26G 3
  20897320.4764    6913597.93643   5398787.56442  20897321.2144   20897316.7904
        56.0004         49.0004
  20842737.1104   11032717.39143   8598345.02542  20842737.8624   20842733.7274
        56.0004         49.0004
  20752388.0544   10883345.81343   8482335.72942  20752389.4434   20752385.8204
        56.0004         50.0004
  20369888.2304    6342515.64344   4946393.99442  20369888.6384   20369886.0854
        57.0004         50.0004
  23779447.0254   17743480.61443  13822311.29242  23779451.1614   23779446.6694
        45.0004         37.0004
  23196429.1214   -9492289.39843  -7333622.85842  23196430.2054   23196426.8924
        48.0004         41.0004
  23809446.9844   16711775.23143  13017290.58042  23809450.0924   23809447.4554
        45.0004         40.0004
  22650312.4094   -7211384.94243  -5614505.48842  22650312.9374   22650310.4274
        52.0004         44.0004
 05  6 27 15 54 30.0000000  0  8G22G21G18G15G 6G14G26G 3
  20893040.9934    6891104.57743   5381260.26542  20893041.2064   20893036.1454
        56.0004         49.0004
  20848363.1194   11062282.21943   8621382.53142  20848363.8684   20848359.5504
        56.0004         49.0004
  20757501.9174   10910218.43443   8503275.42042  20757503.4684   20757499.3044
        56.0004         50.0004
  20363515.2374    6309030.53944   4920301.70442  20363516.1264   20363514.3574
        57.0004         50.0004
  23800225.1644   17852670.70543  13907394.31642  23800227.9214   23800225.7294
        45.0004         37.0004
  23176065.1334   -9599300.20243  -7417007.83242  23176065.7904   23176063.3564
        48.0004         41.0004
  23829464.3934   16816963.88443  13099255.73842  23829464.1564   23829464.1644
        44.0004         39.0004
  22639055.8314   -7270539.00443  -5660599.59542  22639055.6394   22639054.0604
        51.0004         44.0004
 05  6 27 15 55  0.0000000  0  8G22G21G18G15G 6G14G26G 3
  20888819.7244    6868917.45643   5363971.59742  20888819.7204   20888814.4204
        56.0004         49.0004
  20854051.1554   11092171.21143   8644672.62742  20854051.6574   20854047.2494
        56.0004         49.0004
  20762663.0454   10937342.08443   8524410.71542  20762664.2994   20762660.6834
        56.0004         50.0004
  20357194.4554    6275810.32944   4894415.81942  20357194.9244   20357192.4024
        57.0004         50.0004
  23821017.7384   17961944.07843  13992542.27342  23821020.7334   23821022.2694
        45.0004         37.0004
  23155737.0854   -9706121.89443  -7500245.46142  23155738.2474   23155735.7554
        47.0004         41.0004
  23849534.9374   16922447.53943  13181450.74142  23849535.9994   23849539.1064
        42.0004         39.0004
  22627885.0614   -7329233.76743  -5706335.72942  22627885.9784   22627886.2964
        49.0004         44.0004
 05  6 27 15 55 30.0000000  0  8G22G21G18G15G 6G14G26G 3
  20884654.2984    6847032.34743   5346918.27542  20884654.6154   20884649.8464
        56.0004         49.0004
  20859799.4924   11122382.44043   8668213.81642  20859800.5414   20859796.0214
        56.0004         49.0004
  20767871.3794   10964712.15543   8545738.02242  20767872.3114   20767868.7714
        56.0004         50.0004
  20350922.3754    6242853.19444   4868734.93742  20350923.3784   20350920.6124
        57.0004         50.0004
  23841826.5324   18071295.30343  14077750.88342  23841829.3944   23841830.8424
        45.0004         38.0004
  23135445.7944   -9812755.24143  -7583336.32542  23135446.7854   23135445.6334
        47.0004         41.0004
  23869665.2474   17028219.76043  13263870.57942  23869666.5304   23869666.1464
        44.0004         39.0004
  22616803.7904   -7387470.25243  -5751714.77842  22616804.3594   22616802.8364
        50.0004         44.0004
 05  6 27 15 56  0.0000000  0  6G22G21G18G15G14G 3
  20880547.9954    6825449.77043   5330100.67742  20880547.7914   20880541.9824
        56.0004         49.0004
  20865610.3704   11152917.04443   8692006.98642  20865610.6504   20865607.0124
        56.0004         49.0004
  20773126.0434   10992327.94643   8567256.80342  20773127.8754   20773124.4714
        56.0004         50.0004
  20344701.4814    6210161.26144   4843260.69842  20344702.4164   20344700.0154
        57.0004         50.0004
  23115191.5264   -9919196.70643  -7666277.67942  23115192.2474   23115190.9794
        47.0004         41.0004
  22605810.3064   -7445246.34043  -5796735.15242  22605810.7414   22605808.1964
        51.0004         43.0004
 05  6 27 15 56 30.0000000  0  6G22G21G18G15G14G 3
  20876498.8224    6804171.57143   5313520.26342  20876498.9294   20876493.8794
        56.0004         49.0004
  20871483.0384   11183778.28143   8716054.66442  20871484.1844   20871479.8904
        56.0004         49.0004
  20778428.7924   11020191.11643   8588968.34942  20778430.3614   20778426.3034
        55.0004         50.0004
  20338531.6564    6177738.65443   4817996.32342  20338532.5414   20338529.5554
        56.0004         50.0004
  23094972.2214  -10025440.90943  -7749065.32142  23094973.4914   23094974.1274
        46.0004         41.0004
  22594903.1374   -7502557.58043  -5841393.29642  22594904.4994   22594901.9534
        50.0004         43.0004
 05  6 27 15 57  0.0000000  0  6G22G21G18G15G14G 3
  20872507.9294    6783197.65944   5297176.95442  20872508.1814   20872502.3054
        57.0004         49.0004
  20877418.0644   11214967.98843   8740358.29342  20877419.0574   20877415.3134
        56.0004         49.0004
  20783777.8534   11048301.35043   8610872.42442  20783779.5474   20783775.0024
        55.0004         50.0004
  20332414.1214    6145588.30644   4792944.09842  20332414.4674   20332411.8474
        57.0004         50.0004
  23074794.0464  -10131483.65743  -7831695.96842  23074794.7904   23074793.8294
        46.0004         41.0004
  22584086.5604   -7559400.66343  -5885686.62542  22584086.9384   22584085.8574
        49.0004         43.0004
 05  6 27 15 57 30.0000000  0  6G22G21G18G15G14G 3
  20868573.2504    6762521.80144   5281065.88842  20868573.6864   20868568.1054
        57.0004         50.0004
  20883414.8154   11246480.98043   8764913.83342  20883415.7124   20883411.7904
        56.0004         49.0004
  20789173.0914   11076651.35743   8632963.32642  20789174.3624   20789170.5554
        56.0004         50.0004
  20326346.7884    6113706.07044   4768100.78542  20326347.6054   20326345.1664
        57.0004         50.0004
  23054652.4904  -10237328.60843  -7914172.47642  23054654.1304   23054653.6264
        47.0004         41.0004
  22573357.1804   -7615779.21943  -5929617.95742  22573358.9344   22573357.3624
        49.0004         43.0004
 05  6 27 15 58  0.0000000  0  6G22G21G18G15G14G 3
  20864696.0284    6742147.00343   5265189.43242  20864696.1894   20864690.9454
        56.0004         49.0004
  20889473.6654   11278321.55243   8789724.63342  20889475.0174   20889471.3984
        56.0004         49.0004
  20794613.8594   11105243.75243   8655243.10242  20794615.3644   20794611.2914
        56.0004         50.0004
  20320331.8064    6082096.95844   4743470.28842  20320332.7584   20320330.2954
        57.0004         50.0004
  23034549.2754  -10342969.31843  -7996489.85342  23034550.3444   23034549.4884
        48.0004         41.0004
  22562718.3724   -7671687.89443  -5973183.13842  22562719.0824   22562717.7204
        49.0004         42.0004
 05  6 27 15 58 30.0000000  0  6G22G21G18G15G14G 3
  20860875.7294    6722071.82844   5249546.43042  20860876.5144   20860870.3084
        57.0004         49.0004
  20895595.2574   11310489.79043   8814790.75342  20895596.1174   20895592.7124
        56.0004         49.0004
  20800100.5364   11134077.09643   8677710.63342  20800102.0084   20800097.8904
        56.0004         50.0004
  20314369.3444    6050761.82644   4719053.29242  20314369.9664   20314367.1834
        57.0004         50.0004
  23014484.9944  -10448403.61743  -8078646.37542  23014487.4304   23014484.6174
        47.0004         41.0004
  22552169.2514   -7727125.32443  -6016381.14442  22552168.9374   22552169.1294
        49.0004         43.0004
 05  6 27 15 59  0.0000000  0  6G22G21G18G15G14G 3
  20857111.0654    6702295.22243   5234136.08842  20857112.0954   20857107.8244
        56.0004         49.0004
  20901779.1944   11342985.66143   8840112.18442  20901779.8234   20901776.6004
        56.0004         49.0004
  20805633.1064   11163149.38143   8700364.34642  20805634.8434   20805630.1704
        56.0004         50.0004
  20308458.0264    6019701.79544   4694850.66142  20308459.0224   20308456.5724
        57.0004         50.0004
  22994460.9984  -10553629.40143  -8160640.44242  22994463.3304   22994460.7714
        47.0004         41.0004
  22541709.7084   -7782090.29243  -6059210.99242  22541710.6254   22541710.1234
        50.0004         44.0004
 05  6 27 15 59 30.0000000  0  6G22G21G18G15G14G 3
  20853407.7434    6682824.76243   5218964.29642  20853408.1954   20853401.2164
        56.0004         49.0004
  20908027.1054   11375818.29843   8865696.01842  20908028.0724   20908024.0114
        56.0004         49.0004
  20811211.9934   11192467.85243   8723209.89942  20811213.4314   20811209.6274
        56.0004         50.0004
  20302602.2434    5988926.59943   4670869.97342  20302602.4924   20302600.3014
        56.0004         50.0004
  22974480.2194  -10658635.88743  -8242463.61542  22974479.9034   22974477.4054
        47.0004         41.0004
  22531342.2214   -7836572.93843  -6101664.98642  22531343.3564   22531342.3214
        50.0004         44.0004
 05  6 27 16  0  0.0000000  0  6G22G21G18G15G14G 3
  20849752.6914    6663623.28343   5204002.11442  20849752.7384   20849748.8024
        56.0004         49.0004
  20914332.1514   11408951.88343   8891514.34742  20914333.3994   20914329.0264
        56.0004         49.0004
  20816830.9404   11221994.93643   8746217.99942  20816832.0544   20816828.3364
        56.0004         50.0004
  20296794.0684    5958401.89244   4647084.48142  20296794.2954   20296791.8334
        57.0004         50.0004
  22954534.5554  -10763456.25343  -8324141.75642  22954534.5204   22954532.9094
        49.0004         42.0004
  22521058.7934   -7890607.29743  -6143769.67742  22521059.9834   22521057.5434
        49.0004         44.0004
 05  6 27 16  0 30.0000000  0  6G22G21G18G15G14G 3
  20846163.0084    6644759.18343   5189302.80642  20846163.7094   20846158.0594
        56.0004         49.0004
  20920708.0334   11442456.06643   8917621.45542  20920709.0274   20920704.5984
        56.0004         49.0004
  20822502.8794   11251798.64643   8769441.65842  20822504.2644   20822500.3524
        56.0004         50.0004
  20291044.9084    5928197.89543   4623548.88942  20291045.8534   20291043.7874
        56.0004         50.0004
  22934635.7294  -10868018.90843  -8405619.09942  22934637.1234   22934635.4534
        48.0004         42.0004
  22510875.1214   -7944122.77043  -6185470.04242  22510877.0914   22510873.9724
        50.0004         44.0004
 05  6 27 16  1  0.0000000  0  6G22G21G18G15G14G 3
  20842625.4674    6626164.50043   5174813.43242  20842625.3274   20842619.4984
        56.0004         49.0004
  20927141.6504   11476264.47343   8943965.64342  20927142.4614   20927137.9904
        56.0004         49.0004
  20828213.6964   11281810.23943   8792827.30142  20828214.8864   20828211.4124
        56.0004         50.0004
  20285346.9564    5898249.07443   4600212.13142  20285347.2364   20285344.8454
        56.0004         50.0004
  22914774.7964  -10972388.47343  -8486945.98942  22914777.5874   22914774.4484
        49.0004         42.0004
  22500779.7414   -7997184.76743  -6226817.07942  22500780.5564   22500777.1984
        52.0004         45.0004
 05  6 27 16  1 30.0000000  0  6G22G21G18G15G14G 3
  20839142.2974    6607863.44143   5160552.86642  20839142.7574   20839137.6964
        56.0004         50.0004
  20933637.9294   11510402.39644   8970566.57842  20933638.6764   20933634.3344
        57.0004         49.0004
  20833968.7944   11312053.44743   8816393.42442  20833970.1534   20833966.7524
        56.0004         50.0004
  20279701.5714    5868581.50144   4577094.53142  20279701.6934   20279699.4144
        57.0004         50.0004
  22894955.7004  -11076537.59943  -8568101.10742  22894957.5944   22894955.6934
        48.0004         42.0004
  22490773.5524   -8049766.79643  -6267790.11242  22490774.6804   22490772.3554
        52.0004         46.0004
 05  6 27 16  2  0.0000000  0  6G22G21G18G15G14G 3
  20835717.1744    6589864.31044   5146527.56542  20835717.5724   20835712.5034
        57.0004         50.0004
  20940198.4934   11544879.58343   8997431.87042  20940199.4604   20940195.2654
        56.0004         49.0004
  20839769.4114   11342536.64343   8840146.55342  20839770.8634   20839766.6944
        56.0004         50.0004
  20274111.4954    5839206.20244   4554204.67342  20274112.0164   20274109.5984
        57.0004         50.0004
  22875180.6944  -11180454.12143  -8649074.96042  22875182.2744   22875181.9894
        48.0004         42.0004
  22480859.8904   -8101857.53143  -6308380.28642  22480861.5604   22480859.8934
        51.0004         46.0004
 05  6 27 16  2 30.0000000  0  6G22G21G18G15G14G 3
  20832346.7144    6572155.01843   5132728.12242  20832347.4954   20832342.2594
        56.0004         49.0004
  20946821.8284   11579685.21143   9024553.08542  20946823.0174   20946819.2254
        56.0004         49.0004
  20845613.1434   11373246.46943   8864076.27542  20845614.6204   20845610.5554
        56.0004         49.0004
  20268575.5994    5810113.45044   4531534.97842  20268576.2184   20268573.5194
        58.0004         50.0004
  22855449.8494  -11284147.20443  -8729874.73642  22855450.1184   22855449.3404
        49.0004         42.0004
  22471040.3464   -8153466.96943  -6348595.40942  22471041.4124   22471037.8044
        51.0004         45.0004
 05  6 27 16  3  0.0000000  0  7G22G21G18G15G14G 3G 9
  20829033.1744    6554740.67643   5119158.48742  20829033.9814   20829028.6124
        56.0004         49.0004
  20953508.7274   11614825.56943   9051935.14242  20953509.7134   20953506.2664
        56.0004         49.0004
  20851500.6004   11404188.02943   8888186.55942  20851502.4574   20851498.5874
        56.0004         49.0004
  20263094.3584    5781310.50444   4509091.10942  20263094.8744   20263092.3234
        57.0004         50.0004
  22835761.3004  -11387608.15043  -8810493.60642  22835763.8864   22835762.1154
        49.0004         42.0004
  22461311.3204   -8204587.46443  -6388429.56242  22461311.8504   22461309.0994
        51.0004         45.0004
  23921893.8674    -812053.54553   -619814.72552  23921895.3484   23921896.2294
        40.0004         33.0004
 05  6 27 16  3 30.0000000  0  7G22G21G18G15G14G 3G 9
  20825774.3944    6537612.96343   5105812.23142  20825774.1264   20825768.7684
        56.0004         49.0004
  20960258.4534   11650294.05143   9079572.88042  20960259.3764   20960255.4824
        56.0004         49.0004
  20857431.3264   11435353.05443   8912470.97942  20857432.9014   20857428.9324
        55.0004         49.0004
  20257666.8884    5752791.96644   4486868.85542  20257667.6754   20257665.6164
        57.0004         50.0004
  22816115.2844  -11490841.78043  -8890935.34542  22816116.9084   22816115.3114
        49.0004         42.0004
  22451675.6504   -8255224.45943  -6427886.97142  22451677.4764   22451674.1074
        51.0004         45.0004
  23910232.8074    -873351.95553   -667579.65452  23910230.5474   23910224.4644
        38.0004         33.0004
 05  6 27 16  4  0.0000000  0  7G22G21G18G15G14G 3G 9
  20822569.9234    6520775.94043   5092692.45942  20822570.2324   20822565.7234
        56.0004         50.0004
  20967070.9744   11686095.77043   9107470.28242  20967071.8654   20967068.0784
        56.0004         49.0004
  20863405.4144   11466744.60943   8936931.91642  20863406.3874   20863402.6504
        55.0004         49.0004
  20252296.3744    5724563.61644   4464872.72242  20252296.4454   20252293.8904
        57.0004         50.0004
  22796515.6624  -11593840.81043  -8971194.28242  22796516.8694   22796514.6264
        48.0004         42.0004
  22442133.2704   -8305371.94343  -6466962.95442  22442134.7464   22442131.6954
        51.0004         45.0004
  23898627.4024    -934321.18253   -715087.99752  23898625.9464   23898629.7414
        38.0004         33.0004
 05  6 27 16  4 30.0000000  0  7G22G21G18G15G14G 3G 9
  20819422.2174    6504231.76643   5079800.90142  20819421.8584   20819416.6914
        56.0004         50.0004
  20973948.6924   11722234.30243   9135630.13342  20973949.3794   20973945.1934
        56.0004         49.0004
  20869421.9254   11498364.39343   8961570.69642  20869423.1244   20869419.6644
        55.0004         49.0004
  20246980.1774    5696630.02844   4443106.29542  20246980.8444   20246977.8294
        57.0004         50.0004
  22776961.9044  -11696599.21343  -9051265.72442  22776962.2724   22776961.6004
        49.0004         43.0004
  22432684.9184   -8355025.02843  -6505653.66842  22432685.5904   22432684.7024
        51.0004         45.0004
  23887091.595                     -762334.77952                  23887090.2794
        39.000          32.0004
 05  6 27 16  5  0.0000000  0  6G22G21G18G15G14G 3
  20816328.3084    6487981.02943   5067137.97442  20816329.3324   20816325.0734
        56.0004         50.0004
  20980889.9434   11758711.57743   9164053.95142  20980891.0724   20980886.6634
        56.0004         49.0004
  20875482.8954   11530212.94143   8986387.72542  20875483.7544   20875480.2804
        56.0004         50.0004
  20241720.9214    5668993.96544   4421571.68642  20241721.9074   20241719.2944
        57.0004         50.0004
  22757453.0264  -11799113.26743  -9131146.76442  22757453.5404   22757453.9554
        48.0004         42.0004
  22423329.7344   -8404181.04743  -6543957.05042  22423331.6724   22423329.9774
        49.0004         44.0004
 05  6 27 16  5 30.0000000  0  6G22G21G18G15G14G 3
  20813292.6414    6472016.89244   5054698.38942  20813292.5184   20813285.8904
        57.0004         50.0004
  20987894.4114   11795521.88243   9192737.28042  20987895.0414   20987891.4574
        56.0004         48.0004
  20881585.5024   11562282.53543   9011377.00342  20881586.9184   20881583.2274
        56.0004         50.0004
  20236517.7054    5641651.01344   4400265.47742  20236518.4484   20236515.9674
        57.0004         50.0004
  22737993.0214  -11901386.60943  -9210840.24542  22737994.2434   22737991.4764
        49.0004         43.0004
  22414069.7834   -8452844.51743  -6581876.60642  22414070.5504   22414069.5974
        49.0004         44.0004
 05  6 27 16  6  0.0000000  0  6G22G21G18G15G14G 3
  20810305.7814    6456334.61443   5042478.42342  20810306.8664   20810302.3924
        56.0004         50.0004
  20994961.3434   11832661.88343   9221677.50042  20994962.3854   20994958.8894
        55.0004         48.0004
  20887729.6824   11594567.99343   9036534.49442  20887730.8254   20887726.8294
        56.0004         50.0004
  20231370.6214    5614598.84244   4379185.84542  20231370.8844   20231368.8044
        57.0004         50.0004
  22718576.3924  -12003420.49943  -9290347.12242  22718578.2824   22718575.1554
        50.0004         43.0004
  22404904.7094   -8501017.44343  -6619413.97342  22404905.9874   22404902.6354
        51.0004         43.0004
 05  6 27 16  6 30.0000000  0  6G22G21G18G15G14G 3
  20807377.8804    6440938.94943   5030481.77842  20807378.2024   20807372.4524
        56.0004         50.0004
  21002093.8084   11870137.53543   9250879.27042  21002094.3064   21002090.6554
        56.0004         49.0004
  20893914.7504   11627074.23643   9061864.01942  20893916.1304   20893912.9814
        56.0004         50.0004
  20226279.4964    5587844.51844   4358338.30442  20226280.3274   20226277.2604
        58.0004         51.0004
  22699205.7854  -12105206.68743  -9369660.98342  22699206.9594   22699207.1974
        49.0004         43.0004
  22395830.5804   -8548692.63143  -6656563.50142  22395832.1924   22395829.7274
        50.0004         43.0004
 05  6 27 16  7  0.0000000  0  6G22G21G18G15G14G 3
  20804504.5004    6425832.99744   5018710.91142  20804503.9404   20804498.5294
        57.0004         50.0004
  21009290.0724   11907953.31943   9280346.08042  21009290.6784   21009287.0984
        56.0004         49.0004
  20900143.3524   11659803.43543   9087367.27142  20900144.2434   20900140.6304
        56.0004         50.0004
  20221245.5224    5561393.31944   4337726.97642  20221246.5824   20221243.5134
        57.0004         50.0004
  22679885.4624  -12206738.58943  -9448776.70942  22679886.9054   22679885.1284
        49.0004         43.0004
  22386853.7424   -8595865.08143  -6693321.29642  22386854.8404   22386852.7224
        50.0004         43.0004
 05  6 27 16  7 30.0000000  0  6G22G21G18G15G14G 3
  20801682.1594    6411011.68343   5007161.82942  20801682.8784   20801677.9064
        56.0004         50.0004
  21016549.2594   11946105.56143   9310075.06642  21016550.2474   21016546.3094
        56.0004         48.0004
  20906412.4704   11692750.74343   9113040.47642  20906414.3094   20906410.5734
        56.0004         49.0004
  20216268.1984    5535242.90043   4317350.01342  20216269.3334   20216267.2464
        56.0004         50.0004
  22660613.0664  -12308017.88343  -9527695.59042  22660614.4794   22660610.0984
        50.0004         43.0004
  22377972.3944   -8642536.89943  -6729688.95942  22377973.6154   22377973.2334
        50.0004         44.0004
 05  6 27 16  8  0.0000000  0  6G22G21G18G15G14G 3
  20798924.6164    6396515.94343   4995866.42442  20798925.2124   20798919.4964
        56.0004         50.0004
  21023882.3874   11984636.28343   9340098.97242  21023883.0064   21023878.5014
        56.0004         48.0004
  20912731.9544   11725956.29343   9138914.91542  20912733.1194   20912729.3594
        56.0004         49.0004
  20211358.4984    5509436.36944   4297241.02142  20211358.9704   20211356.2764
        57.0004         50.0004
  22641396.3664  -12409000.60843  -9606383.37842  22641398.6294   22641395.5654
        50.0004         43.0004
  22369196.0064   -8688665.03643  -6765632.98042  22369196.6394   22369195.8294
        52.0004         44.0004
 05  6 27 16  8 30.0000000  0  6G22G21G18G15G14G 3
  20796209.4144    6382250.52144   4984750.51442  20796210.1394   20796205.1294
        57.0004         50.0004
  21031267.8154   12023451.63843   9370344.68242  21031269.2544   21031264.9734
        56.0004         48.0004
  20919081.3374   11759324.57743   9164916.15242  20919082.3054   20919078.6394
        55.0004         49.0004
  20206495.2434    5483880.74543   4277327.54042  20206495.7364   20206493.2314
        56.0004         50.0004
  22622218.4854  -12509778.28443  -9684911.39042  22622221.4294   22622218.0184
        50.0004         43.0004
  22360503.3834   -8734342.55643  -6801225.88442  22360504.4514   22360501.8284
        52.0004         44.0004
 05  6 27 16  9  0.0000000  0  6G22G21G18G15G14G 3
  20793551.2514    6368280.31644   4973864.63142  20793552.0984   20793546.0804
        57.0004         50.0004
  21038720.9384   12062617.50643   9400863.51442  21038722.0254   21038717.8094
        55.0004         48.0004
  20925475.1484   11792920.15643   9191094.51242  20925475.9524   20925471.8904
        56.0004         49.0004
  20201693.7434    5458643.29844   4257661.98242  20201693.7754   20201691.4954
        57.0004         51.0004
  22603093.6924  -12610283.13443  -9763226.82342  22603094.1454   22603093.5464
        50.0004         43.0004
  22351909.1054   -8779502.39143  -6836415.40742  22351909.8264   22351906.5904
        52.0004         44.0004
 05  6 27 16  9 30.0000000  0  6G22G21G18G15G14G 3
  20790947.1694    6354589.56744   4963196.51342  20790947.0144   20790941.2904
        57.0004         50.0004
  21046237.8314   12102119.78643   9431644.48242  21046238.8294   21046234.7134
        55.0004         48.0004
  20931907.6984   11826726.78943   9217437.31842  20931908.6984   20931905.0324
        56.0004         49.0004
  20196948.1814    5433710.84444   4238234.09242  20196949.3394   20196946.3634
        57.0004         51.0004
  22584018.5364  -12710526.86943  -9841338.79142  22584018.7494   22584017.5934
        51.0004         43.0004
  22343410.7014   -8824157.48843  -6871211.61242  22343412.5214   22343410.3044
        51.0004         44.0004
 05  6 27 16 10  0.0000000  0  6G22G21G18G15G14G 3
  20788393.4104    6341174.46544   4952743.18542  20788393.5124   20788388.6724
        57.0004         50.0004
  21053819.0604   12141955.98543   9462685.64642  21053819.9784   21053816.2624
        56.0004         49.0004
  20938380.8394   11860740.78643   9243941.71842  20938382.0084   20938377.6464
        56.0004         49.0004
  20192261.7404    5409081.87744   4219042.67542  20192262.3684   20192259.7224
        57.0004         50.0004
  22564991.4734  -12810510.25743  -9919247.87342  22564992.4884   22564990.3224
        50.0004         43.0004
  22335010.1084   -8868309.50943  -6905615.79542  22335011.8254   22335008.9084
        52.0004         45.0004
 05  6 27 16 10 30.0000000  0  6G22G21G18G15G14G 3
  20785893.4194    6328042.98544   4942510.85942  20785894.5334   20785889.1224
        57.0004         50.0004
  21061464.5944   12182134.40143   9493993.47742  21061465.9734   21061461.8634
        56.0004         48.0004
  20944893.5134   11894969.08843   9270613.10442  20944895.3694   20944891.0944
        56.0004         49.0004
  20187634.3104    5384766.38044   4200095.52942  20187634.9454   20187632.5014
        57.0004         50.0004
  22546017.0784  -12910221.87043  -9996945.20542  22546017.5184   22546015.7214
        50.0004         44.0004
  22326706.5264   -8911948.74743  -6939620.39842  22326707.6954   22326703.8504
        53.0004         45.0004
 05  6 27 16 11  0.0000000  0  6G22G21G18G15G14G 3
  20783447.9724    6315189.31343   4932495.00342  20783448.3294   20783443.3464
        56.0004         50.0004
  21069174.5594   12222651.80543   9525565.45342  21069175.4664   21069172.3524
        55.0004         48.0004
  20951447.1304   11929406.32243   9297447.29542  20951448.6184   20951444.2584
        56.0004         49.0004
  20183066.5104    5360761.36544   4181390.29642  20183067.0424   20183064.8614
        57.0004         50.0004
  22527094.2254  -13009664.03143 -10074432.57942  22527095.7414   22527092.5474
        51.0004         43.0004
  22318498.3454   -8955078.21043  -6973227.76742  22318499.6954   22318496.7064
        51.0004         45.0004
 05  6 27 16 11 30.0000000  0  6G22G21G18G15G14G 3
  20781055.9704    6302614.01344   4922696.05742  20781056.0814   20781049.9164
        57.0004         50.0004
  21076950.0414   12263509.33743   9557402.46142  21076951.1134   21076946.7834
        55.0004         48.0004
  20958040.1374   11964052.44043   9324444.24942  20958041.3504   20958037.0204
        56.0004         49.0004
  20178558.5344    5337069.59944   4162929.17642  20178559.1514   20178555.2454
        58.0004         50.0004
  22508222.8564  -13108832.81643 -10151706.92442  22508224.4444   22508220.9304
        51.0004         44.0004
  22310387.8224   -8997695.28443  -7006435.88242  22310388.5514   22310387.7864
        50.0004         44.0004
 05  6 27 16 12  0.0000000  0  6G22G21G18G15G14G 3
  20778715.5454    6290315.83043   4913113.05042  20778715.7124   20778709.7704
        56.0004         50.0004
  21084789.4734   12304706.84043   9589504.37942  21084790.6844   21084786.3224
        56.0004         48.0004
  20964672.3394   11998905.55243   9351602.49542  20964673.8104   20964670.1944
        56.0004         49.0004
  20174109.4634    5313692.15044   4144712.97142  20174110.3964   20174107.8234
        57.0004         51.0004
  22489402.8974  -13207726.27143 -10228766.72342  22489404.2784   22489402.6384
        50.0004         43.0004
  22302376.1804   -9039799.16243  -7039244.09542  22302378.0064   22302373.7824
        50.0004         44.0004
 05  6 27 16 12 30.0000000  0  6G22G21G18G15G14G 3
  20776426.4964    6278292.28343   4903744.03842  20776426.9884   20776422.1284
        56.0004         50.0004
  21092694.1144   12346243.23343   9621870.37742  21092694.7914   21092690.6744
        55.0004         48.0004
  20971344.3104   12033963.08443   9378920.03242  20971345.4884   20971341.2384
        56.0004         49.0004
  20169720.6134    5290628.68444   4126741.42742  20169721.7324   20169719.0974
        57.0004         51.0004
  22470638.0044  -13306343.44443 -10305611.25042  22470638.6004   22470636.6984
        50.0004         44.0004
  22294463.0084   -9081390.22143  -7071652.72842  22294464.7734   22294460.1704
        51.0004         44.0004
 05  6 27 16 13  0.0000000  0  6G22G21G18G15G14G 3
  20774191.8044    6266545.05243   4894590.34542  20774192.0934   20774186.9984
        56.0004         50.0004
  21100662.9324   12388121.45043   9654502.72742  21100663.6084   21100659.4624
        56.0004         48.0004
  20978053.5344   12069226.24543   9406397.81742  20978055.3804   20978051.3964
        56.0004         49.0004
  20165391.8094    5267883.48543   4109017.89642  20165392.6094   20165390.7084
        56.0004         50.0004
  22451925.5474  -13404679.57143 -10382236.75542  22451927.2944   22451923.6194
        51.0004         44.0004
  22286645.3934   -9122464.28443  -7103658.47842  22286648.0094   22286645.5904
        51.0004         45.0004
 05  6 27 16 13 30.0000000  0  6G22G21G18G15G14G 3
  20772009.2184    6255074.95143   4885652.59242  20772009.7074   20772004.6114
        56.0004         50.0004
  21108697.0674   12430343.46843   9687402.99042  21108698.1694   21108694.6844
        56.0004         48.0004
  20984803.9124   12104695.60643   9434036.26442  20984805.3304   20984800.8974
        56.0004         49.0004
  20161125.4324    5245459.79643   4091544.87642  20161125.9354   20161123.6294
        56.0004         50.0004
  22433265.8704  -13502730.23243 -10458639.82742  22433267.5734   22433265.9214
        52.0004         44.0004
  22278928.0604   -9163018.28443  -7135258.98942  22278930.1364   22278928.5694
        51.0004         45.0004
 05  6 27 16 14  0.0000000  0  6G22G21G18G15G14G 3
  20769877.3054    6243876.38243   4876926.42842  20769878.3034   20769873.5154
        56.0004         50.0004
  21116796.1704   12472904.95543   9720567.75542  21116797.1444   21116794.1954
        55.0004         48.0004
  20991591.2764   12140365.39443   9461830.88642  20991592.9344   20991588.7664
        56.0004         49.0004
  20156918.9084    5223354.47343   4074319.93442  20156919.5204   20156917.0324
        56.0004         50.0004
  22414661.6734  -13600497.44243 -10534822.02742  22414663.0254   22414661.1924
        51.0004         44.0004
  22271309.7564   -9203055.76643  -7166457.02342  22271312.1664   22271310.7514
        51.0004         45.0004
 05  6 27 16 14 30.0000000  0  7G22G21G18G15G14G 3G19
  20767795.6864    6232935.79943   4868401.28042  20767796.5814   20767791.6534
        56.0004         50.0004
  21124957.1864   12515793.52943   9753987.40142  21124958.7444   21124955.1924
        55.0004         48.0004
  20998415.4354   12176221.91343   9489771.00842  20998416.4494   20998411.9574
        56.0004         49.0004
  20152771.3394    5201556.07644   4057334.15242  20152771.9864   20152769.0254
        57.0004         51.0004
  22396110.2544  -13697991.58043 -10610791.45642  22396112.0504   22396106.9694
        52.0004         44.0004
  22263786.3404   -9242588.27543  -7197261.57042  22263788.6894   22263787.2124
        52.0004         45.0004
  24246399.0694   -1658820.34253  -1258583.35252  24246400.6324   24246396.7914
        48.0004         43.0004
 05  6 27 16 15  0.0000000  0  7G22G21G18G15G14G 3G19
  20765766.8374    6222273.01743   4860092.61642  20765767.3654   20765762.5924
        56.0004         50.0004
  21133186.0894   12559030.48143   9787678.51642  21133186.8404   21133182.2644
        56.0004         48.0004
  21005277.0424   12212284.76043   9517871.91342  21005278.5684   21005274.5404
        55.0004         49.0004
  20148685.6334    5180087.05944   4040605.03742  20148686.2834   20148683.9864
        57.0004         51.0004
  22377613.1884  -13795189.56943 -10686530.10342  22377614.5124   22377612.5594
        51.0004         44.0004
  22256365.0734   -9281593.69243  -7227655.44042  22256366.3254   22256362.8124
        52.0004         45.0004
  24229228.6844   -1749050.08143  -1328892.20642  24229229.7914   24229226.2654
        46.0004         42.0004
 05  6 27 16 15 30.0000000  0  7G22G21G18G15G14G 3G19
  20763789.7934    6211884.09844   4851997.34742  20763790.0724   20763785.4424
        57.0004         50.0004
  21141479.1514   12602612.87043   9821638.80042  21141480.4124   21141476.6184
        55.0004         48.0004
  21012177.8914   12248549.27543   9546129.94842  21012179.3714   21012175.2394
        55.0004         49.0004
  20144662.1404    5158945.67944   4024131.22342  20144663.2254   20144660.4694
        57.0004         51.0004
  22359172.3484  -13892092.08243 -10762038.52542  22359174.8464   22359171.6434
        51.0004         44.0004
  22249042.4674   -9320074.15243  -7257640.24742  22249043.4554   22249041.9424
        53.0004         45.0004
  24212110.5534   -1839001.32343  -1398984.07342  24212111.9984   24212108.9664
        44.0004         41.0004
 05  6 27 16 16  0.0000000  0  7G22G21G18G15G14G 3G19
  20761865.0394    6201769.07943   4844115.50142  20761865.6894   20761860.2034
        56.0004         50.0004
  21149838.5804   12646541.74143   9855869.06542  21149839.6154   21149835.6654
        55.0004         48.0004
  21019117.1154   12285015.59543   9574545.24142  21019118.6314   21019115.2084
        55.0004         49.0004
  20140702.4534    5138134.56944   4007914.77342  20140703.3294   20140700.1974
        57.0004         51.0004
  22340790.2074  -13988695.41743 -10837313.80642  22340791.9804   22340788.6114
        51.0004         44.0004
  22241820.4184   -9358027.32543  -7287214.18142  22241820.8774   22241819.5484
        52.0004         45.0004
  24195050.3714   -1928670.41043  -1468856.03042  24195049.7794   24195046.5544
        44.0004         41.0004
 05  6 27 16 16 30.0000000  0  7G22G21G18G15G14G 3G19
  20759991.2784    6191921.98643   4836442.44042  20759991.2694   20759986.5314
        56.0004         50.0004
  21158263.4544   12690812.35943   9890365.62542  21158264.5344   21158260.4154
        56.0004         48.0004
  21026093.7394   12321677.42743   9603112.88142  21026095.1604   21026091.6564
        56.0004         49.0004
  20136803.9364    5117650.13444   3991952.86842  20136804.8424   20136802.5484
        57.0004         51.0004
  22322463.0834  -14085002.63743 -10912358.35642  22322464.2394   22322462.0324
        51.0004         44.0004
  22234697.1824   -9395457.41843  -7316380.49342  22234699.2484   22234696.7474
        52.0004         45.0004
  24178040.4694   -2018059.86243  -1538510.08142  24178041.1474   24178036.1844
        43.0004         39.0004
 05  6 27 16 17  0.0000000  0  7G22G21G18G15G14G 3G19
  20758168.4814    6182344.45343   4828979.41642  20758168.6194   20758163.8094
        56.0004         50.0004
  21166753.0884   12735427.37843   9925130.55642  21166754.4364   21166750.4884
        55.0004         48.0004
  21033108.0654   12358536.05643   9631833.86742  21033109.3984   21033105.3454
        56.0004         49.0004
  20132969.4684    5097496.17344   3976248.47842  20132970.0054   20132966.6734
        57.0004         51.0004
  22304193.9604  -14181008.66043 -10987168.20142  22304195.6154   22304192.7054
        50.0004         44.0004
  22227674.9084   -9432360.49243  -7345136.13942  22227676.0124   22227674.8514
        53.0004         45.0004
  24161081.4704   -2107164.66143  -1607942.34242  24161083.4304   24161080.5244
        43.0004         39.0004
 05  6 27 16 17 30.0000000  0  7G22G21G18G15G14G 3G19
  20756396.6484    6173033.55743   4821724.16342  20756396.7654   20756392.4624
        56.0004         50.0004
  21175308.4164   12780385.26943   9960162.65242  21175309.1914   21175305.4914
        55.0004         48.0004
  21040158.3824   12395588.03143   9660705.50742  21040160.1334   21040156.1464
        56.0004         49.0004
  20129196.0334    5077672.09044   3960801.14342  20129197.2064   20129194.9494
        57.0004         51.0004
  22285982.0584  -14276713.00143 -11061742.97442  22285983.9374   22285980.1374
        50.0004         44.0004
  22220752.8244   -9468737.42543  -7373481.82242  22220754.2694   22220752.7174
        53.0004         46.0004
  24144179.4724   -2195984.32143  -1677152.49542  24144181.7744   24144177.7884
        44.0004         40.0004
 05  6 27 16 18  0.0000000  0  7G22G21G18G15G14G 3G19
  20754676.3534    6163991.35844   4814678.28042  20754676.4414   20754671.3894
        57.0004         50.0004
  21183929.3174   12825688.97043   9995464.20942  21183929.9744   21183926.5564
        55.0004         48.0004
  21047246.9504   12432835.20543   9689729.25542  21047248.3994   21047244.2004
        56.0004         49.0004
  20125487.7214    5058182.53144   3945614.46042  20125488.4954   20125485.9474
        57.0004         50.0004
  22267827.5454  -14372110.48943 -11136078.64142  22267829.9564   22267827.8284
        50.0004         44.0004
  22213931.7174   -9504584.21243  -7401414.40642  22213932.6234   22213931.0014
        52.0004         45.0004
  24127334.0804   -2284513.30643  -1746136.17142  24127334.8234   24127330.8414
        44.0004         41.0004
 05  6 27 16 18 30.0000000  0  7G22G21G18G15G14G 3G19
  20753006.6134    6155214.16544   4807838.89742  20753006.4634   20753001.5424
        57.0004         50.0004
  21192616.0714   12871336.26943  10031033.50642  21192616.6564   21192613.1674
        55.0004         48.0004
  21054371.7784   12470274.04543   9718902.35842  21054372.6284   21054368.6304
        56.0004         49.0004
  20121842.7914    5039026.16244   3930687.41642  20121843.5064   20121840.6194
        57.0004         50.0004
  22249733.4484  -14467201.25043 -11210175.29142  22249734.9284   22249732.6404
        50.0004         44.0004
  22207210.3744   -9539902.39543  -7428935.06942  22207212.1024   22207209.5524
        51.0004         45.0004
  24110540.3914   -2372751.38943  -1814893.12642  24110541.8704   24110540.4104
        40.0004         40.0004
 05  6 27 16 19  0.0000000  0  6G22G21G18G15G14G 3
  20751392.4024    6146731.22144   4801228.80242  20751392.7264   20751387.2524
        57.0004         50.0004
  21201373.2124   12917357.30643  10066894.02942  21201374.2384   21201370.8994
        56.0004         48.0004
  21061537.4524   12507933.86043   9748247.65042  21061538.8514   21061534.7074
        56.0004         49.0004
  20118266.7704    5020234.48744   3916044.54142  20118267.3644   20118265.1074
        57.0004         50.0004
  22231702.1284  -14561953.00443 -11284007.78642  22231703.6464   22231702.1524
        51.0004         44.0004
  22200595.8674   -9574661.09743  -7456019.76342  22200597.0304   22200595.6214
        52.0004         45.0004
 05  6 27 16 19 30.0000000  0  6G22G21G18G15G14G 3
  20749822.1464    6138479.25444   4794798.68442  20749822.6844   20749817.1494
        57.0004         50.0004
  21210189.9164   12963689.96343  10102997.36642  21210191.1714   21210187.2824
        55.0004         48.0004
  21068733.2034   12545750.61843   9777715.22742  21068734.8254   21068731.2504
        56.0004         49.0004
  20114748.8284    5001746.65244   3901638.42842  20114749.3764   20114746.3724
        57.0004         50.0004
  22213724.7464  -14656425.60143 -11357622.75842  22213726.1094   22213723.7544
        51.0004         44.0004
  22194077.1344   -9608921.64643  -7482716.30642  22194077.8564   22194075.3414
        53.0004         46.0004
 05  6 27 16 20  0.0000000  0  7G22G21G18G15G14G 3G19
  20748299.8804    6130481.34944   4788566.54242  20748300.7484   20748294.3784
        57.0004         50.0004
  21219071.0664   13010359.24743  10139363.02642  21219071.9924   21219067.4854
        55.0004         48.0004
  21075965.0034   12583747.68043   9807323.30342  21075966.1374   21075961.6424
        56.0004         49.0004
  20111292.7004    4983588.63743   3887489.30742  20111293.5084   20111291.5154
        56.0004         50.0004
  22195805.4884  -14750592.13843 -11430999.24342  22195806.3744   22195805.2914
        51.0004         44.0004
  22187657.0124   -9642658.29443  -7509004.60442  22187658.0714   22187655.6474
        54.0004         46.0004
  24060509.518
        44.000
 05  6 27 16 20 30.0000000  0  7G22G21G18G15G14G 3G19
  20746828.8224    6122747.83744   4782540.41742  20746829.3914   20746823.5574
        57.0004         50.0004
  21228018.1434   13057375.52243  10175999.06642  21228019.3894   21228014.5064
        56.0004         47.0004
  21083231.3924   12621934.56043   9837079.29142  21083232.4744   21083228.7144
        56.0004         49.0004
  20107903.8614    4965772.60944   3873606.67042  20107904.0954   20107901.0564
        57.0004         50.0004
  22177946.6824  -14844439.74543 -11504127.19342  22177947.9384   22177945.3004
        51.0004         44.0004
  22181338.7604   -9675859.51043  -7534875.70042  22181339.7684   22181337.7164
        53.0004         46.0004
  24043940.9904   -1205871.25553   -900989.16152  24043942.1584   24043940.6674
        44.0004         40.0004
 05  6 27 16 21  0.0000000  0  7G22G21G18G15G14G 3G19
  20745408.6524    6115286.33444   4776726.24742  20745408.9994   20745403.4864
        57.0004         50.0004
  21237032.8014   13104747.77943  10212912.48542  21237033.8234   21237028.8964
        56.0004         48.0004
  21090535.4504   12660319.00143   9866989.21442  21090536.9754   21090532.8494
        56.0004         49.0004
  20104578.8664    4948308.61843   3859998.35342  20104579.8204   20104578.2864
        56.0004         50.0004
  22160151.4774  -14937957.25743 -11576997.94142  22160153.1054   22160150.5174
        52.0004         45.0004
  22175124.3004   -9708515.62843  -7560322.04342  22175124.4664   22175122.7574
        53.0004         45.0004
  24027435.5204   -1292614.07443   -968581.00242  24027436.9504   24027435.7244
        43.0004         39.0004
 05  6 27 16 21 30.0000000  0  7G22G21G18G15G14G 3G19
  20744036.4784    6108075.74444   4771107.59142  20744036.7124   20744031.4434
        57.0004         50.0004
  21246111.0594   13152456.16743  10250087.82342  21246112.4224   21246108.1254
        55.0004         48.0004
  21097874.0804   12698880.22543   9897036.89042  21097875.2474   21097870.7864
        56.0004         49.0004
  20101319.9634    4931177.93044   3846649.74642  20101320.3734   20101317.6564
        57.0004         50.0004
  22142414.8234  -15031162.65743 -11649625.48642  22142416.3904   22142413.4484
        51.0004         45.0004
  22169010.8794   -9740645.77343  -7585358.54142  22169011.6514   22169008.8724
        53.0004         45.0004
  24010984.9754   -1379059.91143  -1035941.36142  24010986.7064   24010984.2134
        43.0004         40.0004
 05  6 27 16 22  0.0000000  0  7G22G21G18G15G14G 3G19
  20742714.4814    6101128.14044   4765693.85242  20742714.7354   20742708.8724
        57.0004         50.0004
  21255256.1234   13200513.85743  10287535.34142  21255257.3834   21255253.3284
        55.0004         47.0004
  21105247.5894   12737629.18343   9927230.86442  21105248.6774   21105244.6904
        56.0004         49.0004
  20098126.1774    4914395.02944   3833572.15442  20098126.3414   20098124.0094
        57.0004         51.0004
  22124740.0604  -15124040.52343 -11721997.80042  22124742.5554   22124739.4524
        51.0004         45.0004
  22162998.9754   -9772236.12243  -7609974.41842  22163000.2344   22162997.4934
        52.0004         45.0004
  23994597.0524   -1465193.30743  -1103058.26242  23994596.1664   23994593.9924
        45.0004         41.0004
 05  6 27 16 22 30.0000000  0  7G22G21G18G15G14G 3G19
  20741441.5924    6094438.45944   4760481.10842  20741442.0584   20741435.8664
        57.0004         50.0004
  21264467.2914   13248916.59243  10325251.71842  21264468.4714   21264463.7914
        56.0004         48.0004
  21112654.9504   12776560.83043   9957567.18442  21112656.9464   21112653.2844
        55.0004         49.0004
  20094998.3054    4897957.19744   3820763.44242  20094998.9904   20094996.1294
        57.0004         51.0004
  22107128.2704  -15216592.67243 -11794116.31842  22107130.7594   22107127.8484
        52.0004         45.0004
  22157089.4794   -9803289.91343  -7634172.19942  22157090.7864   22157087.4434
        52.0004         44.0004
  23978265.3594   -1551015.65843  -1169932.81042  23978264.3234   23978262.7714
        43.0004         40.0004
 05  6 27 16 23  0.0000000  0  7G22G21G18G15G14G 3G19
  20740217.9444    6088007.30644   4755469.80842  20740218.4414   20740212.2094
        57.0004         50.0004
  21273743.5144   13297666.21343  10363238.40042  21273744.8314   21273741.7034
        55.0004         48.0004
  21120099.0074   12815675.65043   9988046.23742  21120099.8924   21120096.5664
        55.0004         49.0004
  20091936.0634    4881867.53544   3808226.04042  20091936.9274   20091934.2384
        58.0004         51.0004
  22089578.6084  -15308815.34943 -11865978.11442  22089580.6814   22089577.3534
        52.0004         45.0004
  22151282.7084   -9833804.68643  -7657949.97242  22151284.0764   22151280.9594
        52.0004         44.0004
  23961992.5164   -1636522.84543  -1236561.72942  23961993.0804   23961990.7924
        44.0004         40.0004
 05  6 27 16 23 30.0000000  0  7G22G21G18G15G14G 3G19
  20739043.1444    6081834.43544   4750659.77142  20739043.6074   20739038.1574
        57.0004         50.0004
  21283086.2324   13346763.56943  10401496.05342  21283087.0094   21283083.9984
        55.0004         47.0004
  21127577.1064   12854973.57143  10018667.96342  21127578.4904   21127574.7094
        55.0004         49.0004
  20088940.7744    4866127.96744   3795961.43342  20088942.0294   20088939.4064
        57.0004         51.0004
  22072093.1144  -15400705.57443 -11937580.85042  22072095.0984   22072091.8624
        52.0004         45.0004
  22145579.0804   -9863779.15043  -7681306.71542  22145580.3724   22145576.4864
        52.0004         45.0004
  23945781.5924   -1721712.13543  -1302943.02842  23945783.1484   23945779.5434
        46.0004         41.0004
 05  6 27 16 24  0.0000000  0  7G22G21G18G15G14G 3G19
  20737916.8494    6075917.38243   4746049.08042  20737917.4364   20737911.5934
        56.0004         50.0004
  21292495.5464   13396207.14043  10440023.48142  21292496.4864   21292492.8124
        55.0004         48.0004
  21135089.5884   12894451.87443  10049430.26642  21135090.7764   21135087.4504
        55.0004         49.0004
  20086012.7244    4850738.50044   3783969.62942  20086013.5214   20086010.8034
        57.0004         51.0004
  22054671.0534  -15492262.58643 -12008923.93842  22054672.4954   22054669.3934
        53.0004         46.0004
  22139978.4894   -9893213.90543  -7704242.90442  22139980.0144   22139975.7234
        53.0004         45.0004
  23929631.3504   -1806582.51743  -1369075.77642  23929633.2674   23929629.5924
        45.0004         41.0004
 05  6 27 16 24 30.0000000  0  7G22G21G18G15G14G 3G19
  20736838.5654    6070253.37743   4741635.56342  20736839.0624   20736834.3264
        56.0004         50.0004
  21301969.8554   13445995.11343  10478819.26042  21301970.6494   21301967.5534
        55.0004         48.0004
  21142635.7424   12934107.41943  10080330.66142  21142637.2234   21142633.6194
        55.0004         49.0004
  20083150.8824    4835698.69644   3772250.29742  20083151.3084   20083149.2844
        57.0004         51.0004
  22037311.1314  -15583485.98743 -12080007.07042  22037313.8664   22037309.3524
        52.0004         46.0004
  22134479.5434   -9922109.68743  -7726759.11042  22134481.7314   22134477.5184
        54.0004         46.0004
  23913543.8274   -1891133.01443  -1434959.27442  23913544.9594   23913540.5854
        47.0004         40.0004
 05  6 27 16 25  0.0000000  0  7G22G21G18G15G14G 3G19
  20735809.1474    6064842.35843   4737419.16942  20735809.4954   20735804.0884
        56.0004         50.0004
  21311510.0574   13496128.98443  10517884.58742  21311511.1374   21311508.0094
        55.0004         48.0004
  21150215.6894   12973940.14343  10111369.11342  21150217.0644   21150212.9454
        55.0004         48.0004
  20080355.8904    4821010.91644   3760805.26542  20080356.4934   20080354.2294
        57.0004         51.0004
  22020015.4154  -15674372.24443 -12150827.49342  22020017.3164   22020014.3064
        52.0004         45.0004
  22129084.1104   -9950464.76443  -7748854.00142  22129085.2014   22129082.1364
        54.0004         46.0004
  23897513.0074   -1975360.12543  -1500590.87742  23897515.1914   23897512.5624
        47.0004         41.0004
 05  6 27 16 25 30.0000000  0  7G22G21G18G15G14G 3G19
  20734827.3144    6059686.09543   4733401.29742  20734828.2944   20734823.0374
        56.0004         50.0004
  21321117.0454   13546611.15243  10557221.31842  21321117.9084   21321114.1504
        55.0004         48.0004
  21157829.4484   13013951.79643  10142547.00042  21157830.9524   21157827.4064
        55.0004         48.0004
  20077628.5904    4806678.99444   3749637.53442  20077629.3574   20077626.5434
        57.0004         51.0004
  22002785.3134  -15764916.75843 -12221381.61842  22002787.6584   22002785.4324
        52.0004         45.0004
  22123791.2084   -9978275.88943  -7770525.01842  22123792.0344   22123789.4754
        54.0004         46.0004
  23881548.5134   -2059259.13243  -1565966.68542  23881549.4584   23881546.2594
        46.0004         41.0004
 05  6 27 16 26  0.0000000  0  7G22G21G18G15G14G 3G19
  20733894.4484    6054778.83043   4729577.45142  20733894.6944   20733889.5024
        56.0004         50.0004
  21330788.3644   13597436.84143  10596825.72642  21330789.7184   21330785.4324
        56.0004         47.0004
  21165476.8284   13054136.28643  10173859.55942  21165477.8804   21165473.9574
        55.0004         48.0004
  20074967.8874    4792699.77144   3738744.63142  20074968.5074   20074966.5244
        57.0004         51.0004
  21985620.4414  -15855122.05143 -12291671.42542  21985622.5074   21985619.9374
        52.0004         46.0004
  22118601.3034  -10005547.18743  -7791775.37742  22118602.9354   22118600.4634
        54.0004         46.0004
  23865646.7504   -2142832.17943  -1631088.51242  23865646.9974   23865642.6604
        49.0004         41.0004
 05  6 27 16 26 30.0000000  0  7G22G21G18G15G14G 3G19
  20733007.9984    6050123.72343   4725950.08442  20733008.5404   20733003.7374
        56.0004         50.0004
  21340526.4574   13648610.16043  10636701.01342  21340527.3874   21340523.4994
        56.0004         47.0004
  21173156.8174   13094496.31643  10205308.89842  21173157.9964   21173154.5664
        55.0004         48.0004
  20072376.6854    4779078.59844   3728130.71442  20072376.9724   20072374.4234
        57.0004         51.0004
  21968520.9484  -15944981.83443 -12361692.00242  21968523.0214   21968519.4104
        52.0004         46.0004
  22113515.6214  -10032274.15743  -7812601.58142  22113517.1684   22113513.3404
        54.0004         45.0004
  23849805.5084   -2226072.82143  -1695951.38842  23849806.1074   23849802.6564
        47.0004         40.0004
 05  6 27 16 27  0.0000000  0  7G22G21G18G15G14G 3G19
  20732170.5094    6045720.41543   4722518.93142  20732171.0824   20732165.6934
        56.0004         50.0004
  21350330.6954   13700131.80543  10676847.73542  21350332.0014   21350328.0034
        55.0004         47.0004
  21180870.6184   13135031.88643  10236895.03742  21180871.6154   21180867.5574
        55.0004         48.0004
  20069853.2724    4765817.50344   3717797.39642  20069853.5764   20069851.2354
        57.0004         50.0004
  21951486.0954  -16034493.36043 -12431441.20042  21951488.6094   21951487.0814
        52.0004         46.0004
  22108533.9004  -10058455.06743  -7833002.29342  22108534.7174   22108529.8824
        53.0004         45.0004
  23834027.2184   -2308977.77943  -1760552.61842  23834030.0154   23834026.0574
        43.0004         38.0004
 05  6 27 16 27 30.0000000  0  7G22G21G18G15G14G 3G19
  20731379.2414    6041568.09543   4719283.34742  20731380.4454   20731375.5944
        56.0004         50.0004
  21360201.4604   13752001.67043  10717265.79142  21360202.3914   21360197.8014
        55.0004         47.0004
  21188617.5034   13175741.79543  10268617.01842  21188618.7404   21188615.1674
        55.0004         48.0004
  20067398.1424    4752918.07343   3707745.88442  20067398.6914   20067396.0674
        56.0004         50.0004
  21934519.2854  -16123654.29043 -12500917.20342  21934521.5474   21934519.0724
        51.0004         45.0004
  22103656.0454  -10084089.51843  -7852977.20242  22103657.8674   22103651.9674
        53.0004         44.0004
  23818315.9544   -2391544.81343  -1824890.50242  23818315.9594   23818314.4384
        44.0004         38.0004
 05  6 27 16 28  0.0000000  0  7G22G21G18G15G14G 3G19
  20730635.3504    6037658.83743   4716237.15442  20730636.1124   20730631.6154
        56.0004         50.0004
  21370136.3784   13804213.12543  10757950.02342  21370137.6304   21370132.7794
        55.0004         46.0004
  21196396.1704   13216618.38443  10300468.87542  21196397.4774   21196393.2074
        55.0004         48.0004
  20065011.6484    4740374.64844   3697971.78842  20065011.8864   20065009.1604
        57.0004         50.0004
  21917618.6634  -16212469.28943 -12570123.66542  21917619.4254   21917618.7424
        51.0004         46.0004
  22098879.8054  -10109183.44843  -7872530.93142  22098880.7474   22098877.2404
        53.0004         45.0004
  23802667.9194   -2473778.28243  -1888968.55342  23802669.5024   23802666.6794
        45.0004         40.0004
 05  6 27 16 28 30.0000000  0  7G22G21G18G15G14G 3G19
  20729940.3814    6034003.54943   4713388.86342  20729941.0484   20729935.8704
        56.0004         50.0004
  21380139.4834   13856777.95043  10798909.59642  21380140.3144   21380135.8654
        55.0004         47.0004
  21204207.8104   13257672.05543  10332458.72742  21204209.0484   21204205.6844
        55.0004         48.0004
  20062694.3894    4728200.42644   3688485.37742  20062695.1854   20062692.3154
        57.0004         50.0004
  21900786.7614  -16300924.39143 -12639049.66642  21900788.1724   21900785.4254
        52.0004         46.0004
  22094209.6774  -10133724.35843  -7891653.72142  22094209.7014   22094207.8224
        52.0004         45.0004
  23787085.0554   -2555663.98443  -1952775.53642  23787086.4654   23787082.6994
        46.0004         41.0004
 05  6 27 16 29  0.0000000  0  7G22G21G18G15G14G 3G19
  20729291.1794    6030589.66443   4710728.67642  20729291.3754   20729286.1554
        56.0004         50.0004
  21390206.9634   13909684.64743  10840135.56642  21390207.7614   21390204.0434
        54.0004         47.0004
  21212051.8634   13298890.64443  10364577.07642  21212053.0754   21212049.9354
        55.0004         48.0004
  20060446.1664    4716385.25544   3679278.74642  20060446.7154   20060444.4784
        57.0004         51.0004
  21884021.3544  -16389028.69343 -12707702.33042  21884021.9194   21884019.5214
        52.0004         46.0004
  22089642.4074  -10157723.29943  -7910354.19442  22089643.4564   22089643.4954
        51.0004         45.0004
  23771567.1324   -2637210.70443  -2016318.42942  23771568.9214   23771565.9454
        45.0004         40.0004
 05  6 27 16 29 30.0000000  0  7G22G21G18G15G14G 3G19
  20728688.9724    6027423.42444   4708261.47042  20728689.4004   20728683.8554
        57.0004         50.0004
  21400341.5164   13962940.57543  10881633.66642  21400342.3774   21400338.5194
        54.0004         46.0004
  21219928.3974   13340280.03743  10396828.52542  21219929.4324   21219925.8074
        55.0004         49.0004
  20058267.7714    4704937.76744   3670358.61542  20058268.4954   20058265.6654
        57.0004         51.0004
  21867322.8534  -16476773.08543 -12776074.52842  21867325.3624   21867322.9414
        52.0004         46.0004
  22085180.6804  -10181172.41643  -7928626.22742  22085181.4244   22085180.1994
        53.0004         46.0004
  23756115.9954   -2718408.94843  -2079589.77742  23756115.8314   23756114.4964
        44.0004         40.0004
 05  6 27 16 30  0.0000000  0  7G22G21G18G15G14G 3G19
  20728131.1284    6024497.89643   4705981.82342  20728132.0404   20728127.3794
        56.0004         50.0004
  21410541.3574   14016539.18743  10923398.78142  21410542.1874   21410538.1514
        54.0004         47.0004
  21227835.8344   13381832.89743  10429207.35542  21227837.2364   21227832.9774
        56.0004         49.0004
  20056158.3164    4693852.98144   3661721.10542  20056159.1384   20056156.6944
        57.0004         51.0004
  21850694.0134  -16564161.71143 -12844169.53142  21850696.0654   21850692.8364
        53.0004         46.0004
  22080822.2114  -10204077.56643  -7946474.39942  22080822.9464   22080822.0014
        53.0004         46.0004
  23740729.3574   -2799262.97143  -2142592.90942  23740729.4544   23740729.8754
        44.0004         38.0004
 05  6 27 16 30 30.0000000  0  7G22G21G18G15G14G 3G19
  20727621.7334    6021820.00143   4703895.14442  20727622.4374   20727617.5144
        56.0004         50.0004
  21420807.3834   14070488.53843  10965437.20842  21420808.3324   21420804.5644
        54.0004         46.0004
  21235775.2614   13423556.01843  10461718.84742  21235776.8404   21235772.8304
        56.0004         49.0004
  20054119.7634    4683140.41844   3653373.64342  20054120.6524   20054117.6194
        57.0004         51.0004
  21834135.1434  -16651184.06343 -12911979.12042  21834136.0384   21834133.6064
        53.0004         46.0004
  22076568.4904  -10226430.15943  -7963892.01442  22076570.2584   22076568.1914
        53.0004         46.0004
  23725410.7524   -2879761.69943  -2205319.21342  23725411.7324   23725407.2294
        44.0004         37.0004
 05  6 27 16 31  0.0000000  0  7G22G21G18G15G14G 3G19
  20727158.1334    6019381.58844   4701995.08142  20727158.7674   20727153.4704
        57.0004         50.0004
  21431139.0984   14124781.51743  11007743.39042  21431139.5044   21431136.7534
        54.0004         47.0004
  21243745.8024   13465441.35443  10494356.73142  21243747.4224   21243743.9944
        55.0004         49.0004
  20052150.4314    4672794.27744   3645311.70542  20052151.3144   20052149.2024
        57.0004         51.0004
  21817642.5484  -16737845.53343 -12979507.49842  21817644.8844   21817643.0134
        53.0004         46.0004
  22072419.4474  -10248236.81043  -7980884.22042  22072420.8074   22072417.5854
        53.0004         46.0004
  23710160.2614   -2959910.10543  -2267772.63542  23710161.8884   23710158.2274
        45.0004         40.0004
 05  6 27 16 31 30.0000000  0  7G22G21G18G15G14G 3G19
  20726740.8544    6017185.70744   4700283.99642  20726740.9284   20726735.4654
        57.0004         50.0004
  21441537.0404   14179421.99843  11050320.35342  21441538.3204   21441534.2844
        54.0004         47.0004
  21251747.7984   13507491.83743  10527123.30742  21251748.8124   21251745.4144
        55.0004         48.0004
  20050253.3784    4662819.74944   3637539.33442  20050254.1074   20050251.5194
        57.0004         51.0004
  21801221.4654  -16824139.96243 -13046749.87842  21801223.4544   21801220.4304
        53.0004         46.0004
  22068374.7964  -10269493.19143  -7997447.64842  22068375.2994   22068371.8764
        53.0004         45.0004
  23694976.5824   -3039702.19443  -2329948.23042  23694977.8254   23694975.0494
        47.0004         41.0004
 05  6 27 16 32  0.0000000  0  7G22G21G18G15G14G 3G19
  20726368.4994    6015230.38844   4698760.36642  20726368.7054   20726363.6924
        57.0004         50.0004
  21452000.6114   14234408.76743  11093167.16642  21452001.4144   21451997.8794
        54.0004         47.0004
  21259780.0554   13549705.65543  10560017.16242  21259782.0264   21259778.3694
        55.0004         48.0004
  20048425.9894    4653217.11344   3630056.75342  20048426.3464   20048424.3954
        57.0004         51.0004
  21784870.6494  -16910066.33543 -13113705.45942  21784872.0394   21784869.1944
        53.0004         46.0004
  22064433.8034  -10290199.70343  -8013582.61042  22064435.1054   22064431.7434
        53.0004         45.0004
  23679860.2314   -3119136.36743  -2391844.97442  23679861.3834   23679858.9774
        46.0004         42.0004
 05  6 27 16 32 30.0000000  0  7G22G21G18G15G14G 3G19
  20726043.1044    6013517.80744   4697425.88942  20726043.3204   20726037.1344
        57.0004         50.0004
  21462530.3144   14289744.78643  11136286.12342  21462531.6814   21462527.8884
        55.0004         47.0004
  21267845.5394   13592084.82243  10593039.85042  21267846.5974   21267843.4744
        55.0004         48.0004
  20046670.3094    4643990.76444   3622867.38342  20046670.7534   20046668.1694
        57.0004         51.0004
  21768590.7724  -16995619.52043 -13180370.23742  21768592.5834   21768589.6614
        53.0004         46.0004
  22060599.1224  -10310352.97643  -8029286.46942  22060600.4164   22060596.2654
        53.0004         45.0004
  23664814.3904   -3198207.13143  -2453458.52242  23664815.5444   23664811.1734
        49.0004         42.0004
 05  6 27 16 33  0.0000000  0  7G22G21G18G15G14G 3G19
  20725761.8374    6012041.52844   4696275.53742  20725762.0234   20725757.1724
        57.0004         50.0004
  21473126.0084   14345424.66843  11179673.02442  21473126.8064   21473123.5814
        54.0004         47.0004
  21275940.3924   13634622.96143  10626186.42142  21275941.5324   21275938.0044
        56.0004         49.0004
  20044985.1344    4635136.61744   3615968.04342  20044985.7404   20044983.0504
        57.0004         51.0004
  21752379.8324  -17080802.70443 -13246746.71642  21752381.5594   21752379.5734
        52.0004         46.0004
  22056866.8404  -10329957.89743  -8044563.04742  22056868.2504   22056866.2644
        52.0004         44.0004
  23649835.5474   -3276917.67243  -2514791.41442  23649837.6284   23649832.7014
        49.0004         42.0004
 05  6 27 16 33 30.0000000  0  7G22G21G18G15G14G 3G19
  20725525.5524    6010803.65943   4695310.96842  20725526.1144   20725520.9254
        56.0004         50.0004
  21483787.4934   14401451.40943  11223330.19342  21483788.1814   21483784.5674
        54.0004         47.0004
  21284065.6754   13677321.86143  10659458.26242  21284066.7294   21284063.9814
        56.0004         49.0004
  20043371.7204    4626659.36244   3609362.37042  20043372.6144   20043370.1994
        57.0004         51.0004
  21736242.0834  -17165610.65443 -13312830.79842  21736243.1204   21736241.1674
        52.0004         46.0004
  22053241.3414  -10349010.86543  -8059409.53242  22053242.6164   22053241.2944
        51.0004         45.0004
  23634926.7104   -3355262.12643  -2575839.03842  23634928.8484   23634922.5744
        49.0004         41.0004
 05  6 27 16 34  0.0000000  0  7G22G21G18G15G14G 3G19
  20725336.2834    6009807.95744   4694535.08842  20725336.6854   20725331.7244
        57.0004         50.0004
  21494515.6854   14457829.38743  11267261.04742  21494516.6654   21494513.7854
        54.0004         47.0004
  21292222.2174   13720185.31943  10692858.32442  21292223.2344   21292219.5924
        55.0004         48.0004
  20041831.7164    4618564.65044   3603054.79342  20041832.4864   20041829.7124
        57.0004         51.0004
  21720176.2034  -17250037.01343 -13378617.54142  21720177.4194   21720175.0394
        52.0004         46.0004
  22049723.0484  -10367507.29343  -8073822.37042  22049723.8134   22049719.7984
        52.0004         45.0004
  23620089.6504   -3433234.11243  -2636596.43442  23620089.7384   23620087.8684
        48.0004         42.0004
 05  6 27 16 34 30.0000000  0  7G22G21G18G15G14G 3G19
  20725191.1244    6009043.76843   4693939.60842  20725191.6574   20725186.4994
        56.0004         50.0004
  21505309.1814   14514548.70043  11311457.87442  21505310.3064   21505307.6114
        54.0004         47.0004
  21300408.5104   13763202.68543  10726378.31842  21300409.5114   21300405.8604
        56.0004         48.0004
  20040362.9104    4610844.16044   3597038.82142  20040363.1114   20040360.8624
        57.0004         51.0004
  21704181.2234  -17334089.16443 -13444112.68142  21704182.9344   21704180.3284
        52.0004         46.0004
  22046307.3494  -10385456.20443  -8087808.55042  22046308.5424   22046306.4684
        53.0004         45.0004
  23605322.1634   -3510840.63743  -2697069.03642  23605322.9694   23605320.4234
        50.0004         42.0004
 05  6 27 16 35  0.0000000  0  7G22G21G18G15G14G 3G19
  20725091.3534    6008515.68144   4693528.10942  20725091.6204   20725085.5894
        57.0004         50.0004
  21516168.8384   14571615.09143  11355925.14842  21516169.2164   21516166.4854
        54.0004         47.0004
  21308623.6394   13806378.50943  10760021.79442  21308625.3124   21308622.0614
        55.0004         48.0004
  20038965.7214    4603504.59444   3591319.67442  20038966.7984   20038964.1224
        57.0004         51.0004
  21688259.5874  -17417759.65443 -13509310.42942  21688261.2694   21688257.6604
        53.0004         46.0004
  22042996.7634  -10402851.87643  -8101363.60342  22042997.7404   22042994.6364
        53.0004         45.0004
  23590624.5504   -3588073.69743  -2757250.65342  23590625.6804   23590622.3694
        49.0004         42.0004
 05  6 27 16 35 30.0000000  0  7G22G21G18G15G14G 3G19
  20725035.5534    6008223.40044   4693300.36142  20725035.6704   20725030.2744
        57.0004         50.0004
  21527094.1884   14629028.55843  11400662.88242  21527094.1084   21527091.4574
        54.0004         46.0004
  21316870.6174   13849711.96743  10793788.09942  21316871.6534   21316867.4634
        55.0004         48.0004
  20037642.2234    4596547.85444   3585898.81942  20037642.6584   20037640.1894
        57.0004         51.0004
  21672410.9124  -17501045.94143 -13574208.80342  21672412.6794   21672409.6174
        53.0004         46.0004
  22039790.4914  -10419693.61343  -8114487.02742  22039792.7404   22039790.0184
        52.0004         45.0004
  23575999.3494   -3664930.83043  -2817139.32342  23576000.4664   23575996.5184
        50.0004         42.0004
 05  6 27 16 36  0.0000000  0  7G22G21G18G15G14G 3G19
  20725024.4494    6008164.66744   4693254.58642  20725024.7184   20725018.7424
        57.0004         50.0004
  21538086.0214   14686788.10443  11445670.28042  21538086.2374   21538082.9064
        54.0004         46.0004
  21325146.0604   13893201.27943  10827675.86842  21325147.3004   21325143.3314
        55.0004         48.0004
  20036391.4054    4589974.11044   3580776.41542  20036391.7904   20036389.3004
        57.0004         51.0004
  21656634.7844  -17583947.06843 -13638807.05042  21656636.6144   21656634.1834
        53.0004         46.0004
  22036691.9704  -10435982.11843  -8127179.36042  22036693.9874   22036691.2294
        53.0004         46.0004
  23561444.0114   -3741410.35943  -2876733.77342  23561447.6314   23561444.9124
        49.0004         43.0004
 05  6 27 16 36 30.0000000  0  7G22G21G18G15G14G 3G19
  20725057.1254    6008338.79744   4693390.27242  20725057.4534   20725052.2194
        57.0004         50.0004
  21549142.9154   14744893.98443  11490947.56842  21549143.9944   21549140.2284
        54.0004         46.0004
  21333451.6124   13936846.27943  10861684.93242  21333452.4354   21333449.0964
        55.0004         48.0004
  20035213.4184    4583784.88744   3575953.63142  20035214.0614   20035211.7944
        57.0004         51.0004
  21640932.4394  -17666460.74943 -13703103.38042  21640935.0144   21640932.3784
        52.0004         46.0004
  22033697.8404  -10451716.81143  -8139440.17742  22033700.1614   22033696.1484
        53.0004         46.0004
  23546964.0184   -3817509.94143  -2936032.10842  23546965.0384   23546961.9444
        49.0004         43.0004
 05  6 27 16 37  0.0000000  0  7G22G21G18G15G14G 3G19
  20725134.4944    6008745.21344   4693706.94942  20725135.1964   20725128.9734
        57.0004         50.0004
  21560265.3404   14803345.96143  11536494.54142  21560266.6454   21560262.8434
        54.0004         46.0004
  21341786.0204   13980645.82543  10895814.41642  21341787.4404   21341783.5664
        55.0004         48.0004
  20034109.4074    4577981.76744   3571431.70742  20034109.6524   20034107.5904
        57.0004         51.0004
  21625305.4114  -17748584.68743 -13767096.01742  21625306.1134   21625303.8914
        53.0004         46.0004
  22030809.0884  -10466897.42743  -8151269.23542  22030810.7514   22030808.1964
        52.0004         46.0004
  23532555.9214   -3893227.00943  -2995032.39042  23532556.9904   23532550.9234
        50.0004         43.0004
 05  6 27 16 37 30.0000000  0  7G22G21G18G15G14G 3G19
  20725251.2804    6009358.06544   4694184.49442  20725251.4274   20725246.0024
        57.0004         50.0004
  21571450.3004   14862118.73643  11582291.46842  21571451.0064   21571446.6404
        54.0004         46.0004
  21350145.3844   14024573.41343  10930043.67442  21350146.7754   21350143.1054
        55.0004         48.0004
  20033073.3754    4572541.36344   3567192.42642  20033074.2024   20033072.1424
        57.0004         51.0004
  21609747.7354  -17830341.93943 -13830802.93242  21609749.5094   21609745.8454
        53.0004         46.0004
  22028020.8114  -10481548.23643  -8162685.45242  22028022.0824   22028019.7084
        52.0004         45.0004
  23518216.0634   -3968584.10643  -3053752.20942  23518217.3354   23518210.2364
        50.0004         42.0004
 05  6 27 16 38  0.0000000  0  7G22G21G18G15G14G 3G19
  20725416.5374    6010225.49444   4694860.40842  20725416.7274   20725410.9744
        57.0004         50.0004
  21582704.2904   14921261.36243  11628376.58742  21582705.6934   21582701.9334
        54.0004         46.0004
  21358538.3064   14068678.34443  10964411.13242  21358539.7704   21358535.9844
        55.0004         48.0004
  20032116.9114    4567513.40244   3563274.52342  20032117.7094   20032114.7214
        57.0004         51.0004
  21594267.9334  -17911681.70943 -13894184.53342  21594270.4944   21594267.6074
        53.0004         46.0004
  22025343.5154  -10495620.24743  -8173650.66842  22025344.1634   22025342.7244
        53.0004         45.0004
  23503953.5864   -4043530.08343  -3112151.66742  23503955.1274   23503950.0204
        47.0004         41.0004
 05  6 27 16 38 30.0000000  0  7G22G21G18G15G14G 3G19
  20725624.1924    6011322.22443   4695714.99842  20725624.9964   20725619.9014
        56.0004         50.0004
  21594024.8564   14980749.49643  11674730.95042  21594025.5694   21594021.9864
        54.0004         46.0004
  21366960.2604   14112934.51243  10998896.43542  21366961.6604   21366957.4814
        55.0004         48.0004
  20031235.0344    4562875.04444   3559660.20842  20031235.5434   20031232.5214
        57.0004         51.0004
  21578865.4474  -17992625.97243 -13957257.95642  21578867.0474   21578864.5434
        53.0004         46.0004
  22022770.5114  -10509137.87043  -8184183.89842  22022772.1984   22022769.1604
        53.0004         45.0004
  23489766.0384   -4118086.86143  -3170247.83842  23489767.6614   23489764.0044
        47.0004         41.0004
 05  6 27 16 39  0.0000000  0  8G22G21G18G15G14G 3G19G 9
  20725876.5034    6012643.79143   4696744.78342  20725876.7634   20725871.1574
        56.0004         50.0004
  21605409.9844   15040579.42743  11721351.64242  21605411.0184   21605407.3484
        54.0004         47.0004
  21375409.6054   14157337.48343  11033496.13642  21375410.6994   21375407.3644
        55.0004         48.0004
  20030425.1214    4558624.34944   3556347.97442  20030426.0934   20030423.6464
        57.0004         51.0004
  21563537.5734  -18073176.44643 -14020024.52542  21563538.9094   21563536.5634
        53.0004         47.0004
  22020303.2814  -10522104.08643  -8194287.47842  22020304.1954   22020301.8784
        52.0004         45.0004
  23475652.9164   -4192255.69843  -3228041.73042  23475654.3684   23475648.2714
        50.0004         42.0004
  23276326.341
        42.000
 05  6 27 16 39 30.0000000  0  8G22G21G18G15G14G 3G19G 9
  20726170.9434    6014194.74343   4697953.31442  20726171.6704   20726166.3914
        56.0004         50.0004
  21616861.0364   15100756.06343  11768242.51242  21616862.3594   21616858.2544
        54.0004         46.0004
  21383887.8544   14201892.00443  11068213.91542  21383889.1254   21383885.5944
        55.0004         48.0004
  20029691.5224    4554767.96144   3553342.98742  20029692.1564   20029689.7684
        57.0004         51.0004
  21548285.6654  -18153325.64243 -14082478.40942  21548287.3974   21548284.0364
        53.0004         47.0004
  22017941.6324  -10534513.42143  -8203957.11742  22017942.9384   22017941.1674
        52.0004         45.0004
  23461613.9224   -4266028.55443  -3285527.09542  23461615.8134   23461611.4524
        50.0004         43.0004
  23270592.172
        43.000
 05  6 27 16 40  0.0000000  0  8G22G21G18G15G14G 3G19G 9
  20726510.6374    6015975.12043   4699340.62242  20726511.0974   20726505.3664
        56.0004         50.0004
  21628378.5744   15161280.27643  11815404.21742  21628380.2314   21628376.3874
        54.0004         46.0004
  21392394.8254   14246598.53743  11103050.14842  21392396.3234   21392393.2434
        55.0004         48.0004
  20029033.0774    4551307.89844   3550646.83242  20029033.5314   20029031.7104
        57.0004         51.0004
  21533110.3384  -18233070.93543 -14144617.56842  21533112.2244   21533109.8374
        53.0004         47.0004
  22015685.9004  -10546364.89043  -8213192.04342  22015687.7104   22015686.5724
        52.0004         45.0004
  23447652.1074   -4339402.36943  -3342701.50642  23447653.0854   23447648.8714
        50.0004         43.0004
  23264956.7724   -1608396.03853  -1225717.66152  23264960.9874   23264954.2414
        40.0004         34.0004
 05  6 27 16 40 30.0000000  0  8G22G21G18G15G14G 3G19G 9
  20726891.2534    6017978.56643   4700901.74142  20726891.9354   20726886.5854
        56.0004         50.0004
  21639960.5344   15222146.35943  11862832.29342  21639961.3024   21639958.4774
        53.0004         46.0004
  21400929.9344   14291450.29343  11137999.53642  21400931.5684   21400928.7374
        55.0004         48.0004
  20028449.2004    4548239.68744   3548256.01042  20028449.9124   20028447.6254
        57.0004         51.0004
  21518011.9244  -18312415.95443 -14206444.81942  21518013.6554   21518010.6444
        53.0004         47.0004
  22013536.7894  -10557664.03543  -8221996.56542  22013537.0554   22013535.5364
        53.0004         46.0004
  23433765.5554   -4412380.72543  -3399567.74742  23433767.3674   23433763.0244
        48.0004         42.0004
  23259428.1584   -1637465.19353  -1248368.77452  23259433.1564   23259429.6154
        41.0004         34.0004
 05  6 27 16 41  0.0000000  0  8G22G21G18G15G14G 3G19G 9
  20727316.0294    6020210.84543   4702641.18142  20727316.6624   20727311.4474
        56.0004         50.0004
  21651608.9114   15283360.58443  11910531.65042  21651610.4064   21651607.1994
        53.0004         46.0004
  21409494.9384   14336452.74843  11173066.36242  21409496.6014   21409492.2124
        55.0004         48.0004
  20027941.4944    4545571.47844   3546176.88242  20027942.0464   20027939.5794
        57.0004         51.0004
  21502990.8084  -18391351.87043 -14267953.28442  21502992.6014   21502989.5124
        54.0004         47.0004
  22011492.2494  -10568403.99243  -8230365.36842  22011493.5484   22011491.3894
        52.0004         45.0004
  23419953.6464   -4484954.40143  -3456118.58642  23419956.1084   23419951.7974
        46.0004         42.0004
  23253995.4474   -1665999.66243  -1270603.38642  23253997.9174   23253996.6584
        43.0004         36.0004
 05  6 27 16 41 30.0000000  0  8G22G21G18G15G14G 3G19G 9
  20727781.5434    6022662.34143   4704551.43342  20727782.7544   20727777.8594
        56.0004         50.0004
  21663323.1514   15344914.48243  11958495.67242  21663323.7054   21663320.8704
        53.0004         47.0004
  21418084.6494   14381597.04343  11208243.72642  21418086.0904   21418083.3094
        55.0004         48.0004
  20027508.3034    4543295.67944   3544403.52842  20027509.1984   20027507.0154
        57.0004         51.0004
  21488046.2394  -18469885.54543 -14329148.32842  21488047.9204   21488045.1674
        53.0004         47.0004
  22009554.6364  -10578593.22843  -8238305.04042  22009555.3804   22009552.4294
        53.0004         45.0004
  23406220.0124   -4557129.56343  -3512358.92742  23406221.0124   23406217.0124
        48.0004         43.0004
  23248668.6634   -1694006.14543  -1292426.68542  23248669.6474   23248666.8154
        41.0004         35.0004
 05  6 27 16 42  0.0000000  0  8G22G21G18G15G14G 3G19G 9
  20728291.7794    6025336.28243   4706635.01342  20728292.1194   20728287.2604
        56.0004         50.0004
  21675101.9384   15406811.40743  12006727.00542  21675102.9194   21675099.5414
        54.0004         47.0004
  21426702.9244   14426886.13643  11243533.90742  21426704.3384   21426701.4314
        55.0004         48.0004
  20027150.9644    4541417.51244   3542940.01242  20027151.7304   20027149.7654
        57.0004         51.0004
  21473180.0584  -18548011.06243 -14390025.31742  21473181.0584   21473178.0044
        54.0004         47.0004
  22007720.4564  -10588227.98943  -8245812.64942  22007721.8204   22007719.6504
        53.0004         45.0004
  23392561.9704   -4628900.01343  -3568283.92542  23392562.7064   23392558.7904
        48.0004         42.0004
  23243438.3694   -1721478.66243  -1313833.82142  23243441.9064   23243441.7464
        39.0004         35.0004
 05  6 27 16 42 30.0000000  0  8G22G21G18G15G14G 3G19G 9
  20728843.5114    6028236.93443   4708895.26242  20728844.1004   20728839.0824
        56.0004         50.0004
  21686946.6954   15469056.21843  12055229.44642  21686947.4774   21686943.9184
        54.0004         46.0004
  21435349.5844   14472324.17343  11278940.13742  21435351.1594   21435347.2284
        55.0004         48.0004
  20026870.4704    4539943.69444   3541791.56242  20026871.3064   20026868.8484
        57.0004         51.0004
  21458391.6254  -18625721.32643 -14450578.74242  21458393.1364   21458390.7864
        54.0004         47.0004
  22005994.7204  -10597302.94443  -8252884.06542  22005996.4144   22005992.2494
        53.0004         45.0004
  23378983.3284   -4700258.76343  -3623888.17642  23378983.3844   23378979.2594
        47.0004         42.0004
  23238312.2564   -1748410.01953  -1334819.20152  23238316.5214   23238316.5284
        38.0004         35.0004
 05  6 27 16 43  0.0000000  0  8G22G21G18G15G14G 3G19G 9
  20729436.8664    6031354.56043   4711324.57942  20729437.5204   20729432.5424
        56.0004         50.0004
  21698856.3834   15531640.12043  12103996.10342  21698857.0964   21698853.6774
        54.0004         46.0004
  21444022.8484   14517901.63643  11314455.03442  21444023.9514   21444019.6964
        55.0004         47.0004
  20026665.8754    4538866.66044   3540952.31242  20026666.6404   20026663.7334
        57.0004         51.0004
  21443681.0074  -18703023.37643 -14510814.07242  21443683.3034   21443680.3384
        53.0004         47.0004
  22004372.6664  -10605826.89043  -8259526.12642  22004373.6654   22004370.7034
        54.0004         46.0004
  23365481.4054   -4771212.16743  -3679176.55642  23365483.7204   23365477.0504
        46.0004         42.0004
  23233292.3274   -1774806.76443  -1355388.04442  23233294.6434   23233291.8374
        39.0004         35.0004
 05  6 27 16 43 30.0000000  0  7G22G21G18G15G14G 3G19
  20730072.4844    6034695.62743   4713927.99942  20730072.8874   20730067.9224
        56.0004         50.0004
  21710831.0854   15594569.83943  12153032.21642  21710832.5214   21710828.4474
        54.0004         46.0004
  21452722.6494   14563624.66543  11350083.33542  21452724.4344   21452720.1674
        54.0004         47.0004
  20026537.7364    4538194.72544   3540428.71842  20026538.9454   20026536.2084
        57.0004         51.0004
  21429050.8784  -18779908.07243 -14570724.19442  21429052.7904   21429049.1884
        54.0004         47.0004
  22002856.9634  -10613792.74743  -8265733.30542  22002858.2844   22002855.5864
        54.0004         46.0004
  23352058.5044   -4841750.54743  -3734141.47442  23352058.2344   23352055.6384
        47.0004         42.0004
 05  6 27 16 44  0.0000000  0  7G22G21G18G15G14G 3G19
  20730749.2644    6038254.48743   4716701.12642  20730750.0904   20730745.3894
        56.0004         50.0004
  21722870.9984   15657840.28243  12202333.82542  21722871.7364   21722868.6284
        53.0004         46.0004
  21461451.6464   14609487.53043  11385820.62742  21461452.4664   21461447.9044
        55.0004         47.0004
  20026485.9524    4537924.31944   3540217.99542  20026487.0874   20026484.5714
        57.0004         51.0004
  21414499.2994  -18856378.41343 -14630311.43642  21414501.2874   21414496.7814
        54.0004         47.0004
  22001446.3584  -10621205.36743  -8271509.37942  22001448.0714   22001445.5644
        54.0004         46.0004
  23338713.1024   -4911876.51843  -3788785.06442  23338713.7504   23338711.6214
        45.0004         42.0004
 05  6 27 16 44 30.0000000  0  7G22G21G18G15G14G 3G19
  20731469.1344    6042032.71644   4719645.19242  20731469.9534   20731464.1434
        57.0004         50.0004
  21734976.4474   15721453.83743  12251902.77942  21734977.3644   21734973.9374
        53.0004         46.0004
  21470204.4414   14655492.12043  11421668.34042  21470206.5194   21470202.9644
        54.0004         47.0004
  20026512.3454    4538059.02144   3540322.94442  20026512.8734   20026510.0854
        57.0004         50.0004
  21400026.9794  -18932429.99943 -14689572.37642  21400028.6864   21400025.3504
        54.0004         47.0004
  22000141.0954  -10628062.28443  -8276852.43442  22000143.1834   22000139.7154
        54.0004         46.0004
  23325446.7044   -4981585.39443  -3843103.62742  23325447.7314   23325445.6114
        44.0004         41.0004
 05  6 27 16 45  0.0000000  0  7G22G21G18G15G14G 3G19
  20732229.9524    6046032.28944   4722761.75142  20732230.6744   20732225.0004
        57.0004         50.0004
  21747147.8254   15785413.11843  12301741.12842  21747148.4694   21747144.4494
        53.0004         46.0004
  21478987.0054   14701640.83443  11457628.35542  21478988.5094   21478984.8664
        55.0004         47.0004
  20026615.0044    4538602.84744   3540746.70042  20026616.1144   20026614.0514
        57.0004         51.0004
  21385634.9254  -19008058.35643 -14748503.53042  21385636.6254   21385633.3524
        54.0004         47.0004
  21998942.8124  -10634360.66543  -8281760.26142  21998943.8294   21998941.4104
        54.0004         46.0004
  23312262.6354   -5050872.24143  -3897093.35442  23312263.5104   23312261.7734
        47.0004         42.0004
 05  6 27 16 45 30.0000000  0  8G22G21G18G15G14G 3G19G 9
  20733031.0744    6050243.03143   4726042.84742  20733031.2714   20733025.4944
        56.0004         50.0004
  21759382.6564   15849708.25143  12351841.19142  21759383.5414   21759380.1704
        53.0004         46.0004
  21487794.7524   14747923.35043  11493692.63542  21487795.8724   21487792.1894
        55.0004         48.0004
  20026795.4694    4539547.69044   3541482.92442  20026795.9604   20026793.5924
        57.0004         51.0004
  21371323.1714  -19083270.97543 -14807110.73942  21371324.3214   21371321.5234
        54.0004         47.0004
  21997847.6414  -10640109.81743  -8286240.11342  21997848.7414   21997846.7264
        53.0004         46.0004
  23299157.3424   -5119744.12543  -3950759.76842  23299158.2204   23299154.7934
        48.0004         43.0004
  23209726.9134   -1237446.57953   -956173.83752  23209729.8474   23209728.3254
        40.0004         36.0004
 05  6 27 16 46  0.0000000  0  8G22G21G18G15G14G 3G19G 9
  20733874.3424    6054673.37343   4729495.06442  20733875.0044   20733869.2684
        56.0004         50.0004
  21771682.6684   15914348.11943  12402209.88642  21771683.6134   21771680.6504
        53.0004         46.0004
  21496628.8254   14794348.11143  11529867.75042  21496629.8204   21496626.5334
        55.0004         47.0004
  20027053.7414    4540904.28144   3542539.99842  20027054.4104   20027051.8024
        57.0004         51.0004
  21357091.0844  -19158056.48543 -14865385.13642  21357092.8104   21357090.3074
        54.0004         47.0004
  21996860.1944  -10645300.73443  -8290285.00542  21996861.8994   21996859.0704
        53.0004         46.0004
  23286132.3194   -5188189.44643  -4004093.75342  23286133.6734   23286130.0664
        46.0004         43.0004
  23205330.6024   -1260567.74443   -974190.29642  23205331.5714   23205329.2154
        41.0004         37.0004
 05  6 27 16 46 30.0000000  0  8G22G21G18G15G14G 3G19G 9
  20734757.5054    6059319.11043   4733115.11442  20734758.3524   20734753.7464
        56.0004         50.0004
  21784048.7864   15979329.22543  12452844.46642  21784049.7824   21784045.7694
        53.0004         46.0004
  21505489.1224   14840911.11943  11566150.59842  21505490.6394   21505486.8814
        55.0004         47.0004
  20027389.5564    4542670.19644   3543916.02642  20027390.3804   20027387.9544
        57.0004         51.0004
  21342941.4314  -19232416.57243 -14923328.03742  21342943.0804   21342939.8904
        54.0004         47.0004
  21995977.6514  -10649937.08943  -8293897.77842  21995979.6014   21995976.9154
        53.0004         45.0004
  23273189.0094   -5256209.51043  -4057096.31742  23273190.1414   23273185.2354
        47.0004         42.0004
  23201035.2354   -1283136.95643   -991776.61742  23201036.6374   23201032.9644
        40.0004         37.0004
 05  6 27 16 47  0.0000000  0  8G22G21G18G15G14G 3G19G 9
  20735682.8794    6064175.57843   4736899.36642  20735683.0604   20735678.1834
        56.0004         50.0004
  21796478.2904   16044647.00343  12503741.39442  21796478.6994   21796475.8384
        53.0004         46.0004
  21514375.8864   14887607.17043  11602537.10942  21514377.2924   21514372.9974
        55.0004         47.0004
  20027802.6404    4544842.49444   3545608.71342  20027803.4164   20027801.2514
        57.0004         51.0004
  21328871.5334  -19306353.64143 -14980941.30442  21328873.3054   21328869.3084
        54.0004         47.0004
  21995199.7464  -10654022.93243  -8297081.58142  21995201.3214   21995199.6054
        52.0004         45.0004
  23260327.0814   -5323806.13243  -4109769.03842  23260328.4164   23260320.2724
        51.0004         43.0004
  23196844.7454   -1305156.37143  -1008934.57542  23196844.2204   23196840.8764
        40.0004         35.0004
 05  6 27 16 47 30.0000000  0  8G22G21G18G15G14G 3G19G 9
  20736648.7784    6069250.32544   4740853.71442  20736649.1864   20736643.6094
        57.0004         50.0004
  21808973.6544   16110310.09943  12554907.40642  21808974.2754   21808971.6134
        53.0004         46.0004
  21523288.8274   14934444.67143  11639033.84142  21523289.8684   21523285.9684
        55.0004         47.0004
  20028295.9294    4547431.11944   3547625.81042  20028296.4324   20028293.9664
        57.0004         51.0004
  21314883.8084  -19379857.27743 -15038216.82342  21314885.9064   21314882.8234
        54.0004         47.0004
  21994528.7214  -10657549.89143  -8299829.89142  21994529.3924   21994527.7334
        52.0004         45.0004
  23247545.7144   -5390968.44043  -4162103.35942  23247547.1854   23247541.6034
        51.0004         44.0004
  23192761.4574   -1326615.25943  -1025655.77542  23192763.4314   23192758.6904
        40.0004         35.0004
 05  6 27 16 48  0.0000000  0  8G22G21G18G15G14G 3G19G 9
  20737654.2424    6074536.31744   4744972.66742  20737654.7524   20737649.1574
        57.0004         50.0004
  21821532.9344   16176311.62443  12606337.13342  21821534.2904   21821531.4494
        53.0004         46.0004
  21532226.5104   14981416.27943  11675635.07042  21532228.3384   21532224.6724
        55.0004         47.0004
  20028866.4044    4550430.82444   3549963.23742  20028867.1974   20028864.6984
        57.0004         51.0004
  21300978.7844  -19452932.02143 -15095158.15742  21300980.7024   21300977.0494
        54.0004         47.0004
  21993962.0144  -10660524.69643  -8302147.93542  21993963.1144   21993962.7814
        51.0004         45.0004
  23234846.0204   -5457700.73843  -4214102.51842  23234847.6094   23234843.7594
        50.0004         43.0004
  23188782.3794   -1347518.27343  -1041943.79642  23188787.0384   23188786.0344
        40.0004         37.0004
 05  6 27 16 48 30.0000000  0  8G22G21G18G15G14G 3G19G 9
  20738700.9884    6080034.39844   4749256.88742  20738700.4354   20738695.2814
        57.0004         50.0004
  21834157.0284   16242652.67443  12658031.42942  21834157.0654   21834154.3964
        53.0004         46.0004
  21541191.3824   15028523.03443  11712341.62242  21541193.2394   21541188.2774
        55.0004         47.0004
  20029515.5964    4553844.52344   3552623.24642  20029516.3314   20029514.5664
        57.0004         51.0004
  21287154.8764  -19525574.52943 -15151762.68442  21287156.5884   21287154.1164
        54.0004         47.0004
  21993501.9054  -10662945.94643  -8304034.63442  21993502.5064   21993501.6704
        52.0004         45.0004
  23222229.2154   -5523999.20043  -4265763.62942  23222231.2094   23222227.7174
        50.0004         44.0004
  23184911.0854   -1367862.05443  -1057796.00642  23184914.2884   23184909.8464
        42.0004         37.0004
 05  6 27 16 49  0.0000000  0  8G22G21G18G15G14G 3G19G 9
  20739786.0364    6085740.09344   4753702.87842  20739786.4044   20739781.0744
        57.0004         50.0004
  21846846.0134   16309329.15443  12709987.10742  21846846.8094   21846842.9294
        54.0004         46.0004
  21550180.4114   15075760.22243  11749149.81842  21550181.9124   21550177.5254
        55.0004         47.0004
  20030243.7624    4557669.45344   3555603.70042  20030244.3594   20030242.2614
        57.0004         51.0004
  21273413.8724  -19597786.87143 -15208032.00842  21273414.9214   21273412.0464
        54.0004         47.0004
  21993145.4824  -10664817.28043  -8305492.80942  21993146.9284   21993145.4944
        52.0004         45.0004
  23209696.6354   -5589865.49043  -4317088.03142  23209696.5844   23209693.6964
        50.0004         43.0004
  23181145.6054   -1387648.68443  -1073214.14642  23181145.9214   23181143.7344
        40.0004         35.0004
 05  6 27 16 49 30.0000000  0  9G22G21G18G15G14G 1G 3G19G 9
  20740912.9664    6091662.66643   4758317.87042  20740913.5934   20740908.4294
        56.0004         50.0004
  21859599.0064   16376351.06343  12762211.93842  21859601.0714   21859597.0514
        53.0004         46.0004
  21559195.4784   15123137.42143  11786067.09142  21559196.8984   21559193.6924
        55.0004         47.0004
  20031051.9974    4561917.06344   3558913.51542  20031052.8774   20031050.1394
        57.0004         51.0004
  21259755.7994  -19669556.78043 -15263956.57842  21259757.6944   21259754.8494
        54.0004         47.0004
  23994962.5214   -4434360.04553  -3385674.56652  23994963.0394   23994965.6094
        44.0004         38.0004
  21992897.3724  -10666129.09543  -8306515.01442  21992898.1264   21992896.4484
        53.0004         45.0004
  23197247.1234   -5655287.03143  -4368065.88242  23197247.5924   23197244.2644
        49.0004         42.0004
  23177488.4804   -1406866.11843  -1088188.79442  23177491.1924   23177488.0394
        42.0004         35.0004
 05  6 27 16 50  0.0000000  0  9G22G21G18G15G14G 1G 3G19G 9
  20742080.2554    6097792.46144   4763094.32842  20742080.4094   20742074.7864
        57.0004         50.0004
  21872417.3224   16443709.26943  12814698.82542  21872418.0814   21872415.6524
        53.0004         46.0004
  21568235.2004   15170645.26943  11823086.16442  21568237.5924   21568233.8244
        54.0004         47.0004
  20031939.8084    4566579.82744   3562546.82342  20031940.3834   20031937.8344
        57.0004         51.0004
  21246181.0964  -19740891.93243 -15319542.38042  21246182.6354   21246179.6254
        54.0004         47.0004
  23974538.0044   -4541697.34543  -3469313.90242  23974539.0834   23974539.2264
        45.0004         39.0004
  21992752.8734  -10666890.35043  -8307108.21542  21992754.0474   21992749.6264
        54.0004         46.0004
  23184881.2934   -5720270.67143  -4418702.46842  23184881.9904   23184878.0764
        51.0004         43.0004
  23173938.9514   -1425521.29743  -1102725.28242  23173940.7214   23173938.6714
        44.0004         38.0004
 05  6 27 16 50 30.0000000  0  9G22G21G18G15G14G 1G 3G19G 9
  20743285.0254    6104125.21144   4768028.93742  20743285.3944   20743280.2474
        57.0004         50.0004
  21885298.6024   16511399.56143  12867444.48342  21885299.3584   21885295.5814
        53.0004         46.0004
  21577300.7354   15218279.23043  11860203.51142  21577301.5504   21577298.1694
        55.0004         47.0004
  20032904.6004    4571655.05944   3566501.53642  20032905.5904   20032903.4574
        57.0004         51.0004
  21232689.4874  -19811794.06343 -15374790.76442  21232690.9844   21232687.8154
        54.0004         48.0004
  23954137.8994   -4648890.71643  -3552841.11042  23954139.6054   23954141.3664
        44.0004         38.0004
  21992711.9594  -10667105.23243  -8307275.68642  21992712.9424   21992709.6234
        54.0004         46.0004
  23172598.1194   -5784817.80143  -4468998.94042  23172599.2494   23172595.1104
        51.0004         45.0004
  23170496.9874   -1443616.32243  -1116825.25242  23170497.3544   23170495.1414
        45.0004         38.0004
 05  6 27 16 51  0.0000000  0  9G22G21G18G15G14G 1G 3G19G 9
  20744530.5894    6110673.05244   4773131.15542  20744531.1484   20744526.2464
        57.0004         50.0004
  21898245.2984   16579434.30143  12920458.52742  21898246.4834   21898243.0594
        53.0004         45.0004
  21586391.5004   15266051.47443  11897428.61442  21586392.1854   21586388.9704
        54.0004         47.0004
  20033952.1594    4577156.42044   3570788.29542  20033952.4524   20033950.2274
        57.0004         51.0004
  21219282.2514  -19882248.27343 -15429690.12342  21219284.3864   21219280.4544
        54.0004         47.0004
  23933768.7534   -4755925.30643  -3636244.52342  23933771.1554   23933769.7694
        42.0004         36.0004
  21992777.4144  -10666761.25543  -8307007.67042  21992778.2914   21992776.0554
        54.0004         46.0004
  23160401.4364   -5848913.53143  -4518943.67042  23160402.4764   23160399.0434
        50.0004         45.0004
  23167160.6774   -1461136.89843  -1130477.67542  23167162.5294   23167159.0144
        45.0004         38.0004
 05  6 27 16 51 30.0000000  0  9G22G21G18G15G14G 1G 3G19G 9
  20745814.9974    6117426.20243   4778393.34942  20745815.9994   20745811.1534
        56.0004         50.0004
  21911254.6394   16647804.44143  12973733.91942  21911256.0904   21911253.3724
        53.0004         45.0004
  21595506.0144   15313952.74143  11934754.25142  21595507.7344   21595504.5404
        54.0004         47.0004
  20035079.0764    4583076.37044   3575401.23142  20035079.4074   20035076.8754
        57.0004         51.0004
  21205958.2664  -19952262.18943 -15484246.38942  21205960.0854   21205957.4754
        54.0004         47.0004
  23913431.4574   -4862807.66843  -3719529.39942  23913432.6234   23913432.9564
        44.0004         38.0004
  21992947.1994  -10665867.55643  -8306311.29842  21992948.9194   21992945.0734
        54.0004         46.0004
  23148288.7724   -5912564.72843  -4568541.97442  23148289.8094   23148286.9234
        49.0004         44.0004
  23163933.7804   -1478090.34843  -1143688.18542  23163934.9804   23163933.6994
        44.0004         38.0004
 05  6 27 16 52  0.0000000  0  9G22G21G18G15G14G 1G 3G19G 9
  20747138.3734    6124382.36243   4783813.73542  20747139.5494   20747134.5124
        56.0004         50.0004
  21924329.8474   16716507.58743  13027268.79742  21924329.9734   21924327.0504
        53.0004         46.0004
  21604646.5374   15361980.96343  11972178.83142  21604647.6884   21604643.2934
        54.0004         47.0004
  20036285.0064    4589414.49444   3580340.02442  20036286.0414   20036283.6794
        58.0004         51.0004
  21192719.1514  -20021835.76043 -15538459.53242  21192720.8764   21192718.2564
        54.0004         48.0004
  23893122.0844   -4969537.01743  -3802695.00742  23893124.3334   23893123.1544
        44.0004         38.0004
  21993221.1544  -10664426.06343  -8305188.06142  21993223.3674   21993220.6734
        53.0004         46.0004
  23136260.5304   -5975770.99943  -4617793.58942  23136262.0024   23136258.4624
        50.0004         44.0004
  23160818.1264   -1494476.54443  -1156456.67842  23160818.6664   23160818.5884
        46.0004         39.0004
 05  6 27 16 52 30.0000000  0  9G22G21G18G15G14G 1G 3G19G 9
  20748502.7474    6131545.99444   4789395.77842  20748503.0964   20748497.4744
        57.0004         50.0004
  21937467.2904   16785548.82943  13081067.12642  21937468.7114   21937465.2584
        53.0004         46.0004
  21613809.4084   15410140.14043  12009705.44642  21613811.6224   21613807.5914
        54.0004         47.0004
  20037571.0694    4596177.27944   3585609.71742  20037572.1344   20037569.8524
        57.0004         51.0004
  21179564.8824  -20090962.16643 -15592324.23942  21179566.3014   21179563.6354
        54.0004         48.0004
  23872841.9114   -5076105.92343  -3885735.53542  23872842.7874   23872843.7774
        45.0004         38.0004
  21993600.1754  -10662431.93043  -8303634.19342  21993601.0884   21993600.6214
        53.0004         46.0004
  23124319.7124   -6038524.58243  -4666692.49242  23124319.9164   23124315.8824
        49.0004         44.0004
  23157808.3704   -1510288.55543  -1168777.71242  23157810.5194   23157807.3564
        46.0004         39.0004
 05  6 27 16 53  0.0000000  0  9G22G21G18G15G14G 1G 3G19G 9
  20749904.9404    6138913.12144   4795136.40242  20749905.0414   20749899.4934
        57.0004         50.0004
  21950668.6954   16854924.26743  13135125.86942  21950669.1884   21950666.6764
        52.0004         45.0004
  21622998.6734   15458426.62243  12047331.26042  21622999.5794   21622996.4894
        54.0004         46.0004
  20038939.3634    4603362.59244   3591208.66342  20038939.8344   20038937.3704
        57.0004         51.0004
  21166494.8104  -20159642.96143 -15645841.71542  21166497.0054   21166494.1744
        54.0004         48.0004
  23852591.7724   -5182515.36943  -3968651.89342  23852594.4904   23852592.6884
        45.0004         38.0004
  21994083.6924  -10659888.91443  -8301652.64442  21994085.5964   21994084.1994
        53.0004         46.0004
  23112464.6374   -6100826.97743  -4715239.79842  23112465.2184   23112460.2404
        49.0004         44.0004
  23154906.8764   -1525527.95443  -1180652.57842  23154909.5224   23154906.6634
        44.0004         39.0004
 05  6 27 16 53 30.0000000  0  9G22G21G18G15G14G 1G 3G19G 9
  20751345.1564    6146482.93243   4801034.95542  20751345.2314   20751340.3084
        56.0004         50.0004
  21963935.0724   16924633.87443  13189445.00042  21963934.6754   21963931.4564
        52.0004         45.0004
  21632211.0524   15506840.02443  12085055.97242  21632212.8914   21632209.2054
        54.0004         46.0004
  20040387.0554    4610971.31644   3597137.52442  20040387.8464   20040385.2784
        57.0004         51.0004
  21153511.7654  -20227876.28343 -15699010.50642  21153513.1514   21153509.2324
        55.0004         48.0004
  23832374.3694   -5288763.07543  -4051442.22042  23832374.9734   23832375.9704
        45.0004         39.0004
  21994672.2464  -10656797.50043  -8299243.78142  21994673.6414   21994672.0504
        53.0004         46.0004
  23100693.9724   -6162676.33343  -4763434.08442  23100696.0834   23100690.4534
        48.0004         43.0004
  23152118.9824   -1540193.13943  -1192080.03542  23152118.4044   23152118.6084
        44.0004         39.0004
 05  6 27 16 54  0.0000000  0  9G22G21G18G15G14G 1G 3G19G 9
  20752825.9334    6154259.96744   4807094.98442  20752825.5364   20752820.3934
        57.0004         50.0004
  21977264.0164   16994682.20743  13244028.07942  21977264.3604   21977261.9614
        51.0004         44.0004
  21641450.4984   15555384.50343  12122882.79842  21641450.5064   21641447.1074
        55.0004         46.0004
  20041916.4504    4619009.88244   3603401.32542  20041917.2194   20041915.0564
        57.0004         51.0004
  21140613.4884  -20295655.51143 -15751825.46842  21140614.6754   21140611.9104
        54.0004         48.0004
  23812188.9184   -5394841.70843  -4134100.74442  23812189.5204   23812189.4204
        47.0004         39.0004
  21995366.2864  -10653152.84543  -8296403.82342  21995367.3894   21995365.6094
        53.0004         46.0004
  23089011.2934   -6224065.11643  -4811269.47642  23089013.2094   23089008.9144
        48.0004         43.0004
  23149438.4844   -1554277.48743  -1203054.85042  23149439.6424   23149438.2174
        45.0004         39.0004
 05  6 27 16 54 30.0000000  0  9G22G21G18G15G14G 1G 3G19G 9
  20754342.0494    6162234.50043   4813308.90042  20754342.5764   20754338.0194
        56.0004         50.0004
  21990656.8414   17065060.00043  13298867.85642  21990656.6684   21990654.2134
        50.0004         44.0004
  21650709.9594   15604050.56043  12160804.38642  21650711.2964   21650707.6784
        54.0004         46.0004
  20043526.7634    4627470.40344   3609993.92242  20043527.3374   20043525.4044
        57.0004         51.0004
  21127799.6094  -20362987.81443 -15804292.16942  21127801.8574   21127799.4544
        54.0004         48.0004
  23792033.7494   -5500757.83443  -4216632.70842  23792034.7234   23792032.6034
        47.0004         39.0004
  21996163.5704  -10648964.20643  -8293139.95742  21996165.0444   21996161.9284
        53.0004         46.0004
  23077415.8114   -6285000.21943  -4858751.33642  23077417.8744   23077414.4174
        49.0004         44.0004
  23146864.7134   -1567788.49543  -1213582.87942  23146869.0554   23146866.7044
        44.0004         40.0004
 05  6 27 16 55  0.0000000  0  9G22G21G18G15G14G 1G 3G19G 9
  20755899.1694    6170413.44944   4819682.10542  20755899.1224   20755894.2064
        57.0004         50.0004
  22004112.7564   17135774.29343  13353969.84542  22004113.5124   22004110.9334
        50.0004         44.0004
  21659996.0714   15652845.70343  12198826.55942  21659997.2034   21659993.4464
        54.0004         46.0004
  20045218.7394    4636361.53944   3616922.06842  20045219.8234   20045217.1534
        58.0004         51.0004
  21115074.1814  -20429864.07243 -15856403.50042  21115075.7974   21115073.3434
        54.0004         48.0004
  23771910.7124   -5606501.70043  -4299030.41942  23771913.8494   23771912.2274
        46.0004         39.0004
  21997065.4114  -10644224.63743  -8289446.79442  21997067.0474   21997064.6644
        53.0004         46.0004
  23065909.4844   -6345471.94043  -4905872.15742  23065909.9644   23065906.0324
        49.0004         44.0004
  23144406.7504   -1580716.95043  -1223656.96842  23144407.1694   23144405.6614
        44.0004         40.0004
 05  6 27 16 55 30.0000000  0  9G22G21G18G15G14G 1G 3G19G 9
  20757493.5104    6178791.23344   4826210.24742  20757493.6894   20757488.3754
        57.0004         50.0004
  22017634.1254   17206819.36343  13409329.57742  22017633.5464   22017630.2604
        51.0004         44.0004
  21669303.6804   15701763.85743  12236944.58742  21669304.8394   21669302.1724
        53.0004         47.0004
  20046991.9434    4645679.17544   3624182.56042  20046992.6464   20046989.7964
        58.0004         51.0004
  21102434.2104  -20496287.81743 -15908162.23342  21102435.9324   21102433.2424
        55.0004         48.0004
  23751820.6394   -5712076.12243  -4381296.08342  23751822.2754   23751823.2584
        47.0004         40.0004
  21998071.0844  -10638939.85643  -8285328.79442  21998071.9044   21998070.4344
        53.0004         46.0004
  23054487.9314   -6405483.44143  -4952634.34342  23054489.3224   23054485.8634
        48.0004         44.0004
  23142056.5074   -1593066.54343  -1233280.00242  23142056.4694   23142055.7214
        45.0004         40.0004
 05  6 27 16 56  0.0000000  0  9G22G21G18G15G14G 1G 3G19G 9
  20759125.6924    6187368.32244   4832893.69542  20759126.1234   20759120.2104
        57.0004         50.0004
  22031215.7304   17278195.97143  13464947.66942  22031215.8694   22031213.7154
        51.0004         44.0004
  21678637.7034   15750806.29043  12275159.43642  21678638.4864   21678634.7914
        54.0004         47.0004
  20048846.2174    4655425.97544   3631777.46042  20048847.0684   20048844.6104
        57.0004         51.0004
  21089881.1934  -20562256.14143 -15959566.09642  21089882.5594   21089879.6814
        55.0004         48.0004
  23731764.2054   -5817477.36143  -4463426.87142  23731765.6044   23731767.1874
        46.0004         40.0004
  21999180.1074  -10633109.05343  -8280785.33542  21999181.8774   21999180.0014
        53.0004         46.0004
  23043157.8134   -6465031.16143  -4999035.14742  23043159.0054   23043154.9454
        50.0004         45.0004
  23139817.6504   -1604834.37443  -1242449.74542  23139819.7534   23139817.9064
        45.0004         40.0004
 05  6 27 16 56 30.0000000  0  9G22G21G18G15G14G 1G 3G19G 9
  20760796.0844    6196146.16244   4839733.57642  20760795.9744   20760790.5714
        57.0004         50.0004
  22044860.9044   17349906.10143  13520825.64842  22044861.2884   22044859.1484
        52.0004         45.0004
  21687993.9754   15799973.96243  12313471.89442  21687994.5694   21687990.3214
        54.0004         47.0004
  20050783.5984    4665604.86144   3639709.05042  20050784.4934   20050781.7104
        57.0004         51.0004
  21077415.2074  -20627765.53143 -16010612.36342  21077416.3554   21077413.1024
        55.0004         48.0004
  23711740.8844   -5922701.22443  -4545419.38942  23711741.5514   23711741.8804
        46.0004         39.0004
  22000393.7594  -10626730.72943  -8275815.22942  22000395.3874   22000393.1224
        53.0004         45.0004
  23031915.0984   -6524110.96243  -5045071.33242  23031916.1344   23031911.7794
        50.0004         45.0004
  23137689.2354   -1616017.17343  -1251163.58542  23137690.0974   23137689.3834
        44.0004         39.0004
 05  6 27 16 57  0.0000000  0  9G22G21G18G15G14G 1G 3G19G 9
  20762503.0904    6205120.60744   4846726.65142  20762503.7694   20762499.1044
        57.0004         50.0004
  22058570.3074   17421946.02743  13576960.60042  22058571.6134   22058566.8384
        53.0004         45.0004
  21697373.6674   15849262.89143  12351878.84142  21697374.5994   21697369.9294
        54.0004         46.0004
  20052802.1804    4676213.54144   3647975.54942  20052803.1204   20052800.4734
        57.0004         51.0004
  21065035.4794  -20692817.90443 -16061302.50042  21065037.7364   21065034.1824
        55.0004         48.0004
  23691749.5754   -6027748.72343  -4627274.48942  23691751.9574   23691750.8754
        45.0004         39.0004
  22001710.8724  -10619808.65943  -8270421.43942  22001712.6814   22001709.6384
        52.0004         45.0004
  23020761.4304   -6582724.60143  -5090744.27842  23020762.3224   23020759.0534
        50.0004         45.0004
  23135671.6864   -1626616.70443  -1259422.92842  23135673.7624   23135672.9724
        45.0004         39.0004
 05  6 27 16 57 30.0000000  0  9G22G21G18G15G14G 1G 3G19G 9
  20764248.0794    6214292.63843   4853873.67942  20764248.7494   20764243.9294
        56.0004         50.0004
  22072341.6304   17494316.42143  13633353.05542  22072342.1194   22072339.0504
        53.0004         45.0004
  21706775.7104   15898674.26643  12390381.20142  21706776.9764   21706772.5364
        54.0004         46.0004
  20054902.8154    4687254.58144   3656578.94442  20054903.7894   20054901.7884
        57.0004         51.0004
  21052744.0044  -20757410.01943 -16111633.98742  21052745.4974   21052742.6734
        54.0004         48.0004
  23671793.7164   -6132616.06943  -4708989.19642  23671796.0264   23671796.2604
        44.0004         38.0004
  22003133.1804  -10612341.81743  -8264603.16542  22003133.5414   22003130.9544
        53.0004         45.0004
  23009696.8904   -6640868.36543  -5136051.08742  23009697.7384   23009694.8394
        50.0004         45.0004
  23133765.1604   -1636630.12343  -1267225.61442  23133766.8544   23133766.9384
        43.0004         39.0004
 05  6 27 16 58  0.0000000  0  9G22G21G18G15G14G 1G 3G19G 9
  20766032.2084    6223663.85443   4861175.91942  20766032.6474   20766027.1384
        56.0004         50.0004
  22086176.7724   17567019.03143  13690004.39542  22086178.1884   22086174.1254
        53.0004         45.0004
  21716202.2114   15948210.15243  12428980.55642  21716203.6034   21716199.2264
        54.0004         46.0004
  20057087.2894    4698731.14744   3665521.71242  20057087.8514   20057085.5514
        57.0004         51.0004
  21040540.5804  -20821538.13043 -16161603.91542  21040542.3754   21040539.2414
        55.0004         48.0004
  23651874.8364   -6237298.87943  -4790560.13042  23651874.9934   23651872.4474
        45.0004         38.0004
  22004657.9024  -10604328.81143  -8258359.28342  22004658.5044   22004656.4124
        53.0004         46.0004
  22998720.9574   -6698538.08543  -5180988.51642  22998723.5394   22998720.0704
        49.0004         44.0004
  23131971.5114   -1646053.95443  -1274568.85142  23131972.6724   23131973.6254
        43.0004         38.0004
 05  6 27 16 58 30.0000000  0  9G22G21G18G15G14G 1G 3G19G 9
  20767853.1034    6233230.04444   4868630.08542  20767853.0674   20767847.7914
        57.0004         50.0004
  22100074.1654   17640049.73743  13746911.38242  22100075.4664   22100071.5424
        52.0004         45.0004
  21725651.6864   15997866.46643  12467673.75642  21725652.8084   21725648.8294
        54.0004         46.0004
  20059353.0344    4710640.82944   3674801.97542  20059353.8424   20059352.0464
        57.0004         51.0004
  21028425.2154  -20885204.41943 -16211213.99242  21028426.7464   21028424.2014
        54.0004         48.0004
  23631987.4824   -6341798.39243  -4871988.24842  23631988.9654   23631989.4944
        45.0004         39.0004
  22006285.8384  -10595773.63343  -8251692.94142  22006286.8344   22006285.4264
        54.0004         46.0004
  22987837.7784   -6755735.36443  -5225557.81442  22987838.4874   22987835.2444
        50.0004         44.0004
  23130291.5444   -1654890.32843  -1281454.30342  23130292.9134   23130291.6464
        44.0004         39.0004
 05  6 27 16 59  0.0000000  0  9G22G21G18G15G14G 1G 3G19G 9
  20769709.9714    6242988.38944   4876233.99042  20769710.2004   20769704.7154
        57.0004         50.0004
  22114033.7074   17713406.35743  13804072.32142  22114035.0054   22114030.6764
        52.0004         44.0004
  21735122.2924   16047640.51043  12506458.71942  21735124.3144   21735121.1784
        54.0004         46.0004
  20061702.6774    4722982.65144   3684418.96642  20061703.3384   20061700.1884
        57.0004         51.0004
  21016398.4104  -20948409.54943 -16260464.71742  21016399.4924   21016396.3644
        55.0004         49.0004
  23612136.5074   -6446114.40543  -4953273.31142  23612138.9874   23612139.1344
        46.0004         39.0004
  22008016.2354  -10586679.05243  -8244606.28642  22008017.1804   22008016.8124
        53.0004         46.0004
  22977045.1674   -6812460.01143  -5269758.85842  22977046.1194   22977040.0724
        52.0004         44.0004
  23128721.5814   -1663139.84543  -1287882.49142  23128722.3884   23128719.8294
        46.0004         39.0004
 05  6 27 16 59 30.0000000  0  9G22G21G18G15G14G 1G 3G19G 9
  20771603.5644    6252942.94144   4883990.78242  20771604.6004   20771598.9644
        57.0004         50.0004
  22128055.3674   17787092.65243  13861490.14442  22128056.6054   22128053.7464
        51.0004         44.0004
  21744618.4684   16097536.08743  12545338.38042  21744619.6834   21744615.2484
        55.0004         46.0004
  20064133.8374    4735761.98344   3694376.88742  20064134.6464   20064132.0804
        57.0004         51.0004
  21004459.3804  -21011147.49743 -16309351.40442  21004461.2274   21004458.2024
        55.0004         48.0004
  23592322.3614   -6550240.06243  -5034410.10942  23592323.3824   23592323.0484
        47.0004         40.0004
  22009850.3194  -10577041.23843  -8237096.32242  22009851.7694   22009849.8694
        53.0004         46.0004
  22966341.4584   -6868705.72443  -5313586.70642  22966343.2264   22966337.9964
        52.0004         44.0004
  23127262.5984   -1670796.78043  -1293848.93242  23127264.7434   23127264.9084
        44.0004         39.0004
 05  6 27 17  0  0.0000000  0  9G22G21G18G15G14G 1G 3G19G 9
  20773535.1074    6263091.30543   4891898.60842  20773535.3574   20773530.1634
        56.0004         50.0004
  22142139.5964   17861106.07243  13919162.85242  22142140.5684   22142137.4404
        51.0004         44.0004
  21754135.1584   16147550.98043  12584310.98642  21754136.9044   21754132.5894
        54.0004         46.0004
  20066648.9594    4748978.17944   3704675.20842  20066649.5404   20066647.1064
        57.0004         51.0004
  20992609.3404  -21073418.17943 -16357873.98942  20992611.1404   20992608.6534
        54.0004         49.0004
  23572544.6404   -6654174.85243  -5115398.21342  23572545.7244   23572546.8434
        47.0004         40.0004
  22011787.3454  -10566862.74643  -8229165.06442  22011788.5634   22011786.6824
        54.0004         47.0004
  22955728.6824   -6924472.49543  -5357041.32942  22955730.7614   22955726.0974
        51.0004         44.0004
  23125918.8434   -1677861.57843  -1299353.95842  23125921.3334   23125919.7774
        43.0004         37.0004
 05  6 27 17  0 30.0000000  0  9G22G21G18G15G14G 1G 3G19G 9
  20775502.3414    6273432.80743   4899956.91542  20775502.9534   20775498.2664
        56.0004         50.0004
  22156286.0474   17935446.74343  13977090.58342  22156287.5994   22156283.5564
        51.0004         44.0004
  21763675.7834   16197685.05743  12623376.47642  21763677.8854   21763673.2854
        54.0004         46.0004
  20069247.7734    4762632.41044   3715314.86242  20069248.1694   20069245.6824
        57.0004         51.0004
  20980849.1084  -21135220.21943 -16406031.39642  20980850.6604   20980847.6644
        54.0004         49.0004
  23552802.5344   -6757916.53243  -5196235.75142  23552803.8664   23552804.0314
        47.0004         41.0004
  22013827.3904  -10556144.05743  -8220812.85442  22013828.5334   22013826.3194
        54.0004         46.0004
  22945206.9904   -6979758.03443  -5400120.95842  22945209.6644   22945204.6724
        49.0004         43.0004
  23124688.2904   -1684332.96443  -1304396.60542  23124691.4534   23124688.0354
        43.0004         38.0004
 05  6 27 17  1  0.0000000  0  9G22G21G18G15G14G 1G 3G19G 9
  20777507.2764    6283964.56943   4908163.48042  20777507.3964   20777502.0904
        56.0004         50.0004
  22170494.2944   18010111.46843  14035270.82942  22170495.0384   22170490.5244
        51.0004         43.0004
  21773238.1654   16247935.58143  12662532.71742  21773240.1084   21773235.7714
        54.0004         46.0004
  20071928.4314    4776723.18744   3726294.68342  20071929.5204   20071926.9404
        57.0004         51.0004
  20969177.5984  -21196554.79443 -16453824.54742  20969179.2854   20969175.8404
        54.0004         48.0004
  23533098.9854   -6861465.16743  -5276922.91342  23533099.4594   23533098.3954
        48.0004         41.0004
  22015969.3794  -10544888.26243  -8212042.11742  22015970.9364   22015968.0654
        54.0004         47.0004
  22934777.6974   -7034563.10043  -5442826.17542  22934777.0294   22934775.9614
        48.0004         42.0004
  23123570.6024   -1690212.15143  -1308977.76542  23123569.3254   23123568.6864
        43.0004         38.0004
 05  6 27 17  1 30.0000000  0  9G22G21G18G15G14G 1G 3G19G 9
  20779547.1394    6294687.28543   4916518.84942  20779547.9834   20779543.1354
        56.0004         50.0004
  22184765.1484   18085100.86543  14093704.04942  22184765.2074   22184761.8864
        51.0004         43.0004
  21782822.7804   16298302.68643  12701779.81042  21782824.7994   21782819.8244
        54.0004         46.0004
  20074693.4154    4791252.41944   3737616.15542  20074694.3134   20074691.7664
        57.0004         51.0004
  20957595.2794  -21257419.11743 -16501251.26642  20957597.0414   20957593.8074
        54.0004         48.0004
  23513430.6304   -6964817.69643  -5357457.24142  23513432.3474   23513432.8084
        47.0004         40.0004
  22018212.7244  -10533094.99643  -8202852.56342  22018214.2814   22018213.0334
        54.0004         47.0004
  22924441.6434   -7088884.60443  -5485154.59942  22924442.1384   22924437.8594
        48.0004         42.0004
  23122564.4134   -1695496.85343  -1313095.73142  23122565.4524   23122561.8154
        45.0004         38.0004
 05  6 27 17  2  0.0000000  0  9G22G21G18G15G14G 1G 3G19G 9
  20781625.3014    6305605.48544   4925026.53442  20781625.6264   20781620.7474
        57.0004         50.0004
  22199096.6994   18160419.53243  14152393.85442  22199097.3954   22199094.7934
        50.0004         43.0004
  21792430.3014   16348792.09543  12741122.19842  21792431.4954   21792428.0514
        54.0004         46.0004
  20077543.0324    4806226.61844   3749284.36742  20077543.5384   20077541.4704
        57.0004         51.0004
  20946104.0284  -21317806.70243 -16548306.49942  20946106.0734   20946102.6994
        54.0004         49.0004
  23493802.9174   -7067966.19443  -5437832.62142  23493804.7034   23493804.3294
        48.0004         42.0004
  22020560.0864  -10520759.65743  -8193240.63342  22020561.2214   22020560.1634
        53.0004         46.0004
  22914197.1744   -7142715.27543  -5527100.54942  22914199.5214   22914193.5744
        48.0004         41.0004
  23121672.6714   -1700180.46543  -1316745.29742  23121674.1594   23121673.1334
        44.0004         38.0004
 05  6 27 17  2 30.0000000  0  9G22G21G18G15G14G 1G 3G19G 9
  20783738.1114    6316709.58044   4933679.07042  20783738.9344   20783733.8514
        57.0004         50.0004
  22213490.5304   18236057.87443  14211332.77942  22213489.8784   22213488.1674
        51.0004         43.0004
  21802058.8344   16399393.69943  12780552.00442  21802061.1774   21802057.5974
        54.0004         46.0004
  20080475.5234    4821637.70044   3761293.00342  20080476.2114   20080474.1134
        57.0004         51.0004
  20934701.0854  -21377725.06743 -16594996.10342  20934703.0034   20934700.4324
        54.0004         48.0004
  23474210.5724   -7170917.39243  -5518054.24342  23474213.0644   23474212.7204
        48.0004         42.0004
  22023007.7034  -10507892.22043  -8183214.07942  22023009.1434   22023009.0294
        52.0004         46.0004
  22904047.0864   -7196062.12143  -5568669.55542  22904047.3244   22904041.2244
        48.0004         41.0004
  23120893.4254   -1704271.12543  -1319932.77842  23120895.6664   23120894.5924
        44.0004         39.0004
 05  6 27 17  3  0.0000000  0  9G22G21G18G15G14G 1G 3G19G 9
  20785887.8254    6328000.56444   4942477.23942  20785887.5924   20785882.2674
        57.0004         50.0004
  22227945.0984   18312017.26043  14270521.84542  22227946.4984   22227941.9164
        51.0004         43.0004
  21811709.9554   16450108.91843  12820070.33242  21811711.6224   21811708.1764
        54.0004         46.0004
  20083491.8554    4837488.16544   3773644.00642  20083492.4464   20083490.2154
        57.0004         51.0004
  20923389.3504  -21437171.08343 -16641317.65042  20923390.7224   20923388.2544
        54.0004         49.0004
  23454658.2534   -7273667.59243  -5598119.24942  23454659.7584   23454658.6174
        47.0004         42.0004
  22025558.5064  -10494491.70043  -8172772.13042  22025559.2384   22025558.6544
        52.0004         46.0004
  22893988.7414   -7248921.62343  -5609858.79042  22893989.8914   22893982.6904
        49.0004         41.0004
  23120229.9634   -1707765.81643  -1322655.91642  23120231.7594   23120229.4694
        46.0004         40.0004
 05  6 27 17  3 30.0000000  0  9G22G21G18G15G14G 1G 3G19G 9
  20788072.5094    6339483.41844   4951424.91042  20788072.6864   20788067.7334
        57.0004         50.0004
  22242461.8604   18388302.35243  14329964.71642  22242463.8714   22242458.7134
        51.0004         43.0004
  21821383.8434   16500942.86143  12859681.16942  21821384.9024   21821381.7254
        54.0004         46.0004
  20086592.9604    4853784.65844   3786342.56942  20086593.5814   20086591.0384
        57.0004         50.0004
  20912168.2584  -21496138.09443 -16687265.92842  20912170.0304   20912167.4224
        54.0004         49.0004
  23435146.2334   -7376209.01543  -5678021.58242  23435147.7454   23435147.0614
        48.0004         42.0004
  22028210.8374  -10480553.61343  -8161911.29942  22028212.3894   22028209.9374
        53.0004         46.0004
  22884022.8404   -7301286.87943  -5650662.88842  22884024.7584   22884019.4174
        48.0004         41.0004
  23119679.8054   -1710658.15843  -1324909.69542  23119681.2814   23119680.6514
        47.0004         40.0004
 05  6 27 17  4  0.0000000  0  9G22G21G18G15G14G 1G 3G19G 9
  20790291.9484    6351151.96344   4960517.27442  20790292.8234   20790287.9914
        57.0004         50.0004
  22257040.1964   18464906.99843  14389656.59842  22257040.8674   22257037.2654
        51.0004         43.0004
  21831079.0804   16551889.48043  12899379.81942  21831079.5904   21831075.8494
        54.0004         46.0004
  20089777.7754    4870522.35144   3799384.92742  20089778.5554   20089776.4624
        57.0004         51.0004
  20901037.5874  -21554630.32843 -16732844.26542  20901039.3334   20901036.7844
        54.0004         49.0004
  23415672.7164   -7478544.98943  -5757763.80242  23415673.4324   23415673.2254
        49.0004         41.0004
  22030964.4234  -10466084.33743  -8150636.56142  22030965.7684   22030963.8944
        53.0004         46.0004
  22874151.1814   -7353161.03443  -5691084.30242  22874153.8334   22874147.5094
        48.0004         42.0004
  23119243.2264   -1712952.36643  -1326697.38942  23119244.5594   23119242.9474
        46.0004         39.0004
 05  6 27 17  4 30.0000000  0  9G22G21G18G15G14G 1G 3G19G 9
  20792549.9684    6363009.21444   4969756.68542  20792550.0324   20792544.2694
        57.0004         50.0004
  22271678.2334   18541833.97343  14449599.63642  22271679.0024   22271676.7664
        51.0004         43.0004
  21840794.3124   16602951.71643  12939168.54742  21840796.4444   21840793.0674
        53.0004         46.0004
  20093048.2874    4887705.39344   3812774.30742  20093048.8754   20093046.2634
        57.0004         51.0004
  20889998.0284  -21612643.09443 -16778048.99442  20889999.6404   20889996.4714
        54.0004         49.0004
  23396237.4764   -7580670.09643  -5837341.72042  23396240.7634   23396238.7604
        49.0004         41.0004
  22033818.7894  -10451081.31143  -8138945.91442  22033820.3934   22033818.5984
        53.0004         46.0004
  22864375.8244   -7404539.36143  -5731119.35242  22864375.5854   22864370.7084
        49.0004         43.0004
  23118921.8844   -1714644.22143  -1328015.68542  23118922.4004   23118920.8104
        46.0004         39.0004
 05  6 27 17  5  0.0000000  0  9G22G21G18G15G14G 1G 3G19G 9
  20794840.2834    6375051.07544   4979139.95242  20794840.9134   20794835.8394
        57.0004         50.0004
  22286377.4134   18619079.61443  14509790.97742  22286378.0794   22286376.2954
        50.0004         43.0004
  21850533.6394   16654126.25043  12979044.80042  21850534.6804   21850531.4194
        54.0004         46.0004
  20096401.8874    4905331.71344   3826509.10042  20096402.5134   20096400.4154
        57.0004         51.0004
  20879049.8974  -21670178.29843 -16822881.59342  20879051.2764   20879047.8274
        55.0004         49.0004
  23376843.8794   -7682585.09743  -5916755.88742  23376846.1774   23376844.6174
        48.0004         41.0004
  22036775.0004  -10435548.65643  -8126842.56442  22036776.1174   22036775.3324
        53.0004         46.0004
  22854693.2714   -7455423.25343  -5770769.13542  22854694.3354   22854688.5734
        51.0004         44.0004
  23118712.9914   -1715735.89343  -1328866.33142  23118714.0084   23118711.9424
        45.0004         39.0004
 05  6 27 17  5 30.0000000  0  9G22G21G18G15G14G 1G 3G19G 9
  20797168.4084    6387281.93244   4988670.49942  20797168.6194   20797162.6504
        57.0004         50.0004
  22301137.5644   18696647.56943  14570233.47742  22301137.4734   22301135.8284
        49.0004         43.0004
  21860293.2674   16705417.02943  13019011.62542  21860294.7844   21860291.5774
        53.0004         46.0004
  20099842.0734    4923406.54844   3840593.38942  20099842.7124   20099840.3084
        57.0004         51.0004
  20868192.8424  -21727230.06543 -16867337.48342  20868194.7254   20868191.4134
        55.0004         49.0004
  23357490.9064   -7784283.19043  -5996001.10142  23357492.3234   23357491.2504
        47.0004         41.0004
  22039832.6104  -10419482.76243  -8114323.69042  22039833.5694   22039832.7094
        53.0004         46.0004
  22845104.4484   -7505806.23043  -5810028.58742  22845106.7414   22845100.6174
        51.0004         44.0004
  23118620.7494   -1716221.63243  -1329244.82942  23118623.9254   23118620.5194
        45.0004         39.0004
 05  6 27 17  6  0.0000000  0  9G22G21G18G15G14G 1G 3G19G 9
  20799529.8434    6399695.92144   4998343.74142  20799530.3344   20799524.6764
        57.0004         50.0004
  22315960.0794   18774532.03643  14630922.59842  22315960.1054   22315958.5444
        50.0004         43.0004
  21870075.5654   16756818.94343  13059065.04442  21870076.2264   21870073.9204
        54.0004         46.0004
  20103365.4564    4941925.57544   3855023.79942  20103366.4084   20103364.1274
        57.0004         51.0004
  20857428.1974  -21783802.37843 -16911419.78142  20857429.5774   20857426.0634
        55.0004         49.0004
  23338178.5494   -7885767.50643  -6075079.73042  23338179.8304   23338180.5924
        47.0004         40.0004
  22042990.3524  -10402889.81743  -8101394.14242  22042991.5344   22042989.3514
        53.0004         46.0004
  22835611.4224   -7555691.56843  -5848900.27842  22835612.9184   22835608.6454
        51.0004         44.0004
  23118642.7824   -1716105.86343  -1329154.61842  23118645.2054   23118642.4654
        46.0004         40.0004
 05  6 27 17  6 30.0000000  0  9G22G21G18G15G14G 1G 3G19G 9
  20801927.4204    6412293.78043   5008160.25542  20801927.7264   20801922.0944
        56.0004         50.0004
  22330841.3454   18852734.18243  14691859.26542  22330841.3394   22330839.7764
        50.0004         42.0004
  21879877.4524   16808332.69143  13099205.60842  21879878.8534   21879876.1544
        53.0004         46.0004
  20106974.4404    4960891.27643   3869802.25542  20106975.0644   20106973.2234
        56.0004         50.0004
  20846754.2974  -21839892.42143 -16955126.28642  20846756.0254   20846752.1094
        55.0004         49.0004
  23318909.0014   -7987034.30543  -6153988.86442  23318908.5954   23318911.9694
        46.0004         40.0004
  22046248.0824  -10385769.01943  -8088053.30242  22046250.0344   22046248.1454
        53.0004         46.0004
  22826213.8234   -7605076.59843  -5887382.10042  22826214.9174   22826212.2444
        50.0004         45.0004
  23118779.3274   -1715386.15943  -1328593.79442  23118781.1304   23118780.2684
        46.0004         40.0004
 05  6 27 17  7  0.0000000  0  9G22G21G18G15G14G 1G 3G19G 9
  20804360.1754    6425075.66043   5018120.17042  20804360.0384   20804354.4384
        56.0004         49.0004
  22345782.5644   18931253.60343  14753043.15142  22345783.1584   22345781.6974
        49.0004         41.0004
  21889702.6334   16859958.22243  13139433.27342  21889703.7384   21889700.7994
        53.0004         46.0004
  20110668.7414    4980305.04343   3884929.87542  20110669.4594   20110667.0674
        56.0004         50.0004
  20836172.4124  -21895498.61343 -16998455.76042  20836174.4344   20836170.9824
        55.0004         49.0004
  23299680.6844   -8088080.88443  -6232726.41242  23299680.3924   23299679.6584
        47.0004         39.0004
  22049605.6294  -10368121.25343  -8074301.82842  22049606.5714   22049605.9164
        52.0004         46.0004
  22816912.4964   -7653958.65943  -5925472.00242  22816912.3624   22816909.4154
        51.0004         45.0004
  23119031.3284   -1714061.36543  -1327561.49842  23119034.0724   23119030.4944
        46.0004         40.0004
 05  6 27 17  7 30.0000000  0  9G22G21G18G15G14G 1G 3G19G 9
  20806826.2834    6438040.44943   5028222.60542  20806826.7224   20806821.6154
        56.0004         49.0004
  22360784.0034   19010088.84943  14814473.14342  22360783.7854   22360782.2314
        48.0004         41.0004
  21899547.2424   16911694.68943  13179747.39342  21899548.6184   21899545.2214
        54.0004         46.0004
  20114448.7024    5000167.07543   3900406.78042  20114448.7474   20114447.0354
        56.0004         50.0004
  20825683.5674  -21950620.36443 -17041407.74742  20825684.8674   20825682.0674
        55.0004         49.0004
  23280492.5524   -8188905.77643  -6311291.22342  23280495.9164   23280494.7484
        46.0004         39.0004
  22053063.6314  -10349947.92543  -8060140.83942  22053064.8444   22053064.1364
        52.0004         46.0004
  22807705.7644   -7702336.81043  -5963169.24842  22807707.2124   22807703.7494
        51.0004         45.0004
  23119399.5634   -1712131.07043  -1326057.39342  23119400.0994   23119397.7134
        47.0004         39.0004
 05  6 27 17  8  0.0000000  0  9G22G21G18G15G14G 1G 3G19G 9
  20809328.0474    6451188.37643   5038467.74442  20809328.9264   20809323.8394
        56.0004         49.0004
  22375846.7924   19089240.39743  14876149.62842  22375845.0554   22375844.6174
        49.0004         41.0004
  21909414.6884   16963542.79443  13220148.48642  21909415.7024   21909411.1874
        54.0004         46.0004
  20118313.9934    5020478.99843   3916234.24842  20118314.1344   20118311.7204
        56.0004         50.0004
  20815286.4804  -22005255.47743 -17083980.53442  20815288.2224   20815284.9504
        55.0004         49.0004
  23261349.8194   -8289505.68443  -6389680.71142  23261351.8174   23261351.5184
        47.0004         40.0004
  22056623.6664  -10331248.95843  -8045570.22842  22056624.9614   22056621.5774
        53.0004         46.0004
  22798597.2364   -7750208.40943  -6000471.78042  22798597.5604   22798592.7914
        51.0004         45.0004
  23119880.3814   -1709593.33543  -1324079.93642  23119881.7724   23119881.8444
        44.0004         39.0004
 05  6 27 17  8 30.0000000  0  9G22G21G18G15G14G 1G 3G19G 9
  20811864.3834    6464513.29143   5048850.79142  20811864.5954   20811859.7144
        56.0004         49.0004
  22390968.0524   19168701.75843  14938067.51842  22390968.7504   22390964.7564
        50.0004         41.0004
  21919300.0944   17015496.88643  13260632.19342  21919301.6284   21919297.4784
        54.0004         46.0004
  20122263.6534    5041235.82943   3932408.39442  20122264.4394   20122261.8664
        56.0004         50.0004
  20804981.7524  -22059408.45643 -17126177.63542  20804983.3164   20804979.9814
        55.0004         49.0004
  23242248.9664   -8389884.23443  -6467897.70242  23242249.9114   23242249.2264
        45.0004         39.0004
  22060280.1864  -10312031.33743  -8030595.47942  22060281.4094   22060278.3004
        53.0004         45.0004
  22789581.8694   -7797577.57743  -6037382.80642  22789583.6304   22789578.2484
        50.0004         44.0004
  23120480.1234   -1706453.12143  -1321633.04142  23120481.0934   23120479.2194
        46.0004         39.0004
 05  6 27 17  9  0.0000000  0  9G22G21G18G15G14G 1G 3G19G 9
  20814435.1414    6478020.91243   5059376.20942  20814434.9804   20814429.7684
        56.0004         50.0004
  22406149.3114   19248478.44243  15000231.13542  22406150.3684   22406148.1924
        50.0004         41.0004
  21929207.5964   17067562.19643  13301202.55442  21929210.2204   21929204.3104
        53.0004         45.0004
  20126299.2814    5062444.62643   3948934.72342  20126300.1784   20126297.9934
        56.0004         50.0004
  20794769.8524  -22113071.98243 -17167993.34442  20794771.2424   20794768.2164
        55.0004         49.0004
  23223191.0174   -8490033.04643  -6545935.66942  23223193.5474   23223189.3934
        46.0004         39.0004
  22064037.8824  -10292290.17543  -8015212.77842  22064039.9994   22064034.5904
        54.0004         45.0004
  22780665.7224   -7844436.24843  -6073896.04742  22780666.8534   22780662.3014
        50.0004         44.0004
  23121193.7414   -1702703.53743  -1318711.33942  23121196.3524   23121192.0054
        48.0004         40.0004
 05  6 27 17  9 30.0000000  0  9G22G21G18G15G14G 1G 3G19G 9
  20817040.0994    6491712.25043   5070044.77442  20817040.6824   20817035.2094
        56.0004         50.0004
  22421389.4344   19328571.37943  15062641.16442  22421389.9544   22421389.2914
        49.0004         41.0004
  21939137.2144   17119740.48243  13341860.93842  21939138.6834   21939133.6924
        53.0004         45.0004
  20130421.9194    5084107.62543   3965814.97242  20130422.6494   20130420.4894
        56.0004         50.0004
  20784651.4364  -22166243.73743 -17209425.86042  20784653.2674   20784649.7674
        55.0004         49.0004
  23204178.6264   -8589948.49043  -6623791.77142  23204181.2024   23204180.3614
        48.0004         41.0004
  22067893.3964  -10272024.72143  -7999421.54142  22067895.1724   22067890.3514
        54.0004         45.0004
  22771846.2384   -7890781.46043  -6110009.17842  22771847.7714   22771842.7644
        50.0004         44.0004
  23122022.4194   -1698342.24743  -1315312.94542  23122025.6004   23122022.4484
        47.0004         40.0004
 05  6 27 17 10  0.0000000  0  9G22G21G18G15G14G 1G 3G19G 9
  20819678.9434    6505577.76244   5080849.07442  20819679.4944   20819674.0544
        57.0004         50.0004
  22436689.2104   19408970.68043  15125289.91642  22436688.6724   22436687.1974
        48.0004         40.0004
  21949086.0294   17172022.05843  13382599.79742  21949087.1644   21949083.0794
        54.0004         45.0004
  20134629.5964    5106216.67944   3983042.80642  20134629.8444   20134627.4514
        57.0004         50.0004
  20774625.8474  -22218931.01543 -17250480.86142  20774627.1924   20774623.7244
        55.0004         49.0004
  23185207.6614   -8689637.40643  -6701471.41742  23185210.7614   23185211.1224
        48.0004         41.0004
  22071847.1384  -10251245.10443  -7983229.63742  22071849.3784   22071845.6134
        53.0004         45.0004
  22763124.1134   -7936620.46843  -6145727.91042  22763125.4984   22763121.0474
        51.0004         44.0004
  23122969.6584   -1693377.52043  -1311444.36942  23122969.5184   23122967.8064
        48.0004         41.0004
 05  6 27 17 10 30.0000000  0  9G22G21G18G15G14G 1G 3G19G 9
  20822351.9354    6519626.00344   5091795.74342  20822352.3154   20822347.1764
        57.0004         50.0004
  22452048.7194   19489684.60043  15188183.81342  22452048.7224   22452045.9244
        49.0004         40.0004
  21959055.4054   17224415.57443  13423425.89942  21959058.2634   21959053.4034
        53.0004         46.0004
  20138923.3404    5128781.48344   4000625.76442  20138924.1184   20138920.8984
        57.0004         50.0004
  20764693.6414  -22271124.02043 -17291150.71242  20764695.0374   20764692.3674
        55.0004         49.0004
  23166282.4504   -8789088.62843  -6778965.83642  23166284.2854   23166283.3894
        48.0004         41.0004
  22075901.2834  -10229943.39443  -7966630.91642  22075902.6714   22075899.2384
        53.0004         45.0004
  22754499.2694   -7981942.93343  -6181044.11942  22754500.8184   22754494.7084
        52.0004         44.0004
  23124028.0384   -1687799.76043  -1307098.07342  23124028.3584   23124030.1914
        46.0004         40.0004
 05  6 27 17 11  0.0000000  0  9G22G21G18G15G14G 1G 3G19G 9
  20825059.2984    6533849.46044   5102878.94642  20825059.3864   20825053.5274
        57.0004         50.0004
  22467466.4834   19570705.51143  15251316.93042  22467465.9074   22467465.6384
        47.0004         40.0004
  21969046.9394   17276913.88343  13464333.66642  21969048.3784   21969044.1884
        54.0004         46.0004
  20143302.5784    5151796.06944   4018559.20342  20143303.4464   20143301.1024
        57.0004         50.0004
  20754854.3824  -22322828.47443 -17331439.87342  20754855.8014   20754852.7824
        55.0004         49.0004
  23147402.4014   -8888306.94743  -6856278.74942  23147403.4444   23147402.5664
        49.0004         41.0004
  22080053.1204  -10208127.80243  -7949631.76842  22080053.8594   22080051.2194
        54.0004         46.0004
  22745971.2224   -8026754.07243  -6215961.90842  22745973.6054   22745967.4824
        52.0004         45.0004
  23125206.0654   -1681615.18043  -1302278.96842  23125207.1414   23125206.4864
        46.0004         40.0004
 05  6 27 17 11 30.0000000  0  9G22G21G18G15G14G 1G 3G19G 9
  20827800.0994    6548253.35444   5114102.76542  20827800.6074   20827794.8344
        57.0004         50.0004
  22482944.0224   19652038.45143  15314693.18242  22482944.7724   22482940.8244
        48.0004         40.0004
  21979056.9134   17329522.67743  13505327.52242  21979058.4854   21979055.5684
        53.0004         46.0004
  20147769.0854    5175266.71444   4036848.01942  20147770.0904   20147767.2624
        57.0004         51.0004
  20745109.6724  -22374037.67443 -17371343.12642  20745111.5344   20745107.7334
        55.0004         49.0004
  23128567.7364   -8987284.46443  -6933404.05542  23128569.7624   23128571.2704
        49.0004         42.0004
  22084302.3634  -10185793.65943  -7932228.55942  22084304.7724   22084301.0214
        53.0004         45.0004
  22737544.1474   -8071046.55243  -6250475.53142  22737545.0864   22737539.0474
        52.0004         45.0004
  23126500.4804   -1674817.43043  -1296982.05342  23126502.3994   23126500.2474
        47.0004         40.0004
 05  6 27 17 12  0.0000000  0  9G22G21G18G15G14G 1G 3G19G 9
  20830573.8764    6562831.96944   5125462.72242  20830574.2254   20830568.9364
        57.0004         50.0004
  22498479.9264   19733677.32443  15378307.81242  22498480.2884   22498479.0274
        48.0004         40.0004
  21989087.6814   17382236.16543  13546402.92642  21989089.8564   21989086.4314
        53.0004         46.0004
  20152321.0904    5199188.81244   4055488.60242  20152322.0354   20152319.5654
        57.0004         50.0004
  20735457.7934  -22424756.18943 -17410864.02042  20735459.7744   20735456.1934
        54.0004         49.0004
  23109777.5874   -9086024.39143  -7010344.21142  23109778.4724   23109780.3944
        48.0004         42.0004
  22088649.2704  -10162947.68743  -7914426.54442  22088650.6334   22088648.5294
        52.0004         45.0004
  22729213.0384   -8114824.17243  -6284587.95642  22729214.7214   22729209.2434
        52.0004         45.0004
  23127908.5004   -1667411.17243  -1291210.97842  23127911.1194   23127907.8694
        46.0004         40.0004
 05  6 27 17 12 30.0000000  0  9G22G21G18G15G14G 1G 3G19G 9
  20833381.7464    6577589.32143   5136961.95642  20833382.4974   20833376.9854
        56.0004         50.0004
  22514074.6304   19815625.68443  15442163.58942  22514072.3314   22514071.1214
        47.0004         39.0004
  21999140.1734   17435058.36943  13587563.05242  21999141.4784   21999137.4854
        53.0004         46.0004
  20156960.0534    5223567.58744   4074485.05342  20156961.0704   20156958.4164
        57.0004         50.0004
  20725900.7014  -22474978.49643 -17449998.25942  20725902.4784   20725899.1004
        54.0004         49.0004
  23091035.1814   -9184520.06643  -7087094.04542  23091038.0014   23091035.2934
        50.0004         42.0004
  22093095.0674  -10139586.61443  -7896223.14042  22093095.7244   22093094.3394
        52.0004         45.0004
  22720981.7064   -8158080.78543  -6318294.40042  22720982.8384   22720978.8594
        53.0004         46.0004
  23129435.7204   -1659391.31543  -1284961.75242  23129436.1464   23129433.1854
        46.0004         40.0004
 05  6 27 17 13  0.0000000  0  9G22G21G18G15G14G 1G 3G19G 9
  20836223.2054    6592519.26243   5148595.68042  20836223.9374   20836217.8604
        56.0004         49.0004
  22529725.1954   19897877.30843  15506255.71542  22529726.3944   22529723.6974
        47.0004         39.0004
  22009211.6864   17487983.80743  13628803.62542  22009213.3484   22009209.6604
        53.0004         46.0004
  20161685.1344    5248397.98244   4093833.41542  20161686.1794   20161684.0034
        57.0004         50.0004
  20716437.1064  -22524708.84243 -17488749.14842  20716438.9734   20716435.7644
        54.0004         49.0004
  23072335.4124   -9282775.00443  -7163656.24842  23072337.1254   23072337.2104
        48.0004         42.0004
  22097637.7224  -10115716.98743  -7877623.45842  22097638.4934   22097636.6034
        52.0004         45.0004
  22712848.0584   -8200820.92343  -6351598.40142  22712849.2564   22712845.5784
        53.0004         47.0004
  23131077.2904   -1650763.01043  -1278238.42742  23131079.6124   23131076.6674
        47.0004         40.0004
 05  6 27 17 13 30.0000000  0  9G22G21G18G15G14G 1G 3G19G 9
  20839097.6874    6607626.83043   5160367.80042  20839098.4364   20839093.0744
        56.0004         49.0004
  22545437.3134   19980436.66643  15570587.62342  22545436.8924   22545434.7304
        47.0004         39.0004
  22019303.6704   17541017.30643  13670128.42442  22019304.0154   22019301.1214
        53.0004         45.0004
  20166497.2454    5273685.78944   4113538.19242  20166498.3844   20166495.9384
        57.0004         50.0004
  20707069.1604  -22573940.94243 -17527111.80042  20707070.7054   20707067.0484
        54.0004         49.0004
  23053685.9394   -9380781.92343  -7240025.18742  23053687.1724   23053686.9814
        48.0004         42.0004
  22102277.2394  -10091334.99843  -7858624.54042  22102277.9594   22102275.7224
        52.0004         45.0004
  22704815.6404   -8243037.59243  -6384494.49542  22704816.4914   22704811.7294
        53.0004         47.0004
  23132835.6584   -1641520.50343  -1271036.50842  23132838.3074   23132835.8454
        47.0004         41.0004
 05  6 27 17 14  0.0000000  0  9G22G21G18G15G14G 1G 3G19G 9
  20842006.0314    6622906.85744   5172274.30742  20842006.1594   20842000.8594
        57.0004         50.0004
  22561204.4174   20063298.07143  15635154.94142  22561204.8344   22561203.8064
        47.0004         39.0004
  22029414.9254   17594153.93443  13711533.56342  22029415.5564   22029412.9234
        52.0004         45.0004
  20171395.6894    5299427.11844   4133596.37042  20171396.1634   20171394.4184
        57.0004         50.0004
  20697794.2114  -22622678.72943 -17565089.27042  20697795.5904   20697792.2774
        54.0004         49.0004
  23035082.7054   -9478543.32543  -7316202.86042  23035083.4244   23035084.3594
        47.0004         42.0004
  22107012.9184  -10066446.48543  -7839230.94642  22107015.0054   22107012.9364
        52.0004         45.0004
  22696880.4324   -8284733.82743  -6416985.06542  22696882.8724   22696877.5874
        53.0004         47.0004
  23134710.9124   -1631667.86143  -1263359.15242  23134713.2004   23134710.9754
        47.0004         41.0004
 05  6 27 17 14 30.0000000  0  9G22G21G18G15G14G 1G 3G19G 9
  20844946.8844    6638362.65244   5184317.77642  20844947.2444   20844941.6254
        57.0004         50.0004
  22577030.0864   20146464.87343  15699960.16842  22577032.4124   22577027.3564
        47.0004         38.0004
  22039547.0084   17647397.34843  13753021.93842  22039547.5864   22039544.6434
        52.0004         45.0004
  20176380.9684    5325626.54944   4154011.50442  20176382.0104   20176379.8994
        57.0004         50.0004
  20688615.5314  -22670917.33243 -17602677.77042  20688616.8654   20688613.1954
        55.0004         49.0004
  23016527.0294   -9576053.25443  -7392184.54242  23016529.7214   23016530.7884
        47.0004         42.0004
  22111847.1074  -10041048.83743  -7819440.60942  22111848.2304   22111845.1884
        52.0004         45.0004
  22689046.6124   -8325904.47043  -6449066.07842  22689048.5124   22689042.5734
        53.0004         47.0004
  23136703.2214   -1621200.55343  -1255202.80742  23136705.3354   23136701.8334
        46.0004         40.0004
 05  6 27 17 15  0.0000000  0  9G22G21G18G15G14G 1G 3G19G 9
  20847920.5054    6653988.19344   5196493.51542  20847920.5064   20847915.0294
        57.0004         50.0004
  22592914.9104   20229930.64343  15764998.39742  22592913.2714   22592909.5404
        48.0004         38.0004
  22049699.1194   17700741.67543  13794588.92042  22049698.9374   22049696.0364
        52.0004         45.0004
  20181453.8054    5352279.03744   4174779.66842  20181454.1194   20181451.8284
        57.0004         50.0004
  20679529.9344  -22718661.47243 -17639880.96842  20679531.7184   20679527.5104
        55.0004         49.0004
  22998018.7114   -9673315.24943  -7467973.01942  22998019.8064   22998020.2094
        47.0004         42.0004
  22116775.2384  -10015149.19843  -7799259.09042  22116777.1494   22116773.8634
        52.0004         45.0004
  22681309.4214   -8366553.74143  -6480740.82742  22681312.0544   22681307.8744
        51.0004         47.0004
  23138810.7364   -1610123.95143  -1246571.69842  23138812.5334   23138810.2674
        47.0004         39.0004
 05  6 27 17 15 30.0000000  0  9G22G21G18G15G14G 1G 3G19G 9
  20850927.4734    6669791.54443   5208807.81242  20850928.1184   20850922.0794
        56.0004         50.0004
  22608856.0004   20313702.95243  15830275.44542  22608858.1244   22608852.3934
        47.0004         38.0004
  22059870.2984   17754195.55243  13836241.26742  22059871.4744   22059867.8274
        53.0004         45.0004
  20186613.1204    5379393.72644   4195907.99542  20186614.1234   20186611.3394
        57.0004         51.0004
  20670539.9454  -22765901.65043 -17676691.47142  20670541.7964   20670537.9964
        55.0004         49.0004
  22979558.9784   -9770318.66343  -7543560.05542  22979560.5484   22979561.0884
        47.0004         42.0004
  22121800.5074   -9988740.32743  -7778680.77442  22121801.9144   22121799.7004
        52.0004         45.0004
  22673676.2124   -8406671.47143  -6512001.38642  22673677.7284   22673673.0424
        51.0004         46.0004
  23141035.3274   -1598428.96643  -1237458.77142  23141037.8084   23141034.7954
        45.0004         39.0004
 05  6 27 17 16  0.0000000  0  9G22G21G18G15G14G 1G 3G19G 9
  20853966.4124    6685763.42543   5221253.42342  20853967.1894   20853961.9974
        56.0004         50.0004
  22624851.4254   20397772.07643  15895783.79842  22624853.3174   22624853.1194
        46.0004         38.0004
  22070061.3544   17807749.24943  13877971.38442  22070062.7504   22070059.1484
        53.0004         45.0004
  20191859.0604    5406962.34544   4217390.02642  20191860.0354   20191857.2034
        57.0004         50.0004
  20661645.3664  -22812646.25043 -17713115.80642  20661646.7534   20661642.9624
        55.0004         49.0004
  22961149.1284   -9867070.27343  -7618950.85342  22961150.1144   22961149.3694
        48.0004         42.0004
  22126920.5444   -9961832.33443  -7757713.52942  22126922.1174   22126920.0004
        52.0004         45.0004
  22666141.4344   -8446265.32043  -6542853.72142  22666142.9234   22666139.1194
        50.0004         46.0004
  23143378.1114   -1586124.14743  -1227870.60342  23143380.1194   23143376.9284
        47.0004         40.0004
 05  6 27 17 16 30.0000000  0  9G22G21G18G15G14G 1G 3G19G 9
  20857040.2784    6701909.25844   5233834.59142  20857039.8964   20857034.5254
        57.0004         50.0004
  22640907.9684   20482142.78843  15961527.13142  22640910.7384   22640907.9514
        47.0004         37.0004
  22080272.6394   17861409.10943  13919784.25042  22080273.6394   22080269.2924
        53.0004         45.0004
  20197193.4384    5434991.18344   4239230.67342  20197193.8104   20197191.1434
        57.0004         50.0004
  20652845.3784  -22858888.03343 -17749148.33242  20652847.0084   20652843.9034
        55.0004         50.0004
  22942785.8054   -9963562.36043  -7694139.44042  22942787.7474   22942788.7384
        47.0004         42.0004
  22132137.1464   -9934420.86343  -7736353.95642  22132137.1324   22132136.5234
        52.0004         45.0004
  22658708.0214   -8485328.23443  -6573292.32742  22658708.5104   22658705.2224
        50.0004         45.0004
  23145837.6644   -1573203.54543  -1217802.58842  23145838.7724   23145834.5194
        47.0004         40.0004
 05  6 27 17 17  0.0000000  0  9G22G21G18G15G14G 1G 3G19G 9
  20860143.2604    6718219.56843   5246543.92342  20860143.5034   20860138.2284
        56.0004         49.0004
  22657020.2194   20566805.62943  16027498.11542  22657019.1574   22657017.6934
        47.0004         38.0004
  22090501.3854   17915165.16643  13961672.05142  22090503.6254   22090499.0304
        53.0004         45.0004
  20202612.7594    5463472.08444   4261423.58342  20202613.6964   20202611.1044
        57.0004         51.0004
  20644139.9894  -22904635.12843 -17784795.39342  20644141.2844   20644138.7324
        55.0004         50.0004
  22924473.2684  -10059801.51043  -7769130.92742  22924474.9714   22924472.0984
        48.0004         41.0004
  22137447.3304   -9906516.06743  -7714609.96642  22137448.7294   22137445.4064
        52.0004         45.0004
  22651373.4404   -8523867.43543  -6603322.85842  22651374.8254   22651371.4164
        50.0004         45.0004
  23148409.6664   -1559675.44943  -1207261.22942  23148411.2094   23148408.7724
        47.0004         40.0004
 05  6 27 17 17 30.0000000  0  9G22G21G18G15G14G 1G 3G19G 9
  20863281.0014    6734708.60843   5259392.52542  20863281.2034   20863275.9954
        56.0004         49.0004
  22673187.3214   20651773.99043  16093707.13642  22673187.5374   22673187.3164
        46.0004         38.0004
  22100751.8484   17969031.90043  14003646.11442  22100754.2224   22100749.5044
        53.0004         45.0004
  20208121.4094    5492420.19644   4283980.54042  20208122.0814   20208119.8014
        57.0004         50.0004
  20635531.2844  -22949872.44643 -17820045.22842  20635532.8784   20635530.3504
        55.0004         50.0004
  22906211.2064  -10155771.25643  -7843912.45942  22906211.7884   22906211.8714
        49.0004         42.0004
  22142853.5934   -9878105.10743  -7692471.56842  22142855.1784   22142853.2734
        52.0004         45.0004
  22644143.2284   -8561867.45843  -6632933.27142  22644144.0594   22644138.6794
        51.0004         45.0004
  23151101.6434   -1545525.19743  -1196235.11042  23151106.5724   23151103.6054
        47.0004         40.0004
 05  6 27 17 18  0.0000000  0  9G22G21G18G15G14G 1G 3G19G 9
  20866450.2074    6751363.83743   5272370.62142  20866450.9624   20866445.0324
        56.0004         49.0004
  22689411.1054   20737035.13343  16160144.35142  22689413.8794   22689411.2234
        45.0004         38.0004
  22111022.4404   18022997.32543  14045697.09142  22111025.2344   22111018.7364
        53.0004         45.0004
  20213716.7864    5521823.76044   4306892.39742  20213717.5454   20213714.8314
        57.0004         50.0004
  20627018.2254  -22994611.11343 -17854906.50742  20627019.6914   20627016.4124
        55.0004         50.0004
  22887996.5084  -10251481.50543  -7918491.80542  22887996.6384   22887999.2154
        48.0004         42.0004
  22148353.1924   -9849201.27643  -7669949.12642  22148354.8714   22148353.9634
        52.0004         45.0004
  22637012.1624   -8599339.15443  -6662132.02042  22637012.9594   22637007.8654
        51.0004         44.0004
  23153911.7514   -1530764.49543  -1184733.27142  23153914.3434   23153912.5034
        47.0004         41.0004
 05  6 27 17 18 30.0000000  0  9G22G21G18G15G14G 1G 3G19G 9
  20869651.9414    6768188.33244   5285480.61242  20869652.4134   20869647.0264
        57.0004         50.0004
  22705693.8204   20822591.34043  16226811.48342  22705695.2424   22705692.0424
        44.0004         38.0004
  22121310.7094   18077064.85543  14087827.62842  22121311.5004   22121308.1934
        53.0004         45.0004
  20219399.2574    5551686.85844   4330162.33842  20219400.2304   20219397.5644
        57.0004         50.0004
  20618600.7204  -23038846.91043 -17889375.93942  20618602.2454   20618598.2784
        56.0004         50.0004
  22869834.9704  -10346926.81343  -7992864.73942  22869835.8524   22869834.3684
        48.0004         41.0004
  22153947.9054   -9819802.82343  -7647041.27242  22153948.3874   22153947.4904
        51.0004         45.0004
  22629982.8554   -8636277.60743  -6690915.24642  22629983.5404   22629978.6934
        51.0004         44.0004
  23156837.9704   -1515389.68543  -1172752.89942  23156838.7354   23156839.4834
        46.0004         40.0004
 05  6 27 17 19  0.0000000  0  9G22G21G18G15G14G 1G 3G19G 9
  20872885.7434    6785179.22744   5298720.26242  20872885.9734   20872880.2134
        57.0004         50.0004
  22722030.8164   20908439.58343  16293706.16642  22722030.1844   22722027.9964
        45.0004         37.0004
  22131616.5004   18131231.73743  14130035.57842  22131619.1304   22131614.9504
        52.0004         45.0004
  20225169.2494    5582007.54143   4353788.83642  20225169.7904   20225167.4994
        56.0004         50.0004
  20610278.0514  -23082581.66743 -17923454.95542  20610279.7514   20610276.0244
        55.0004         50.0004
  22851723.9154  -10442107.68743  -8067031.55842  22851724.9014   22851722.0224
        50.0004         42.0004
  22159636.3664   -9789913.59543  -7623751.00042  22159637.2174   22159635.6084
        52.0004         45.0004
  22623054.6534   -8672683.90843  -6719283.81942  22623056.4064   22623050.9014
        51.0004         44.0004
  23159880.3584   -1499403.11243  -1160295.80542  23159882.1234   23159880.2754
        48.0004         41.0004
 05  6 27 17 19 30.0000000  0  9G22G21G18G15G14G 1G 3G19G 9
  20876151.3454    6802341.88643   5312093.76142  20876151.6824   20876145.8874
        56.0004         50.0004
  22738422.9494   20994584.36643  16360831.92542  22738425.6744   22738419.3704
        44.0004         36.0004
  22141945.6744   18185503.29243  14172325.08342  22141946.9224   22141942.5644
        53.0004         45.0004
  20231027.1654    5612792.11443   4377776.79642  20231027.6614   20231025.7994
        56.0004         50.0004
  20602051.9504  -23125808.66043 -17957138.30842  20602053.8434   20602050.6394
        55.0004         50.0004
  22833661.3354  -10537016.26343  -8140986.20142  22833662.6244   22833662.1334
        50.0004         42.0004
  22165418.4464   -9759529.20143  -7600074.88342  22165419.7914   22165417.6174
        53.0004         45.0004
  22616230.0604   -8708551.09743  -6747232.28542  22616231.8784   22616226.4604
        51.0004         45.0004
  23163039.1064   -1482798.83643  -1147357.42442  23163041.3914   23163040.5824
        47.0004         41.0004
 05  6 27 17 20  0.0000000  0  9G22G21G18G15G14G 1G 3G19G 9
  20879448.8254    6819669.76744   5325596.00742  20879449.1344   20879443.5874
        57.0004         50.0004
  22754873.3174   21081018.78343  16428183.37042  22754870.6254   22754868.1244
        44.0004         36.0004
  22152292.0054   18239873.40043  14214691.37142  22152292.5004   22152288.8454
        53.0004         45.0004
  20236972.8854    5644034.60144   4402121.58042  20236973.5384   20236971.2354
        57.0004         50.0004
  20593921.8154  -23168533.86543 -17990430.65242  20593923.5694   20593919.8444
        55.0004         50.0004
  22815651.2874  -10631656.76643  -8214732.02242  22815652.2654   22815655.4964
        49.0004         42.0004
  22171292.9154   -9728657.44643  -7576019.03342  22171294.5674   22171292.3204
        53.0004         45.0004
  22609505.3154   -8743884.21043  -6774764.57942  22609507.0484   22609503.5944
        50.0004         45.0004
  23166315.8074   -1465582.50643  -1133942.14642  23166316.4094   23166317.1204
        47.0004         41.0004
 05  6 27 17 20 30.0000000  0  9G22G21G18G15G14G 1G 3G19G 9
  20882777.6394    6837165.41643   5339228.97242  20882778.4304   20882773.1874
        56.0004         50.0004
  22771376.0914   21167744.98843  16495762.14442  22771374.2704   22771373.4504
        43.0004         35.0004
  22162656.8414   18294344.88043  14257136.67642  22162657.8884   22162655.6514
        52.0004         45.0004
  20243006.2734    5675738.66444   4426826.03742  20243006.6094   20243004.0354
        57.0004         50.0004
  20585887.7474  -23210752.87143 -18023328.55442  20585889.2124   20585885.3294
        55.0004         49.0004
  22797696.1554  -10726024.17843  -8288265.01442  22797697.8684   22797696.8594
        50.0004         42.0004
  22177260.2924   -9697296.87343  -7551582.25942  22177260.8324   22177260.9974
        52.0004         45.0004
  22602885.6204   -8778679.21843  -6801877.56842  22602886.5444   22602882.4864
        51.0004         45.0004
  23169709.7204   -1447751.21943  -1120047.68242  23169710.0094   23169710.2644
        46.0004         40.0004
 05  6 27 17 21  0.0000000  0  9G22G21G18G15G14G 1G 3G19G 9
  20886138.2364    6854824.35643   5352989.18242  20886138.5474   20886133.3464
        56.0004         50.0004
  22787932.4884   21254757.74943  16563564.21642  22787932.8534   22787928.8924
        42.0004         36.0004
  22173041.2934   18348913.36843  14299657.57542  22173042.6574   22173039.7644
        53.0004         45.0004
  20249125.4264    5707900.48244   4451887.19442  20249126.6494   20249124.3084
        57.0004         50.0004
  20577949.1974  -23252469.43543 -18055834.94542  20577950.7484   20577946.8674
        55.0004         49.0004
  22779791.1374  -10820120.73843  -8361586.93942  22779791.7564   22779788.7704
        51.0004         42.0004
  22183320.5574   -9665453.02043  -7526768.88942  22183321.9474   22183320.6764
        52.0004         45.0004
  22596364.8914   -8812938.88443  -6828573.40642  22596366.0534   22596363.2134
        49.0004         45.0004
  23173217.8844   -1429309.18643  -1105677.24942  23173218.1934   23173219.2014
        47.0004         41.0004
 05  6 27 17 21 30.0000000  0  9G22G21G18G15G14G 1G 3G19G 9
  20889531.2084    6872653.04544   5366881.66242  20889531.5014   20889526.2804
        57.0004         50.0004
  22804547.1574   21342062.60843  16631593.90642  22804547.0374   22804543.4034
        44.0004         37.0004
  22183445.3084   18403585.60543  14342259.31142  22183446.4614   22183441.9474
        53.0004         45.0004
  20255334.9824    5740527.15644   4477310.56942  20255335.3754   20255332.7504
        57.0004         50.0004
  20570107.7394  -23293676.34443 -18087944.20642  20570109.4714   20570105.7914
        55.0004         50.0004
  22761936.8044  -10913937.94043  -8434691.16442  22761936.1474   22761936.4844
        50.0004         42.0004
  22189472.8754   -9633121.12743  -7501575.22042  22189474.3054   22189472.0954
        52.0004         45.0004
  22589950.5484   -8846655.52643  -6854846.08742  22589951.5514   22589947.2554
        50.0004         45.0004
  23176845.0644   -1410249.83343  -1090825.78242  23176845.8834   23176843.9014
        46.0004         40.0004
 05  6 27 17 22  0.0000000  0  9G22G21G18G15G14G 1G 3G19G 9
  20892954.8204    6890645.36244   5380901.64142  20892955.5324   20892950.6874
        57.0004         50.0004
  22821212.9634   21429653.38743  16699846.38442  22821214.5864   22821212.5154
        43.0004         37.0004
  22193868.0194   18458355.85543  14384937.37442  22193869.5564   22193864.0934
        53.0004         45.0004
  20261630.7394    5773613.78244   4503092.35542  20261631.2724   20261628.8974
        57.0004         50.0004
  20562362.5204  -23334378.22843 -18119659.94542  20562364.1764   20562360.7564
        55.0004         50.0004
  22744135.8624  -11007478.96643  -8507580.20842  22744136.0844   22744137.6184
        50.0004         43.0004
  22195716.8704   -9600307.75243  -7476006.37242  22195718.5164   22195716.3754
        53.0004         46.0004
  22583635.2994   -8879833.23043  -6880698.81742  22583637.1124   22583633.2784
        51.0004         46.0004
  23180588.6214   -1390578.37743  -1075497.37542  23180590.0074   23180586.5014
        46.0004         40.0004
 05  6 27 17 22 30.0000000  0  9G22G21G18G15G14G 1G 3G19G 9
  20896410.0294    6908802.03344   5395049.69042  20896410.3014   20896405.1464
        57.0004         50.0004
  22837933.7204   21517529.94543  16768321.55742  22837933.1904   22837933.9574
        39.0004         36.0004
  22204306.0244   18513224.45643  14427692.10242  22204309.3264   22204307.0344
        51.0004         44.0004
  20268014.3834    5807161.54544   4529233.46042  20268015.4644   20268013.2564
        57.0004         50.0004
  20554713.8144  -23374573.62843 -18150981.01642  20554714.8594   20554711.7874
        55.0004         50.0004
  22726389.3074  -11100741.21443  -8580252.03642  22726390.7824   22726387.4084
        50.0004         42.0004
  22202052.9924   -9567014.00343  -7450063.22242  22202054.7384   22202051.9384
        53.0004         46.0004
  22577424.9784   -8912470.12743  -6906130.17642  22577426.0784   22577423.2644
        51.0004         46.0004
  23184446.8874   -1370293.81543  -1059691.27442  23184451.4954   23184446.6914
        45.0004         40.0004
 05  6 27 17 23  0.0000000  0  9G22G21G18G15G14G 1G 3G19G 9
  20899897.4444    6927127.62144   5409329.36642  20899897.3544   20899891.9804
        57.0004         49.0004
  22854715.9004    4276075.97453   3333422.30952  22854715.2734   22854713.2674
        42.0004         35.0004
  22214768.3194   18568195.74343  14470526.85642  22214768.9154   22214768.0344
        51.0004         44.0004
  20274487.4874    5841175.65544   4555737.94742  20274488.1194   20274485.9144
        57.0004         50.0004
  20547161.6264  -23414257.13343 -18181903.20142  20547163.5724   20547160.3394
        55.0004         50.0004
  22708695.3434  -11193717.74243  -8652701.19742  22708698.3584   22708695.7154
        50.0004         43.0004
  22208480.3324   -9533236.53843  -7423743.14042  22208481.9584   22208479.8494
        53.0004         46.0004
  22571318.9064   -8944560.35043  -6931135.53342  22571319.8764   22571316.0454
        52.0004         45.0004
  23188427.3424   -1349391.39543  -1043403.66242  23188427.5054   23188425.9434
        47.0004         41.0004
 05  6 27 17 23 30.0000000  0  9G22G21G18G15G14G 1G 3G19G 9
  20903413.5654    6945607.76143   5423729.47742  20903414.0504   20903408.8114
        56.0004         49.0004
  22871546.7394    4364516.70443   3402337.10342  22871546.6574   22871541.7934
        42.0004         36.0004
  22225247.6144   18623256.98343  14513431.71242  22225248.4404   22225244.6184
        52.0004         45.0004
  20281046.2584    5875642.60344   4582595.29842  20281046.7764   20281044.6774
        57.0004         50.0004
  20539705.3524  -23453442.03743 -18212436.87642  20539707.0984   20539703.5354
        55.0004         50.0004
  22691054.5054  -11286420.64243  -8724937.15542  22691056.4804   22691056.8754
        49.0004         43.0004
  22214996.4244   -9498990.75243  -7397058.14042  22214997.8154   22214996.5204
        52.0004         46.0004
  22565314.1504   -8976116.99243  -6955725.12442  22565315.3974   22565310.6644
        52.0004         45.0004
  23192519.4434   -1327885.02843  -1026645.48142  23192521.9754   23192518.0054
        47.0004         41.0004
 05  6 27 17 24  0.0000000  0  9G22G21G18G15G14G 1G 3G19G 9
  20906962.3164    6964255.35943   5438260.06042  20906962.9404   20906957.2574
        56.0004         50.0004
  22888429.7434    4453244.29243   3471475.39142  22888427.1904   22888424.8644
        42.0004         36.0004
  22235745.3654   18678421.14543  14556416.77242  22235745.7154   22235742.0504
        53.0004         45.0004
  20287693.6534    5910576.21744   4609816.28942  20287694.1684   20287692.1324
        57.0004         50.0004
  20532346.2104  -23492114.51343 -18242571.25642  20532347.5854   20532344.5344
        55.0004         50.0004
  22673469.7824  -11378834.46343  -8796947.85542  22673470.1084   22673468.6184
        49.0004         43.0004
  22221605.4994   -9464265.12543  -7369999.25142  22221606.5294   22221603.7434
        52.0004         45.0004
  22559413.1124   -9007125.44843  -6979887.57542  22559413.6074   22559409.5664
        51.0004         45.0004
  23196727.9754   -1305761.70343  -1009406.51642  23196728.8824   23196729.0524
        45.0004         40.0004
 05  6 27 17 24 30.0000000  0  9G22G21G18G15G14G 1G 3G19G 9
  20910542.5294    6983068.55143   5452919.69042  20910542.8924   20910537.2144
        56.0004         49.0004
  22905368.1154    4542256.40343   3540835.37642  22905366.2194   22905363.9844
        42.0004         35.0004
  22246260.7944   18733685.66143  14599480.01242  22246262.5044   22246259.2244
        53.0004         45.0004
  20294430.2814    5945975.11644   4637399.82642  20294430.7104   20294428.5504
        57.0004         50.0004
  20525084.3274  -23530275.56743 -18272307.12342  20525085.4674   20525082.3284
        54.0004         50.0004
  22655938.7734  -11470958.94043  -8868733.09842  22655940.2644   22655940.1654
        50.0004         43.0004
  22228304.2684   -9429062.84043  -7342568.95442  22228305.6094   22228304.4004
        51.0004         45.0004
  22553617.7454   -9037586.16543  -7003623.22742  22553618.5784   22553613.2354
        52.0004         45.0004
  23201055.1374   -1283022.86043   -991687.92242  23201056.1354   23201057.0224
        46.0004         41.0004
 05  6 27 17 25  0.0000000  0  9G22G21G18G15G14G 1G 3G19G 9
  20914152.3764    7002037.59743   5467700.76242  20914152.3654   20914147.3434
        56.0004         50.0004
  22922358.2804    4631542.26943   3610408.70242  22922357.2634   22922352.8674
        39.0004         34.0004
  22256795.1764   18789041.73443  14642614.58142  22256796.6664   22256793.3884
        53.0004         45.0004
  20301252.9354    5981830.02744   4665338.70442  20301253.7494   20301251.4604
        57.0004         50.0004
  20517918.0544  -23567934.04243 -18301651.37542  20517919.7794   20517916.1874
        54.0004         50.0004
  22638461.2934  -11562801.59743  -8940298.73142  22638463.0974   22638460.7324
        50.0004         42.0004
  22235090.4694   -9393395.13943  -7314775.98542  22235091.8154   22235091.3134
        52.0004         45.0004
  22547923.1404   -9067507.63043  -7026938.66542  22547924.7364   22547919.2094
        51.0004         45.0004
  23205497.4514   -1259678.03243   -973497.13142  23205498.6194   23205497.3134
        46.0004         41.0004
 05  6 27 17 25 30.0000000  0  9G22G21G18G15G14G 1G 3G19G 9
  20917793.5424    7021173.44544   5482611.81242  20917794.2184   20917788.9314
        57.0004         50.0004
  22939404.383                     3680203.24952                  22939397.3744
        37.000          33.0004
  22267348.1914   18844500.00343  14685828.78242  22267350.4384   22267346.4544
        52.0004         45.0004
  20308165.0564    6018152.30844   4693641.77542  20308165.8754   20308163.2734
        57.0004         50.0004
  20510849.5894  -23605078.49843 -18330595.08242  20510851.1004   20510847.8544
        54.0004         50.0004
  22621039.8554  -11654349.66443  -9011634.83842  22621043.2364   22621042.4004
        49.0004         43.0004
  22241968.9534   -9357252.84843  -7286613.20142  22241970.3684   22241968.9714
        52.0004         45.0004
  22542333.5474   -9096877.84743  -7049824.56242  22542335.7214   22542331.5424
        51.0004         45.0004
  23210057.3514   -1235716.57043   -954825.86242  23210058.8084   23210058.2794
        47.0004         41.0004
 05  6 27 17 26  0.0000000  0  8G22G18G15G14G 1G 3G19G 9
  20921467.3094    7040478.56844   5497654.75642  20921467.3414   20921462.2084
        57.0004         50.0004
  22277921.7634   18900063.09743  14729124.71342  22277923.0874   22277920.5504
        52.0004         45.0004
  20315166.3934    6054945.12244   4722311.49142  20315167.1564   20315164.5854
        57.0004         50.0004
  20503880.4974  -23641705.41343 -18359135.51942  20503881.5134   20503878.1094
        55.0004         50.0004
  22603675.4104  -11745598.14643  -9082737.50542  22603677.3944   22603677.1334
        49.0004         43.0004
  22248937.5014   -9320634.84643  -7258079.72442  22248938.1084   22248936.8064
        52.0004         45.0004
  22536848.9514   -9125693.16943  -7072278.06142  22536850.0754   22536847.9354
        50.0004         45.0004
  23214734.9644   -1211135.58443   -935671.84242  23214737.2174   23214737.2334
        46.0004         40.0004
 05  6 27 17 26 30.0000000  0  8G22G18G15G14G 1G 3G19G 9
  20925169.7914    7059937.14544   5512817.27942  20925170.6644   20925164.9594
        57.0004         50.0004
  22288511.3744   18955716.24643  14772490.80442  22288513.6414   22288511.3044
        52.0004         45.0004
  20322254.4414    6092193.48944   4751336.17842  20322255.1024   20322253.1934
        57.0004         50.0004
  20497005.9864  -23677829.74943 -18387284.34142  20497007.4234   20497004.2294
        54.0004         50.0004
  22586366.6504  -11836560.35843  -9153617.10542  22586367.7654   22586367.1314
        50.0004         43.0004
  22255992.7284   -9283557.85143  -7229188.59242  22255993.9144   22255992.4304
        52.0004         45.0004
  22531469.6104   -9153967.64543  -7094310.12542  22531470.7744   22531466.8984
        50.0004         45.0004
  23219528.2784   -1185950.63243   -916047.22742  23219529.4784   23219526.3674
        46.0004         40.0004
 05  6 27 17 27  0.0000000  0  8G22G18G15G14G 1G 3G19G 9
  20928903.9944    7079557.56544   5528105.91142  20928904.5424   20928898.8054
        57.0004         50.0004
  22299121.4704   19011467.01043  14815932.91242  22299123.1014   22299119.7844
        53.0004         45.0004
  20329430.9504    6129905.69444   4780722.30042  20329431.5374   20329429.6604
        57.0004         50.0004
  20490228.7184  -23713442.76143 -18415034.72642  20490230.7794   20490227.2114
        54.0004         50.0004
  22569112.9384  -11927226.42843  -9224265.91442  22569113.4764   22569113.3674
        49.0004         43.0004
  22263137.3344   -9246015.53943  -7199934.87842  22263138.6474   22263136.6494
        52.0004         45.0004
  22526193.0044   -9181692.30543  -7115913.74042  22526194.4134   22526190.6304
        50.0004         45.0004
  23224435.4084   -1160153.95943   -895945.89242  23224437.3714   23224435.3134
        46.0004         40.0004
 05  6 27 17 27 30.0000000  0  8G22G18G15G14G 1G 3G19G 9
  20932667.7414    7099336.87344   5543518.35442  20932668.2954   20932662.8324
        57.0004         50.0004
  22309748.4144   19067313.74243  14859449.81142  22309750.1654   22309746.8834
        51.0004         44.0004
  20336695.6434    6168080.25044   4810468.69342  20336696.4054   20336693.8174
        57.0004         50.0004
  20483548.8284  -23748546.09643 -18442387.95042  20483549.6664   20483547.1764
        54.0004         50.0004
  22551915.1224  -12017596.25843  -9294683.92142  22551917.2264   22551917.5674
        49.0004         43.0004
  22270368.5294   -9208011.78043  -7170321.60242  22270370.0334   22270367.9314
        52.0004         45.0004
  22521022.2474   -9208868.42743  -7137089.93242  22521023.5304   22521020.3444
        51.0004         46.0004
  23229461.6924   -1133747.52343   -875369.52242  23229462.3244   23229461.2364
        45.0004         40.0004
 05  6 27 17 28  0.0000000  0  8G22G18G15G14G 1G 3G19G 9
  20936461.0294    7119274.76843   5559054.37642  20936461.4764   20936456.6904
        56.0004         49.0004
  22320393.0014   19123255.81943  14903041.02842  22320395.8754   22320392.5144
        52.0004         44.0004
  20344047.4974    6206717.12544   4840575.34242  20344048.1564   20344046.2664
        57.0004         50.0004
  20476965.8024  -23783139.66643 -18469343.95642  20476967.3144   20476964.2684
        54.0004         50.0004
  22534776.1274  -12107668.24443  -9364869.84942  22534777.3364   22534777.3834
        49.0004         43.0004
  22277688.4524   -9169548.52143  -7140350.29242  22277690.0004   22277688.0584
        53.0004         46.0004
  22515954.7584   -9235495.13343  -7157838.00942  22515956.1794   22515953.4374
        51.0004         46.0004
  23234601.5474   -1106731.76843   -854318.29042  23234601.7574   23234602.4974
        45.0004         40.0004
 05  6 27 17 28 30.0000000  0  8G22G18G15G14G 1G 3G19G 9
  20940285.5694    7139368.10943   5574711.50942  20940285.6184   20940280.3494
        56.0004         49.0004
  22331056.1094   19179290.22343  14946704.21142  22331058.2994   22331054.1114
        52.0004         44.0004
  20351487.8444    6245813.50144   4871040.03542  20351488.2714   20351485.8244
        57.0004         50.0004
  20470479.4674  -23817225.87643 -18495904.61542  20470481.0204   20470477.6434
        55.0004         50.0004
  22517692.7744  -12197443.68943  -9434824.66442  22517693.8084   22517693.1204
        50.0004         43.0004
  22285093.9684   -9130630.59943  -7110024.66742  22285095.0514   22285093.4504
        52.0004         45.0004
  22510993.4874   -9261574.74443  -7178159.78042  22510994.7414   22510990.6344
        52.0004         46.0004
  23239858.4584   -1079110.31643   -832795.07042  23239859.0254   23239858.4844
        46.0004         40.0004
 05  6 27 17 29  0.0000000  0  8G22G18G15G14G 1G 3G19G 9
  20944141.0064    7159626.99644   5590497.64642  20944141.2804   20944135.9184
        57.0004         50.0004
  22341740.1354   19235426.92543  14990447.07042  22341741.0444   22341736.7814
        53.0004         44.0004
  20359017.1874    6285379.61544   4901870.76342  20359017.5184   20359015.1334
        57.0004         50.0004
  20464091.8234  -23850794.35343 -18522061.85742  20464093.2994   20464090.1274
        55.0004         50.0004
  22500668.3324  -12286910.43643  -9504538.95242  22500668.8194   22500667.7194
        50.0004         43.0004
  22292587.9294   -9091249.41943  -7079338.04242  22292588.8694   22292586.0834
        51.0004         45.0004
  22506137.2354   -9287096.07043  -7198046.53142  22506138.0914   22506134.0974
        52.0004         46.0004
  23245230.8224   -1050873.05243   -810792.01542  23245233.7974   23245232.1604
        46.0004         41.0004
 05  6 27 17 29 30.0000000  0  8G22G18G15G14G 1G 3G19G 9
  20948024.8824    7180037.68244   5606402.06442  20948025.2504   20948019.0374
        57.0004         49.0004
  22352439.0544   19291652.91243  15034259.50242  22352440.0864   22352436.1254
        52.0004         44.0004
  20366632.8424    6325402.48744   4933057.40642  20366633.6694   20366631.3284
        57.0004         50.0004
  20457800.1164  -23883857.95243 -18547825.68642  20457801.7364   20457798.1194
        55.0004         50.0004
  22483699.3804  -12376080.00643  -9574021.67842  22483700.8144   22483699.4444
        51.0004         44.0004
  22300167.7224   -9051420.29643  -7048302.38042  22300169.3084   22300167.1704
        52.0004         45.0004
  22501383.9744   -9312071.80643  -7217508.14542  22501385.0934   22501380.8234
        52.0004         45.0004
  23250721.3854   -1022033.83543   -788319.90742  23250721.8584   23250719.8794
        47.0004         41.0004
 05  6 27 17 30  0.0000000  0  8G22G18G15G14G 1G 3G19G 9
  20951938.4304    7200608.68543   5622431.40442  20951939.1114   20951934.2434
        56.0004         49.0004
  22363156.1484   19347976.96143  15078148.34142  22363157.4484   22363154.2864
        51.0004         44.0004
  20374337.7344    6365891.34344   4964607.13742  20374338.5904   20374336.4264
        57.0004         50.0004
  20451606.0944  -23916407.43643 -18573188.89942  20451607.6824   20451603.8394
        55.0004         50.0004
  22466789.3884  -12464941.67743  -9643264.49542  22466791.8624   22466790.0304
        51.0004         44.0004
  22307832.5994   -9011136.40243  -7016912.35442  22307835.5484   22307833.6324
        52.0004         45.0004
  22496737.1394   -9336492.36443  -7236537.17042  22496738.3604   22496734.0664
        52.0004         45.0004
  23256323.5184    -992584.42543   -765372.32442  23256325.6674   23256325.0524
        47.0004         41.0004
 05  6 27 17 30 30.0000000  0  8G22G18G15G14G 1G 3G19G 9
  20955883.7454    7221337.00443   5638583.32842  20955883.9954   20955878.5924
        56.0004         49.0004
  22373894.3694   19404396.55643  15122111.65142  22373894.8484   22373891.7464
        53.0004         45.0004
  20382130.4674    6406843.42244   4996517.84042  20382131.2834   20382129.0364
        57.0004         50.0004
  20445509.4644  -23948445.03943 -18598153.25342  20445511.2764   20445507.8134
        55.0004         50.0004
  22449938.0184  -12553496.18543  -9712267.95242  22449938.6744   22449938.1634
        50.0004         44.0004
  22315584.1094   -8970402.19643  -6985171.45942  22315585.2134   22315583.9794
        52.0004         45.0004
  22492195.3874   -9360359.34743  -7255134.85142  22492196.5154   22492191.9034
        52.0004         45.0004
  23262044.1674    -962527.51943   -741951.38542  23262045.1784   23262044.4884
        47.0004         41.0004
 05  6 27 17 31  0.0000000  0  8G22G18G15G14G 1G 3G19G 9
  20959857.6694    7242223.12743   5654858.22442  20959858.2784   20959853.2314
        56.0004         49.0004
  22384647.4304   19460911.67043  15166149.38242  22384648.5204   22384645.8134
        52.0004         44.0004
  20390011.8654    6448259.00344   5028789.71442  20390012.3544   20390010.2724
        57.0004         50.0004
  20439509.8824  -23979970.37943 -18622718.43742  20439511.7964   20439508.1684
        54.0004         50.0004
  22433144.9934  -12641741.51743  -9781030.47942  22433146.6334   22433145.4204
        51.0004         44.0004
  22323420.8314   -8929219.43243  -6953081.02642  22323421.8674   22323421.9704
        51.0004         45.0004
  22487759.1094   -9383671.98143  -7273300.54942  22487760.0934   22487756.7284
        52.0004         45.0004
  23267876.9554    -931863.30343   -718057.22442  23267879.4704   23267879.0214
        46.0004         40.0004
 05  6 27 17 31 30.0000000  0  8G22G18G15G14G 1G 3G19G 9
  20963862.9734    7263267.20844   5671256.19442  20963863.1744   20963857.9194
        57.0004         50.0004
  22395420.3664   19517522.61843  15210261.78542  22395421.1894   22395417.8864
        51.0004         44.0004
  20397981.2844    6490138.82544   5061423.32742  20397982.0554   20397979.7274
        57.0004         50.0004
  20433609.0314  -24010982.65943 -18646883.82942  20433610.6494   20433606.7814
        55.0004         50.0004
  22416412.4044  -12729675.28943  -9849550.26342  22416413.9344   22416412.5354
        51.0004         44.0004
  22331343.7014   -8887589.36443  -6920642.05142  22331344.6234   22331343.4144
        52.0004         45.0004
  22483427.8944   -9406428.87743  -7291033.19942  22483428.4524   22483424.9664
        51.0004         45.0004
  23273828.2424    -900591.78443   -693689.85642  23273830.5084   23273828.8334
        45.0004         40.0004
 05  6 27 17 32  0.0000000  0  8G22G18G15G14G 1G 3G19G 9
  20967896.0184    7284461.71144   5687771.38642  20967896.3844   20967890.7944
        57.0004         50.0004
  22406211.3724   19574222.75143  15254443.68042  22406211.7234   22406207.7274
        52.0004         43.0004
  20406038.0834    6532475.98444   5094413.30242  20406038.7614   20406035.7644
        57.0004         50.0004
  20427803.7044  -24041488.86543 -18670654.87542  20427805.6754   20427801.5264
        55.0004         50.0004
  22399737.1224  -12817303.02443  -9917831.55842  22399738.6194   22399737.1984
        50.0004         44.0004
  22339349.0064   -8845521.04943  -6887861.59142  22339350.0534   22339348.5084
        52.0004         45.0004
  22479201.6954   -9428636.82843  -7308338.08942  22479202.5894   22479199.0354
        50.0004         45.0004
  23279894.5324    -868720.88443   -668855.39142  23279895.8284   23279894.4594
        46.0004         41.0004
 05  6 27 17 32 30.0000000  0  9G22G21G18G15G14G 1G 3G19G 9
  20971959.9544    7305817.31244   5704412.09642  20971960.0374   20971954.6794
        57.0004         50.0004
  23183470.792
        42.000
  22417018.9124   19631022.31143  15298703.06342  22417020.5974   22417015.6584
        52.0004         44.0004
  20414183.0554    6575281.09044   5127767.92042  20414183.8914   20414181.6694
        57.0004         50.0004
  20422096.9814  -24071477.80043 -18694022.86942  20422098.8814   20422094.7904
        55.0004         50.0004
  22383123.4364  -12904612.32343  -9985864.72442  22383123.1074   22383123.9444
        51.0004         44.0004
  22347438.5224   -8803005.82843  -6854732.89842  22347439.9044   22347438.6414
        51.0004         45.0004
  22475082.2764   -9450284.22243  -7325206.19242  22475083.2894   22475079.7744
        50.0004         45.0004
  23286074.4544    -836240.43543   -643545.97942  23286075.8334   23286075.8974
        47.0004         41.0004
 05  6 27 17 33  0.0000000  0  8G22G18G15G14G 1G 3G19G 9
  20976052.3944    7327325.82143   5721171.96942  20976052.6304   20976047.5604
        56.0004         49.0004
  22427844.4594   19687913.83143  15343034.12042  22427846.0604   22427843.1604
        52.0004         44.0004
  20422416.7094    6618546.82644   5161481.46642  20422417.1314   20422414.2994
        57.0004         50.0004
  20416486.9334  -24100956.80943 -18716993.51042  20416488.6644   20416485.0294
        54.0004         50.0004
  22366566.5784  -12991608.83243 -10053654.16442  22366568.2724   22366568.2644
        51.0004         44.0004
  22355613.4074   -8760053.09143  -6821263.25442  22355613.4424   22355612.0204
        52.0004         45.0004
  22471067.8824   -9471377.94843  -7341642.84842  22471070.3214   22471065.4364
        51.0004         45.0004
  23292371.1614    -803158.47343   -617767.85542  23292372.8284   23292370.0924
        48.0004         42.0004
 05  6 27 17 33 30.0000000  0  8G22G18G15G14G 1G 3G19G 9
  20980174.5704    7348989.62443   5738052.84842  20980175.4054   20980170.4114
        56.0004         50.0004
  22438688.9454   19744899.74243  15387438.71142  22438690.7724   22438687.3804
        51.0004         44.0004
  20430737.5614    6662275.64543   5195555.86142  20430738.0484   20430735.5834
        56.0004         49.0004
  20410974.6474  -24129923.58043 -18739565.00642  20410976.7084   20410972.8614
        55.0004         50.0004
  22350073.2134  -13078288.51943 -10121196.72442  22350074.4064   22350073.1694
        51.0004         44.0004
  22363869.2744   -8716662.45043  -6787452.41942  22363872.3234   22363869.7094
        52.0004         45.0004
  22467159.9994   -9491915.07543  -7357645.79942  22467161.9404   22467158.0514
        51.0004         45.0004
  23298782.1864    -769473.05343   -591519.51342  23298782.7604   23298781.3194
        49.0004         42.0004
 05  6 27 17 34  0.0000000  0  8G22G18G15G14G 1G 3G19G 9
  20984327.3164    7370807.79243   5755054.00842  20984327.5004   20984321.9964
        56.0004         50.0004
  22449551.4094   19801979.34243  15431916.27242  22449552.7584   22449548.0944
        52.0004         43.0004
  20439147.0054    6706466.41344   5229990.21542  20439147.2454   20439145.2634
        57.0004         50.0004
  20405560.3494  -24158378.78543 -18761737.87842  20405561.7014   20405558.2324
        55.0004         50.0004
  22333638.5474  -13164650.45843 -10188491.69742  22333640.5574   22333639.0074
        51.0004         44.0004
  22372209.3204   -8672836.84143  -6753302.64042  22372211.0344   22372209.2604
        51.0004         45.0004
  22463358.2104   -9511896.07643  -7373215.41742  22463359.7554   22463355.6774
        51.0004         45.0004
  23305304.9114    -735185.96743   -564802.34742  23305306.6394   23305305.8534
        48.0004         41.0004
 05  6 27 17 34 30.0000000  0  8G22G18G15G14G 1G 3G19G 9
  20988507.8584    7392782.34543   5772177.03442  20988508.9094   20988503.6934
        56.0004         49.0004
  22460430.8574   19859154.90143  15476468.61942  22460433.2274   22460428.4944
        51.0004         43.0004
  20447644.8324    6751121.75244   5264786.56842  20447645.7194   20447643.0454
        57.0004         50.0004
  20400243.2854  -24186319.91143 -18783510.17542  20400245.1404   20400241.4904
        55.0004         50.0004
  22317266.3184  -13250690.49543 -10255535.82642  22317267.1494   22317266.1744
        51.0004         45.0004
  22380632.6574   -8628575.72843  -6718813.47642  22380633.7984   22380631.4904
        52.0004         45.0004
  22459662.1424   -9531317.71943  -7388349.19142  22459663.5934   22459659.6254
        51.0004         45.0004
  23311945.0914    -700295.24743   -537614.81242  23311946.0064   23311945.5474
        47.0004         42.0004
 05  6 27 17 35  0.0000000  0  8G22G18G15G14G 1G 3G19G 9
  20992719.0274    7414906.95043   5789416.97342  20992719.1914   20992713.6084
        56.0004         49.0004
  22471328.9384   19916420.06243  15521090.79542  22471329.9074   22471325.7114
        52.0004         44.0004
  20456229.8434    6796235.46244   5299940.10142  20456230.2164   20456227.8084
        57.0004         50.0004
  20395022.9904  -24213752.68743 -18804886.35742  20395024.8074   20395021.1004
        55.0004         50.0004
  22300953.2064  -13336413.01743 -10322332.55342  22300954.2194   22300954.1674
        51.0004         45.0004
  22389135.7984   -8583887.15643  -6683991.25642  22389138.0844   22389135.9864
        52.0004         45.0004
  22456071.7924   -9550185.60243  -7403051.46642  22456073.5954   22456069.9144
        52.0004         45.0004
  23318700.1724    -664807.78543   -509962.26442  23318700.8284   23318700.3544
        48.0004         41.0004
 05  6 27 17 35 30.0000000  0  8G22G18G15G14G 1G 3G19G 9
  20996958.9304    7437186.46843   5806777.62642  20996958.7364   20996953.6014
        56.0004         49.0004
  22482242.7604   19973780.05043  15565786.89342  22482245.4334   22482242.4374
        52.0004         44.0004
  20464902.6024    6841812.32044   5335454.51442  20464903.0284   20464900.5064
        57.0004         50.0004
  20389900.3204  -24240672.27443 -18825862.65442  20389902.0904   20389897.8304
        55.0004         50.0004
  22284703.3114  -13421811.32443 -10388876.63442  22284704.6674   22284703.1824
        52.0004         45.0004
  22397722.4354   -8538768.44643  -6648833.87242  22397723.6254   22397722.2054
        53.0004         45.0004
  22452587.6274   -9568494.53143  -7417318.19642  22452588.8124   22452585.3894
        51.0004         45.0004
  23325565.1834    -628719.29043   -481841.38942  23325569.7204   23325567.2034
        48.0004         42.0004
 05  6 27 17 36  0.0000000  0  8G22G18G15G14G 1G 3G19G 9
  21001226.7184    7459621.24843   5824259.25842  21001227.5204   21001222.6944
        56.0004         49.0004
  22493177.1624   20031235.36643  15610557.25642  22493177.2484   22493175.0524
        52.0004         44.0004
  20473663.7444    6887852.77744   5371330.18842  20473664.7274   20473662.2684
        57.0004         50.0004
  20384875.3684  -24267078.05443 -18846438.57542  20384877.4074   20384873.4814
        55.0004         50.0004
  22268513.8744  -13506883.14143 -10455166.29742  22268515.5004   22268514.1554
        51.0004         45.0004
  22406388.2344   -8493221.15443  -6613342.51842  22406389.6584   22406388.7214
        51.0004         45.0004
  22449210.0904   -9586243.55543  -7431148.61242  22449212.0344   22449208.2194
        51.0004         46.0004
  23332547.8794    -592030.24243   -453252.54442  23332550.0024   23332548.6104
        47.0004         42.0004
 05  6 27 17 36 30.0000000  0  8G22G18G15G14G 1G 3G19G 9
  21005525.9294    7482206.35244   5841858.03042  21005526.0714   21005520.5684
        57.0004         49.0004
  22504127.5724   20088781.13643  15655398.09542  22504128.4494   22504124.6174
        50.0004         44.0004
  20482512.0024    6934352.26043   5407563.53642  20482512.5934   20482510.8134
        56.0004         50.0004
  20379946.8944  -24292974.57943 -18866617.66442  20379948.6504   20379945.4964
        54.0004         50.0004
  22252386.4354  -13591631.54343 -10521203.97142  22252388.0604   22252386.5324
        51.0004         44.0004
  22415136.5304   -8447252.17643  -6577522.56042  22415136.5294   22415135.9984
        51.0004         44.0004
  22445939.6254   -9603436.74343  -7444545.90342  22445940.3734   22445937.1554
        52.0004         46.0004
  23339644.7314    -554745.98843   -424199.91542  23339645.9754   23339642.9714
        49.0004         42.0004
 05  6 27 17 37  0.0000000  0  8G22G18G15G14G 1G 3G19G 9
  21009852.3884    7504944.43344   5859576.01842  21009852.7744   21009847.2334
        57.0004         50.0004
  22515096.3834   20146420.62343  15700311.92742  22515098.2594   22515094.7054
        51.0004         44.0004
  20491448.7774    6981313.45643   5444156.65342  20491449.3764   20491447.2434
        56.0004         50.0004
  20375116.8094  -24318359.04743 -18886397.75942  20375118.0784   20375115.0444
        54.0004         50.0004
  22236321.9304  -13676052.00843 -10586986.10042  22236323.7634   22236323.6014
        52.0004         44.0004
  22423965.5534   -8400860.60343  -6541373.30242  22423966.0484   22423963.7034
        52.0004         45.0004
  22442773.1894   -9620070.72443  -7457507.43942  22442774.3434   22442771.1834
        52.0004         46.0004
  23346851.3334    -516864.25943   -394681.72042  23346854.5084   23346851.1494
        49.0004         42.0004
 05  6 27 17 37 30.0000000  0  8G22G18G15G14G 1G 3G19G 9
  21014207.0354    7527833.11543   5877411.33842  21014208.2174   21014202.8374
        56.0004         50.0004
  22526082.0114   20204151.55743  15745297.05042  22526083.8894   22526080.7324
        51.0004         44.0004
  20500472.7874    7028734.12144   5481107.80142  20500473.5804   20500471.0394
        57.0004         50.0004
  20370383.3444  -24343233.81743 -18905780.69442  20370385.1174   20370381.5404
        54.0004         50.0004
  22220317.9544  -13760145.20843 -10652513.20742  22220320.6184   22220319.2314
        51.0004         44.0004
  22432873.0694   -8354050.59143  -6504898.02142  22432873.6444   22432872.6854
        52.0004         45.0004
  22439713.1504   -9636147.53843  -7470034.82842  22439714.3944   22439711.8444
        50.0004         45.0004
  23354173.1994    -478388.19743   -364700.42342  23354176.8214   23354173.9614
        47.0004         42.0004
 05  6 27 17 38  0.0000000  0  8G22G18G15G14G 1G 3G19G 9
  21018593.8154    7550877.99144   5895368.37542  21018593.7294   21018588.2654
        57.0004         50.0004
  22537086.6434   20261979.47343  15790357.76242  22537086.9184   22537082.9294
        51.0004         43.0004
  20509585.1144    7076619.79343   5518421.30342  20509585.7264   20509582.7904
        56.0004         49.0004
  20365747.9964  -24367593.01543 -18924761.88042  20365749.7364   20365746.2504
        55.0004         50.0004
  22204381.6194  -13843903.78843 -10717779.59142  22204382.8394   22204380.5234
        52.0004         45.0004
  22441860.5524   -8306818.81143  -6468094.08942  22441860.6224   22441860.3944
        51.0004         44.0004
  22436761.8894   -9651661.19643  -7482123.41242  22436761.7904   22436758.4504
        51.0004         45.0004
  23361609.6694    -439313.20843   -334252.40342  23361608.7284   23361609.1674
        47.0004         41.0004
 05  6 27 17 38 30.0000000  0  8G22G18G15G14G 1G 3G19G 9
  21023006.7454    7574071.36143   5913441.13342  21023007.1144   21023001.9774
        56.0004         49.0004
  22548108.4674   20319897.07243  15835488.35742  22548110.4884   22548105.8364
        52.0004         43.0004
  20518784.1774    7124962.95243   5556091.28042  20518784.9004   20518782.7894
        56.0004         49.0004
  20361209.5984  -24391444.24143 -18943347.23742  20361211.3164   20361207.4184
        55.0004         50.0004
  22188505.2824  -13927333.51843 -10782789.72942  22188506.7734   22188505.8904
        52.0004         45.0004
  22450925.9744   -8259174.72243  -6430968.84342  22450927.9924   22450926.4794
        51.0004         45.0004
  22433916.4084   -9666618.47343  -7493778.44942  22433917.2854   22433912.4764
        51.0004         45.0004
  23369157.2464    -399647.47843   -303343.99942  23369159.8514   23369157.6954
        46.0004         41.0004
 05  6 27 17 39  0.0000000  0  8G22G18G15G14G 1G 3G19G 9
  21027448.7454    7597417.24143   5931632.73142  21027449.6534   21027444.6884
        56.0004         49.0004
  22559146.1444   20377908.69543  15880692.18442  22559147.0324   22559143.8864
        50.0004         43.0004
  20528071.8864    7173767.91644   5594121.10142  20528072.6624   20528069.9824
        57.0004         50.0004
  20356767.9074  -24414782.93343 -18961533.22142  20356769.8134   20356765.9114
        54.0004         50.0004
  22172692.1244  -14010428.38243 -10847538.91242  22172694.4054   22172691.8194
        52.0004         45.0004
  22460072.4824   -8211116.02943  -6393520.55342  22460074.2464   22460071.9814
        52.0004         45.0004
  22431176.7734   -9681014.70543  -7504996.31742  22431177.3994   22431173.0444
        51.0004         45.0004
  23376817.1534    -359387.49943   -271972.63542  23376820.1074   23376818.6834
        45.0004         40.0004
 05  6 27 17 39 30.0000000  0  8G22G18G15G14G 1G 3G19G 9
  21031920.0354    7620911.78943   5949940.17142  21031920.6804   21031915.1894
        56.0004         49.0004
  22570203.2764   20436010.47843  15925966.25942  22570204.3464   22570200.0764
        51.0004         44.0004
  20537445.9554    7223030.28543   5632507.33542  20537446.8914   20537444.4204
        56.0004         50.0004
  20352423.2264  -24437613.38243 -18979323.18242  20352425.3824   20352421.8104
        54.0004         50.0004
  22156942.7814  -14093190.87443 -10912029.10542  22156944.2934   22156942.3004
        52.0004         44.0004
  22469295.1954   -8162649.10943  -6355754.17342  22469297.0534   22469294.7384
        52.0004         44.0004
  22428542.5144   -9694853.88043  -7515780.11142  22428544.8334   22428539.8234
        51.0004         45.0004
  23384591.2384    -318538.32843   -240142.13142  23384592.7814   23384589.3074
        45.0004         39.0004
 05  6 27 17 40  0.0000000  0  8G22G18G15G14G 1G 3G19G 9
  21036419.4774    7644557.05043   5968365.04342  21036420.2104   21036414.7774
        56.0004         49.0004
  22581276.5014   20494204.74843  15971312.40742  22581278.4174   22581276.0374
        50.0004         43.0004
  20546907.7264    7272752.16143   5671251.64442  20546908.5974   20546906.1584
        56.0004         49.0004
  20348176.3834  -24459933.04143 -18996715.11642  20348178.1124   20348173.9554
        55.0004         50.0004
  22141257.1314  -14175617.12943 -10976257.29442  22141257.3564   22141258.0254
        51.0004         45.0004
  22478596.7144   -8113773.95043  -6317669.67442  22478597.3514   22478595.5574
        52.0004         44.0004
  22426016.6634   -9708133.28143  -7526127.72442  22426018.1064   22426013.2444
        52.0004         45.0004
  23392477.2714    -277098.44043   -207851.32342  23392477.9784   23392476.7034
        45.0004         39.0004
 05  6 27 17 40 30.0000000  0  8G22G18G15G14G 1G 3G19G 9
  21040948.4314    7668353.57344   5986907.77942  21040948.4924   21040943.1044
        57.0004         49.0004
  22592368.3984   20552492.20043  16016731.19442  22592370.6514   22592366.8464
        51.0004         44.0004
  20556457.0894    7322933.93443   5710354.31842  20556457.5054   20556455.2024
        56.0004         49.0004
  20344025.6694  -24481741.65443 -19013708.83942  20344027.6464   20344024.1984
        54.0004         50.0004
  22125637.7424  -14257704.90343 -11040221.75242  22125638.4324   22125637.6604
        52.0004         45.0004
  22487974.2204   -8064492.03143  -6279268.20042  22487975.7414   22487973.6134
        52.0004         45.0004
  22423595.1794   -9720851.87143  -7536038.32842  22423597.1084   22423593.3584
        52.0004         46.0004
  23400472.0024    -235068.25343   -175100.52442  23400475.6864   23400475.7744
        43.0004         39.0004
 05  6 27 17 41  0.0000000  0  8G22G18G15G14G 1G 3G19G 9
  21045505.0894    7692302.32543   6005569.15142  21045505.5734   21045500.4584
        56.0004         49.0004
  22603478.4864   20610873.74443  16062223.28742  22603480.5144   22603476.1054
        51.0004         44.0004
  20566094.1824    7373576.37843   5749815.93442  20566094.8824   20566092.2704
        56.0004         49.0004
  20339973.5374  -24503038.44043 -19030303.72642  20339974.7624   20339971.4304
        54.0004         50.0004
  22110081.2864  -14339451.60843 -11103920.44242  22110082.3124   22110080.2234
        52.0004         45.0004
  22497429.0074   -8014804.35343  -6240550.57042  22497431.5204   22497429.6954
        52.0004         45.0004
  22421282.0294   -9733008.55943  -7545511.07742  22421283.9344   22421279.9834
        52.0004         46.0004
  23408583.6484    -192447.75443   -141889.75642  23408584.7054   23408583.1254
        43.0004         38.0004
 05  6 27 17 41 30.0000000  0  8G22G18G15G14G 1G 3G19G 9
  21050086.5954    7716379.15543   6024330.30342  21050087.5564   21050082.0414
        56.0004         49.0004
  22614602.1324   20669325.78943  16107770.29042  22614603.3594   22614601.0504
        52.0004         44.0004
  20575813.9024    7424655.77943   5789618.03442  20575814.3734   20575812.3734
        56.0004         49.0004
  20336013.6204  -24523847.04643 -19046518.21542  20336015.3704   20336011.2344
        54.0004         50.0004
  22094586.2574  -14420879.32343 -11167370.55042  22094587.9584   22094584.8554
        53.0004         45.0004
  22506957.8864   -7964736.87943  -6201537.00142  22506958.0824   22506956.8534
        52.0004         44.0004
  22419071.3574   -9744626.90543  -7554564.34742  22419072.8324   22419069.3334
        51.0004         46.0004
  23416805.9604    -149261.70943   -108238.29042  23416806.3074   23416801.6324
        47.0004         39.0004
 05  6 27 17 42  0.0000000  0  8G22G18G15G14G 1G 3G19G 9
  21054701.4124    7740626.32444   6043224.19942  21054701.6474   21054696.2094
        57.0004         49.0004
  22625746.6824   20727890.94143  16153405.43842  22625747.9004   22625744.5614
        51.0004         44.0004
  20585625.6914    7476214.12643   5829793.35342  20585626.0924   20585623.9494
        56.0004         49.0004
  20332154.8364  -24544125.34343 -19062319.47842  20332156.6984   20332152.5354
        54.0004         50.0004
  22079158.9904  -14501944.23743 -11230537.95642  22079160.9254   22079159.4034
        52.0004         45.0004
  22516563.8544   -7914249.67443  -6162196.36142  22516564.8764   22516564.4334
        51.0004         44.0004
  22416971.2294   -9755664.31043  -7563164.91242  22416972.5074   22416968.8834
        52.0004         46.0004
  23425136.6424    -105469.03343    -74114.12442  23425139.4554   23425134.6494
        46.0004         39.0004
 05  6 27 17 42 30.0000000  0  8G22G18G15G14G 1G 3G19G 9
  21059342.4494    7765019.72043   6062232.03342  21059343.5434   21059337.7064
        56.0004         49.0004
  22636908.0734   20786544.50143  16199109.49042  22636909.0254   22636906.4244
        51.0004         43.0004
  20595523.6274    7528226.89043   5870322.76042  20595523.8374   20595521.6084
        56.0004         49.0004
  20328392.8504  -24563897.83043 -19077726.60042  20328394.1634   20328390.3244
        55.0004         50.0004
  22063798.5534  -14582669.08643 -11293440.39342  22063798.9214   22063799.7904
        53.0004         45.0004
  22526246.3084   -7863369.21543  -6122549.29242  22526248.0934   22526246.3984
        51.0004         44.0004
  22414976.2834   -9766145.02243  -7571331.69542  22414976.7364   22414974.3114
        50.0004         46.0004
  23433582.6184     -61094.92443    -39536.92242  23433583.2104   23433580.0104
        45.0004         39.0004
 05  6 27 17 43  0.0000000  0  8G22G18G15G14G 1G 3G19G 9
  21064013.2734    7789561.50843   6081355.48842  21064013.7994   21064008.4824
        56.0004         49.0004
  22648085.2504   20845289.54343  16244884.83742  22648087.6384   22648084.4594
        50.0004         43.0004
  20605507.8904    7580696.40543   5911208.07142  20605508.2684   20605506.3034
        56.0004         49.0004
  20324727.0444  -24583162.21743 -19092737.80442  20324728.6494   20324724.9804
        55.0004         50.0004
  22048503.4184  -14663049.84043 -11356074.68642  22048503.8954   22048501.7654
        53.0004         45.0004
  22536004.3324   -7812094.99043  -6082595.39142  22536005.0214   22536003.4504
        51.0004         44.0004
  22413088.6884   -9776066.27743  -7579062.55242  22413089.8174   22413086.7194
        51.0004         45.0004
  23442136.3494     -16137.95243     -4505.46442  23442137.1974   23442136.2064
        44.0004         38.0004
 05  6 27 17 43 30.0000000  0  8G22G18G15G14G 1G 3G19G 9
  21068712.4484    7814256.42443   6100598.27642  21068712.9244   21068707.2764
        56.0004         49.0004
  22659284.0804   20904130.88443  16290735.16542  22659285.9714   22659281.7394
        51.0004         44.0004
  20615580.4204    7633626.85843   5952452.55742  20615581.1324   20615578.4524
        56.0004         49.0004
  20321158.3354  -24601913.89343 -19107349.49742  20321160.0434   20321156.2294
        55.0004         50.0004
  22033273.0264  -14743080.41643 -11418436.10542  22033274.9734   22033273.4594
        53.0004         45.0004
  22545836.1784   -7760424.86343  -6042332.97842  22545838.0664   22545836.3674
        50.0004         44.0004
  22411307.4234   -9785423.33643  -7586353.78042  22411309.5954   22411305.1554
        51.0004         45.0004
  23450798.0304      29405.39543     30982.80742  23450804.3414   23450804.2984
        41.0004         37.0004
 05  6 27 17 44  0.0000000  0  8G22G18G15G14G 1G 3G19G 9
  21073439.7344    7839097.72943   6119955.13442  21073439.7184   21073434.6354
        56.0004         49.0004
  22670498.3414   20963061.95243  16336655.43842  22670499.8724   22670495.5364
        51.0004         44.0004
  20625738.7454    7687011.31043   5994050.81942  20625739.6884   20625737.5594
        56.0004         49.0004
  20317686.2904  -24620159.91443 -19121567.17342  20317687.9214   20317683.8654
        55.0004         50.0004
  22018108.5074  -14822765.81643 -11480528.56342  22018110.2814   22018109.7654
        53.0004         45.0004
  22555742.0154   -7708367.68343  -6001769.00242  22555743.4934   22555742.4564
        50.0004         44.0004
  22409633.8914   -9794222.55843  -7593210.35142  22409634.5214   22409630.7424
        51.0004         45.0004
  23459583.0324      75527.28843     66921.93942  23459581.3734   23459579.7694
        45.0004         38.0004
 05  6 27 17 44 30.0000000  0  8G22G18G15G14G 1G 3G19G 9
  21078194.8654    7864085.86243   6139426.39742  21078194.9704   21078190.4624
        56.0004         49.0004
  22681727.7114   21022083.18743  16382646.00442  22681729.3264   22681729.0384
        49.0004         43.0004
  20635983.7894    7740849.79843   6036002.86542  20635984.4184   20635982.2424
        56.0004         49.0004
  20314310.4824  -24637900.10743 -19135390.68442  20314312.1914   20314308.1354
        55.0004         50.0004
  22003011.0854  -14902104.05043 -11542350.52142  22003013.8154   22003011.6444
        52.0004         45.0004
  22565719.8724   -7655925.19943  -5960904.76642  22565721.3724   22565720.8344
        49.0004         43.0004
  22408066.1934   -9802463.66243  -7599632.02942  22408066.5534   22408063.0544
        52.0004         45.0004
  23468465.6934     122226.92843    103311.26142  23468468.4914   23468466.1004
        44.0004         38.0004
 05  6 27 17 45  0.0000000  0  8G22G18G15G14G 1G 3G19G 9
  21082977.3454    7889218.17943   6159010.00642  21082977.5584   21082972.6434
        56.0004         49.0004
  22692977.9734   21081192.53143  16428705.19742  22692979.4814   22692977.0114
        50.0004         43.0004
  20646314.9774    7795139.63943   6078306.60942  20646315.7164   20646313.2594
        56.0004         49.0004
  20311030.5194  -24655137.39443 -19148822.32142  20311031.8514   20311027.8794
        55.0004         50.0004
  21987980.0454  -14981096.11643 -11603902.73242  21987981.7654   21987979.3704
        53.0004         45.0004
  22575774.3314   -7603102.10143  -5919743.96042  22575775.8404   22575773.9014
        50.0004         44.0004
  22406604.3124   -9810148.90843  -7605620.55042  22406605.0144   22406600.5334
        53.0004         46.0004
  23477461.8274     169500.95743    140148.12842  23477464.4114   23477461.5554
        44.0004         38.0004
 05  6 27 17 45 30.0000000  0  8G22G18G15G14G 1G 3G19G 9
  21087788.6544    7914502.13743   6178711.79542  21087788.9994   21087783.1324
        56.0004         49.0004
  22704244.2704   21140397.44443  16474838.87642  22704245.9814   22704241.9674
        50.0004         43.0004
  20656733.5444    7849887.99043   6120967.63142  20656733.9244   20656731.4554
        56.0004         49.0004
  20307846.9114  -24671863.77843 -19161855.85842  20307848.8604   20307845.6634
        55.0004         50.0004
  21973015.2354  -15059733.11843 -11665178.26442  21973017.0994   21973015.0624
        53.0004         45.0004
  22585899.0114   -7549893.40243  -5878282.65142  22585902.1134   22585899.6934
        51.0004         44.0004
  22405248.0864   -9817270.93243  -7611170.18642  22405249.7264   22405245.7034
        53.0004         46.0004
  23486570.1184     217355.31643    177437.27242  23486569.9464   23486568.1834
        45.0004         38.0004
 05  6 27 17 46  0.0000000  0  8G22G18G15G14G 1G 3G19G 9
  21092627.7604    7939933.58643   6198528.50342  21092628.4764   21092623.5254
        56.0004         49.0004
  22715526.9604   21199693.55943  16521043.62542  22715528.8654   22715526.8214
        49.0004         43.0004
  20667237.6934    7905090.20143   6163982.32242  20667238.3914   20667236.5324
        56.0004         49.0004
  20304760.6634  -24688083.75643 -19174494.80142  20304762.4224   20304758.5844
        55.0004         50.0004
  21958118.4034  -15138017.62443 -11726179.12142  21958119.7214   21958118.5564
        52.0004         45.0004
  22596097.2674   -7496305.20043  -5836525.62942  22596096.8984   22596097.0474
        50.0004         43.0004
  22403999.2884   -9823833.74643  -7616284.07542  22404000.5104   22403996.9514
        52.0004         46.0004
  23495781.8464     265784.79043    215174.56342  23495786.2574   23495783.5874
        44.0004         38.0004
 05  6 27 17 46 30.0000000  0  8G22G18G15G14G 1G 3G19G 9
  21097496.1444    7965512.84444   6218460.37942  21097496.1104   21097490.4364
        57.0004         49.0004
  22726829.5224   21259081.38443  16567319.81842  22726830.1244   22726826.7534
        50.0004         43.0004
  20677829.1704    7960746.30943   6207350.70042  20677829.7804   20677827.4244
        56.0004         49.0004
  20301770.4384  -24703798.06543 -19186739.71342  20301771.9984   20301768.3804
        55.0004         50.0004
  21943289.9384  -15215948.03843 -11786904.07242  21943289.5004   21943289.1854
        53.0004         45.0004
  22606366.5554   -7442339.82943  -5794474.70242  22606366.8364   22606365.5594
        50.0004         43.0004
  22402857.2234   -9829837.11743  -7620962.02642  22402857.1294   22402854.5964
        51.0004         45.0004
  23505109.5014     314788.22043    253359.01942  23505109.3694   23505109.2994
        46.0004         39.0004
 05  6 27 17 47  0.0000000  0  8G22G18G15G14G 1G 3G19G 9
  21102391.1364    7991237.11044   6238505.26642  21102391.2854   21102386.2764
        57.0004         49.0004
  22738146.6224   21318558.79543  16613665.82242  22738148.8894   22738145.5524
        50.0004         43.0004
  20688505.7774    8016853.27843   6251070.40242  20688506.4714   20688503.7984
        56.0004         49.0004
  20298875.8204  -24719009.53443 -19198592.79142  20298877.3684   20298873.7534
        55.0004         50.0004
  21928526.0384  -15293525.58043 -11847354.04942  21928527.9484   21928526.7354
        52.0004         46.0004
  22616705.1144   -7388002.11343  -5752133.68042  22616707.1904   22616704.6534
        49.0004         43.0004
  22401821.6094   -9835283.79643  -7625206.20242  22401822.7284   22401816.8074
        52.0004         45.0004
  23514544.2684     364361.74243    291987.71542  23514545.6554   23514543.6424
        46.0004         39.0004
 05  6 27 17 47 30.0000000  0  8G22G18G15G14G 1G 3G19G 9
  21107313.8744    8017107.98543   6258664.37642  21107314.3234   21107308.6964
        56.0004         49.0004
  22749482.7424   21378127.30743  16660082.81342  22749484.8204   22749481.7104
        51.0004         44.0004
  20699268.3814    8073412.36543   6295142.39542  20699268.8924   20699267.0934
        56.0004         49.0004
  20296077.0824  -24733716.65443 -19210052.86942  20296078.6554   20296074.5234
        55.0004         50.0004
  21913832.2804  -15370747.03443 -11907526.56742  21913832.7994   21913830.6314
        53.0004         45.0004
  22627116.3914   -7333292.87243  -5709503.14242  22627117.0864   22627117.5334
        49.0004         43.0004
  22400889.5234   -9840172.28343  -7629015.43042  22400890.8134   22400888.0254
        51.0004         45.0004
  23524085.5734     414505.69043    331060.87442  23524087.8894   23524085.9704
        48.0004         40.0004
 05  6 27 17 48  0.0000000  0  8G22G18G15G14G 1G 3G19G 9
  21112265.5234    8043127.07344   6278938.97942  21112265.5554   21112259.9484
        57.0004         49.0004
  22760837.5594   21437788.75743  16706572.23042  22760837.8314   22760834.7934
        52.0004         43.0004
  20710117.9744    8130424.80443   6339567.64842  20710118.2684   20710116.1914
        56.0004         49.0004
  20293374.2284  -24747918.20343 -19221119.00442  20293375.9024   20293372.4254
        54.0004         50.0004
  21899205.1984  -15447609.28943 -11967419.19642  21899206.3364   21899205.0844
        52.0004         46.0004
  22637598.0024   -7278212.73943  -5666583.57742  22637599.7514   22637598.0904
        50.0004         43.0004
  22400065.8884   -9844500.87543  -7632388.38342  22400067.6434   22400063.6954
        51.0004         45.0004
  23533736.4014     465220.58143    370578.93442  23533737.9274   23533737.9644
        47.0004         40.0004
 05  6 27 17 48 30.0000000  0  8G22G18G15G14G 1G 3G19G 9
  21117243.6644    8069290.27143   6299325.86842  21117244.2474   21117239.4324
        56.0004         49.0004
  22772205.9814   21497539.40743  16753131.14942  22772208.9094   22772202.9104
        51.0004         43.0004
  20721052.2664    8187886.15443   6384342.69642  20721053.1854   20721050.8834
        56.0004         49.0004
  20290767.1904  -24761618.64543 -19231794.67542  20290769.1264   20290765.0194
        54.0004         50.0004
  21884645.8374  -15524115.22743 -12027034.18142  21884648.1424   21884646.7754
        53.0004         46.0004
  22648149.5434   -7222768.41243  -5623380.24642  22648150.8634   22648149.0654
        51.0004         43.0004
  22399347.7214   -9848273.77643  -7635328.33042  22399348.8494   22399345.7014
        51.0004         45.0004
  23543491.6454     516500.77043    410537.54542  23543496.5674   23543495.2924
        46.0004         40.0004
 05  6 27 17 49  0.0000000  0  8G22G18G15G14G 1G 3G19G 9
  21122251.8344    8095603.78244   6319829.90142  21122252.0544   21122245.8534
        57.0004         49.0004
  22783594.6644   21557385.33843  16799764.31342  22783596.2994   22783592.3584
        51.0004         43.0004
  20732073.1554    8245801.73743   6429471.69942  20732074.2614   20732071.7274
        56.0004         49.0004
  20288256.5684  -24774812.19743 -19242075.36242  20288258.1814   20288254.7344
        54.0004         50.0004
  21870155.3124  -15600257.33943 -12086365.66242  21870157.7204   21870156.5084
        52.0004         45.0004
  22658768.8784   -7166956.20343  -5579890.25642  22658770.6504   22658769.3524
        50.0004         43.0004
  22398736.2414   -9851484.89643  -7637830.52342  22398737.3284   22398733.5974
        51.0004         45.0004
  23553360.7324     568351.05843    450940.34342  23553361.5714   23553362.0804
        47.0004         40.0004
 05  6 27 17 49 30.0000000  0  8G22G18G15G14G 1G 3G19G 9
  21127284.1704    8122057.43143   6340443.13942  21127285.3294   21127280.2134
        56.0004         49.0004
  22794998.1764   21617317.25343  16846464.51442  22794999.0014   22794996.5374
        50.0004         42.0004
  20743178.9084    8304161.40443   6474946.73442  20743179.9134   20743177.3844
        56.0004         49.0004
  20285840.5824  -24787509.26143 -19251969.16842  20285842.2044   20285838.4184
        54.0004         50.0004
  21855735.9884  -15676044.12543 -12145420.27842  21855737.3524   21855734.7744
        52.0004         46.0004
  22669457.8424   -7110787.82543  -5536122.71342  22669458.9084   22669458.2284
        49.0004         43.0004
  22398231.4494   -9854144.69443  -7639903.10142  22398232.4954   22398228.5074
        51.0004         46.0004
  23563335.2974     620760.17343    491778.59542  23563335.9824   23563334.7984
        48.0004         41.0004
 05  6 27 17 50  0.0000000  0  8G22G18G15G14G 1G 3G19G 9
  21132347.0514    8148659.17443   6361171.76042  21132348.1004   21132342.4384
        56.0004         49.0004
  22806420.6914   21677342.51743  16893237.40342  22806422.6504   22806419.6564
        49.0004         42.0004
  20754370.2774    8362972.25343   6520773.35342  20754371.3274   20754368.6264
        56.0004         49.0004
  20283520.1324  -24799703.04443 -19261470.80642  20283521.7644   20283517.9744
        54.0004         50.0004
  21841383.1884  -15751466.76543 -12204191.11242  21841384.7314   21841383.1864
        53.0004         46.0004
  22680216.4764   -7054258.38743  -5492073.81342  22680216.2294   22680214.2864
        50.0004         43.0004
  22397831.2084   -9856245.69643  -7641540.25542  22397831.9614   22397828.5424
        51.0004         46.0004
  23573415.4284     673734.06043    533056.92342  23573416.5594   23573416.9254
        48.0004         41.0004
 05  6 27 17 50 30.0000000  0  8G22G18G15G14G 1G 3G19G 9
  21137437.0124    8175406.00143   6382013.44442  21137437.5484   21137432.2954
        56.0004         49.0004
  22817859.6664   21737458.06543  16940080.65442  22817861.5514   22817858.5934
        48.0004         42.0004
  20765646.4634    8422230.76743   6566948.79542  20765647.2534   20765645.0444
        55.0004         49.0004
  20281295.2014  -24811396.24043 -19270582.38342  20281296.5964   20281292.4734
        54.0004         50.0004
  21827099.1554  -15826526.48743 -12262679.18442  21827100.8844   21827099.3584
        53.0004         46.0004
  22691040.6974   -6997373.30643  -5447747.79042  22691041.1704   22691040.4644
        51.0004         44.0004
  22397536.6744   -9857790.73143  -7642744.19742  22397537.9894   22397534.7764
        51.0004         45.0004
  23583601.6974     727268.66143    574772.16942  23583601.8754   23583603.2484
        47.0004         41.0004
 05  6 27 17 51  0.0000000  0  8G22G18G15G14G 1G 3G19G 9
  21142553.3924    8202298.33143   6402968.50142  21142554.4784   21142549.2304
        56.0004         49.0004
  22829318.3254   21797664.79843  16986994.94342  22829318.9204   22829315.7474
        49.0004         42.0004
  20777008.0174    8481937.02243   6613473.12742  20777008.6374   20777006.7264
        55.0004         48.0004
  20279164.7314  -24822588.94243 -19279303.96142  20279166.7074   20279162.8824
        54.0004         50.0004
  21812885.5444  -15901221.53543 -12320883.10342  21812887.2594   21812885.2484
        53.0004         46.0004
  22701931.3474   -6940134.22843  -5403145.94442  22701933.5914   22701932.5284
        49.0004         43.0004
  22397349.6824   -9858779.56343  -7643514.76242  22397350.5904   22397346.7624
        51.0004         45.0004
  23593896.4614     781362.76743    616923.38342  23593900.0684   23593896.7504
        48.0004         41.0004
 05  6 27 17 51 30.0000000  0  8G22G18G15G14G 1G 3G19G 9
  21147700.9224    8229338.37644   6424038.65642  21147700.9854   21147694.6364
        57.0004         49.0004
  22840791.3634   21857965.05943  17033982.13742  22840792.5214   22840791.7024
        49.0004         43.0004
  20788455.7114    8542092.29743   6660347.34042  20788456.0714   20788454.1044
        55.0004         48.0004
  20277130.6654  -24833280.13443 -19287634.74942  20277132.4294   20277128.2634
        54.0004         50.0004
  21798742.7264  -15975548.89843 -12378800.48642  21798743.7874   21798741.1434
        54.0004         46.0004
  22712892.0544   -6882541.98743  -5358268.91742  22712894.1964   22712893.1574
        51.0004         43.0004
  22397267.7594   -9859211.03443  -7643851.00142  22397269.2704   22397265.0504
        52.0004         45.0004
  23604296.6854     836016.58743    659510.76142  23604298.3134   23604297.2464
        48.0004         41.0004
 05  6 27 17 52  0.0000000  0  8G22G18G15G14G 1G 3G19G 9
  21152872.3014    8256520.01443   6445219.14542  21152872.6424   21152868.0844
        56.0004         49.0004
  22852284.0474   21918353.06143  17081037.69842  22852285.7654   22852282.6224
        50.0004         44.0004
  20799986.7494    8602690.19843   6707566.47442  20799987.0214   20799985.6164
        55.0004         48.0004
  20275190.3884  -24843476.13043 -19295579.67442  20275191.9864   20275188.1694
        54.0004         50.0004
  21784666.2984  -16049512.96243 -12436434.78842  21784667.7374   21784666.2224
        53.0004         46.0004
  22723917.0484   -6824604.52843  -5313122.86042  22723919.3744   22723915.5064
        51.0004         43.0004
  22397289.9864   -9859090.91843  -7643757.43542  22397292.3294   22397287.6844
        52.0004         45.0004
  23614800.9064     891223.17643    702528.88542  23614800.9744   23614802.6294
        48.0004         40.0004
 05  6 27 17 52 30.0000000  0  8G22G18G15G14G 1G 3G19G 9
  21158073.3034    8283848.38743   6466513.97342  21158073.4734   21158068.2164
        56.0004         49.0004
  22863793.1314   21978833.99343  17128165.67942  22863793.5484   22863793.6464
        50.0004         43.0004
  20811603.7604    8663735.19543   6755133.97742  20811604.0304   20811601.9554
        55.0004         48.0004
  20273344.8504  -24853172.18043 -19303135.02742  20273346.7084   20273343.1904
        54.0004         50.0004
  21770662.7224  -16123107.17643 -12493780.91742  21770664.2934   21770663.0794
        54.0004         46.0004
  22735009.4024   -6766319.31943  -5267705.82642  22735009.8304   22735007.3934
        51.0004         43.0004
  22397419.1584   -9858414.52143  -7643230.38142  22397420.4824   22397415.9744
        52.0004         45.0004
  23625412.6254     946985.99043    745980.39742  23625414.5184   23625413.7224
        48.0004         41.0004
 05  6 27 17 53  0.0000000  0  8G22G18G15G14G 1G 3G19G 9
  21163301.0194    8311321.39043   6487921.51642  21163301.3644   21163295.9384
        56.0004         49.0004
  22875319.9634   22039405.95443  17175364.58042  22875320.1484   22875319.0814
        49.0004         42.0004
  20823304.2704    8725224.67543   6803047.83442  20823305.0064   20823303.0444
        55.0004         48.0004
  20271594.4674  -24862371.05943 -19310302.98542  20271596.1324   20271592.9594
        54.0004         50.0004
  21756727.3054  -16196332.61643 -12550839.66142  21756729.5334   21756727.4224
        53.0004         46.0004
  22746165.8844   -6707690.86743  -5222021.32842  22746166.6344   22746163.0654
        51.0004         43.0004
  22397652.7024   -9857184.34743  -7642271.80242  22397653.7624   22397649.4394
        52.0004         46.0004
  23636131.2364    1003301.26743    789862.40942  23636133.3194   23636128.5244
        49.0004         40.0004
 05  6 27 17 53 30.0000000  0  8G22G18G15G14G 1G 3G19G 9
  21168555.5384    8338937.87543   6509440.85242  21168555.6784   21168551.4134
        56.0004         49.0004
  22886862.6004   22100067.92343  17222633.58842  22886863.9664   22886861.4804
        49.0004         43.0004
  20835089.9474    8787156.53943   6851306.39942  20835090.1114   20835088.0264
        55.0004         48.0004
  20269938.6164  -24871074.63043 -19317084.97742  20269939.9874   20269936.4724
        54.0004         50.0004
  21742862.9154  -16269189.26143 -12607611.02942  21742864.3364   21742862.9854
        53.0004         46.0004
  22757385.8584   -6648723.15543  -5176072.48842  22757387.3384   22757385.5474
        50.0004         43.0004
  22397991.8854   -9855401.98343  -7640882.95542  22397993.7964   22397989.2294
        52.0004         46.0004
  23646950.5574    1060166.06843    834172.59742  23646951.8304   23646950.7694
        48.0004         41.0004
